<?xml version="1.0" encoding="UTF-8" standalone="no" ?>
<gpx xmlns="http://www.topografix.com/GPX/1/1" xmlns:xsi="http://www.w3.org/2001/XMLSchema-instance" xsi:schemaLocation="http://www.topografix.com/GPX/1/1 http://www.topografix.com/GPX/1/1/gpx.xsd" version="1.1" creator="VisuGPX - https://www.visugpx.com">
  <metadata>
    <name>2022-07-11 07:47 Le Faou - Landevennec</name>
    <desc><![CDATA[File with points/tracks from LocusWorld/]]></desc>
  </metadata>
  <trk>
    <name><![CDATA[2022-07-11 07:47 Le Faou - Landevennec]]></name>
    <extensions>
      <line xmlns="http://www.topografix.com/GPX/gpx_style/0/2">
        <color>FF0000</color>
        <opacity>0.78</opacity>
        <width>3.0</width>
      </line>
    </extensions>
    <trkseg>
      <trkpt lat="48.2941" lon="-4.17847">
        <ele>11.23</ele>
        <time>2022-07-11T05:47:19.000Z</time>
      </trkpt>
      <trkpt lat="48.29412" lon="-4.17847">
        <ele>11.23</ele>
        <time>2022-07-11T05:47:29.000Z</time>
      </trkpt>
      <trkpt lat="48.29411" lon="-4.17847">
        <ele>11.23</ele>
        <time>2022-07-11T05:47:38.544Z</time>
      </trkpt>
      <trkpt lat="48.29405" lon="-4.17845">
        <ele>11.23</ele>
        <time>2022-07-11T05:47:47.689Z</time>
      </trkpt>
      <trkpt lat="48.294" lon="-4.17831">
        <ele>11.23</ele>
        <time>2022-07-11T05:47:57.011Z</time>
      </trkpt>
      <trkpt lat="48.29395" lon="-4.17827">
        <ele>11.38</ele>
        <time>2022-07-11T05:48:06.036Z</time>
      </trkpt>
      <trkpt lat="48.29396" lon="-4.17826">
        <ele>11.43</ele>
        <time>2022-07-11T05:48:16.000Z</time>
      </trkpt>
      <trkpt lat="48.29395" lon="-4.17826">
        <ele>13.42</ele>
        <time>2022-07-11T05:48:38.000Z</time>
      </trkpt>
      <trkpt lat="48.29394" lon="-4.17826">
        <ele>11.23</ele>
        <time>2022-07-11T05:48:53.000Z</time>
      </trkpt>
      <trkpt lat="48.29392" lon="-4.1782">
        <ele>11.29</ele>
        <time>2022-07-11T05:49:02.613Z</time>
      </trkpt>
      <trkpt lat="48.29388" lon="-4.17816">
        <ele>11.23</ele>
        <time>2022-07-11T05:49:12.285Z</time>
      </trkpt>
      <trkpt lat="48.29384" lon="-4.17807">
        <ele>11.23</ele>
        <time>2022-07-11T05:49:22.000Z</time>
      </trkpt>
      <trkpt lat="48.29383" lon="-4.17806">
        <ele>11.23</ele>
        <time>2022-07-11T05:49:35.168Z</time>
      </trkpt>
      <trkpt lat="48.29374" lon="-4.17807">
        <ele>11.23</ele>
        <time>2022-07-11T05:49:44.281Z</time>
      </trkpt>
      <trkpt lat="48.29367" lon="-4.17817">
        <ele>11.23</ele>
        <time>2022-07-11T05:49:54.000Z</time>
      </trkpt>
      <trkpt lat="48.29363" lon="-4.17827">
        <ele>11.23</ele>
        <time>2022-07-11T05:50:03.026Z</time>
      </trkpt>
      <trkpt lat="48.29359" lon="-4.17842">
        <ele>9.83</ele>
        <time>2022-07-11T05:50:13.000Z</time>
      </trkpt>
      <trkpt lat="48.29355" lon="-4.17855">
        <ele>9.83</ele>
        <time>2022-07-11T05:50:22.692Z</time>
      </trkpt>
      <trkpt lat="48.29354" lon="-4.1787">
        <ele>13.46</ele>
        <time>2022-07-11T05:50:32.577Z</time>
      </trkpt>
      <trkpt lat="48.29352" lon="-4.17886">
        <ele>13.83</ele>
        <time>2022-07-11T05:50:42.372Z</time>
      </trkpt>
      <trkpt lat="48.29349" lon="-4.17904">
        <ele>14.23</ele>
        <time>2022-07-11T05:50:52.000Z</time>
      </trkpt>
      <trkpt lat="48.29345" lon="-4.17916">
        <ele>13.33</ele>
        <time>2022-07-11T05:51:01.392Z</time>
      </trkpt>
      <trkpt lat="48.29346" lon="-4.17928">
        <ele>15.43</ele>
        <time>2022-07-11T05:51:10.969Z</time>
      </trkpt>
      <trkpt lat="48.29341" lon="-4.17938">
        <ele>14.43</ele>
        <time>2022-07-11T05:51:20.371Z</time>
      </trkpt>
      <trkpt lat="48.29341" lon="-4.17954">
        <ele>14.37</ele>
        <time>2022-07-11T05:51:29.552Z</time>
      </trkpt>
      <trkpt lat="48.29329" lon="-4.17968">
        <ele>15.03</ele>
        <time>2022-07-11T05:51:39.000Z</time>
      </trkpt>
      <trkpt lat="48.29321" lon="-4.17979">
        <ele>15.03</ele>
        <time>2022-07-11T05:51:48.309Z</time>
      </trkpt>
      <trkpt lat="48.29316" lon="-4.17996">
        <ele>15.03</ele>
        <time>2022-07-11T05:51:57.671Z</time>
      </trkpt>
      <trkpt lat="48.29312" lon="-4.18011">
        <ele>15.53</ele>
        <time>2022-07-11T05:52:06.891Z</time>
      </trkpt>
      <trkpt lat="48.2931" lon="-4.18024">
        <ele>15.33</ele>
        <time>2022-07-11T05:52:16.509Z</time>
      </trkpt>
      <trkpt lat="48.29309" lon="-4.18033">
        <ele>15.33</ele>
        <time>2022-07-11T05:52:26.253Z</time>
      </trkpt>
      <trkpt lat="48.29304" lon="-4.18048">
        <ele>13.83</ele>
        <time>2022-07-11T05:52:36.372Z</time>
      </trkpt>
      <trkpt lat="48.29301" lon="-4.18064">
        <ele>15.43</ele>
        <time>2022-07-11T05:52:46.000Z</time>
      </trkpt>
      <trkpt lat="48.29298" lon="-4.18078">
        <ele>15.43</ele>
        <time>2022-07-11T05:52:55.291Z</time>
      </trkpt>
      <trkpt lat="48.29299" lon="-4.18086">
        <ele>17.3</ele>
        <time>2022-07-11T05:53:05.000Z</time>
      </trkpt>
      <trkpt lat="48.29298" lon="-4.18085">
        <ele>15.23</ele>
        <time>2022-07-11T05:53:22.000Z</time>
      </trkpt>
      <trkpt lat="48.29297" lon="-4.18084">
        <ele>17.33</ele>
        <time>2022-07-11T05:54:01.549Z</time>
      </trkpt>
      <trkpt lat="48.29293" lon="-4.18068">
        <ele>17.79</ele>
        <time>2022-07-11T05:54:11.492Z</time>
      </trkpt>
      <trkpt lat="48.29285" lon="-4.18057">
        <ele>17.83</ele>
        <time>2022-07-11T05:54:21.625Z</time>
      </trkpt>
      <trkpt lat="48.29276" lon="-4.18051">
        <ele>17.83</ele>
        <time>2022-07-11T05:54:31.278Z</time>
      </trkpt>
      <trkpt lat="48.29272" lon="-4.18056">
        <ele>15.38</ele>
        <time>2022-07-11T05:54:40.890Z</time>
      </trkpt>
      <trkpt lat="48.29264" lon="-4.18063">
        <ele>16.83</ele>
        <time>2022-07-11T05:54:50.340Z</time>
      </trkpt>
      <trkpt lat="48.29255" lon="-4.18067">
        <ele>13.33</ele>
        <time>2022-07-11T05:54:59.546Z</time>
      </trkpt>
      <trkpt lat="48.29247" lon="-4.18072">
        <ele>13.33</ele>
        <time>2022-07-11T05:55:08.712Z</time>
      </trkpt>
      <trkpt lat="48.29237" lon="-4.18082">
        <ele>17.83</ele>
        <time>2022-07-11T05:55:18.090Z</time>
      </trkpt>
      <trkpt lat="48.29227" lon="-4.18089">
        <ele>20.52</ele>
        <time>2022-07-11T05:55:28.549Z</time>
      </trkpt>
      <trkpt lat="48.29219" lon="-4.18098">
        <ele>17.84</ele>
        <time>2022-07-11T05:55:37.692Z</time>
      </trkpt>
      <trkpt lat="48.29207" lon="-4.181">
        <ele>20.23</ele>
        <time>2022-07-11T05:55:47.208Z</time>
      </trkpt>
      <trkpt lat="48.29195" lon="-4.181">
        <ele>20.23</ele>
        <time>2022-07-11T05:55:57.366Z</time>
      </trkpt>
      <trkpt lat="48.29185" lon="-4.18103">
        <ele>15.85</ele>
        <time>2022-07-11T05:56:07.410Z</time>
      </trkpt>
      <trkpt lat="48.29175" lon="-4.18108">
        <ele>22.84</ele>
        <time>2022-07-11T05:56:16.986Z</time>
      </trkpt>
      <trkpt lat="48.29167" lon="-4.18109">
        <ele>21.82</ele>
        <time>2022-07-11T05:56:26.214Z</time>
      </trkpt>
      <trkpt lat="48.29156" lon="-4.18107">
        <ele>24.68</ele>
        <time>2022-07-11T05:56:36.376Z</time>
      </trkpt>
      <trkpt lat="48.29149" lon="-4.18108">
        <ele>20.83</ele>
        <time>2022-07-11T05:56:45.411Z</time>
      </trkpt>
      <trkpt lat="48.29138" lon="-4.1811">
        <ele>19.83</ele>
        <time>2022-07-11T05:56:55.371Z</time>
      </trkpt>
      <trkpt lat="48.29127" lon="-4.18108">
        <ele>22.83</ele>
        <time>2022-07-11T05:57:05.309Z</time>
      </trkpt>
      <trkpt lat="48.2912" lon="-4.1811">
        <ele>21.08</ele>
        <time>2022-07-11T05:57:14.350Z</time>
      </trkpt>
      <trkpt lat="48.2911" lon="-4.18113">
        <ele>22.83</ele>
        <time>2022-07-11T05:57:23.508Z</time>
      </trkpt>
      <trkpt lat="48.291" lon="-4.18117">
        <ele>9.33</ele>
        <time>2022-07-11T05:57:32.650Z</time>
      </trkpt>
      <trkpt lat="48.29091" lon="-4.18119">
        <ele>4.83</ele>
        <time>2022-07-11T05:57:42.090Z</time>
      </trkpt>
      <trkpt lat="48.29083" lon="-4.18126">
        <ele>22.83</ele>
        <time>2022-07-11T05:57:51.301Z</time>
      </trkpt>
      <trkpt lat="48.29073" lon="-4.18132">
        <ele>22.83</ele>
        <time>2022-07-11T05:58:00.710Z</time>
      </trkpt>
      <trkpt lat="48.29065" lon="-4.18141">
        <ele>22.83</ele>
        <time>2022-07-11T05:58:10.413Z</time>
      </trkpt>
      <trkpt lat="48.29056" lon="-4.18144">
        <ele>22.83</ele>
        <time>2022-07-11T05:58:19.706Z</time>
      </trkpt>
      <trkpt lat="48.29045" lon="-4.18151">
        <ele>22.83</ele>
        <time>2022-07-11T05:58:29.571Z</time>
      </trkpt>
      <trkpt lat="48.29035" lon="-4.18158">
        <ele>22.83</ele>
        <time>2022-07-11T05:58:38.935Z</time>
      </trkpt>
      <trkpt lat="48.29027" lon="-4.18163">
        <ele>22.83</ele>
        <time>2022-07-11T05:58:48.449Z</time>
      </trkpt>
      <trkpt lat="48.29018" lon="-4.1817">
        <ele>22.83</ele>
        <time>2022-07-11T05:58:57.473Z</time>
      </trkpt>
      <trkpt lat="48.29006" lon="-4.18175">
        <ele>22.83</ele>
        <time>2022-07-11T05:59:07.390Z</time>
      </trkpt>
      <trkpt lat="48.28996" lon="-4.18178">
        <ele>26.77</ele>
        <time>2022-07-11T05:59:17.191Z</time>
      </trkpt>
      <trkpt lat="48.28988" lon="-4.18181">
        <ele>24.83</ele>
        <time>2022-07-11T05:59:26.589Z</time>
      </trkpt>
      <trkpt lat="48.28977" lon="-4.18186">
        <ele>25.81</ele>
        <time>2022-07-11T05:59:36.285Z</time>
      </trkpt>
      <trkpt lat="48.28967" lon="-4.18191">
        <ele>23.83</ele>
        <time>2022-07-11T05:59:46.172Z</time>
      </trkpt>
      <trkpt lat="48.28957" lon="-4.18197">
        <ele>23.83</ele>
        <time>2022-07-11T05:59:56.000Z</time>
      </trkpt>
      <trkpt lat="48.28948" lon="-4.182">
        <ele>23.83</ele>
        <time>2022-07-11T06:00:05.555Z</time>
      </trkpt>
      <trkpt lat="48.28938" lon="-4.18205">
        <ele>22.88</ele>
        <time>2022-07-11T06:00:15.569Z</time>
      </trkpt>
      <trkpt lat="48.28926" lon="-4.18212">
        <ele>22.83</ele>
        <time>2022-07-11T06:00:25.408Z</time>
      </trkpt>
      <trkpt lat="48.28915" lon="-4.18218">
        <ele>22.83</ele>
        <time>2022-07-11T06:00:34.448Z</time>
      </trkpt>
      <trkpt lat="48.28907" lon="-4.18224">
        <ele>22.83</ele>
        <time>2022-07-11T06:00:44.210Z</time>
      </trkpt>
      <trkpt lat="48.28894" lon="-4.18232">
        <ele>22.83</ele>
        <time>2022-07-11T06:00:54.572Z</time>
      </trkpt>
      <trkpt lat="48.28885" lon="-4.18238">
        <ele>21.83</ele>
        <time>2022-07-11T06:01:03.950Z</time>
      </trkpt>
      <trkpt lat="48.28879" lon="-4.18245">
        <ele>22.83</ele>
        <time>2022-07-11T06:01:13.088Z</time>
      </trkpt>
      <trkpt lat="48.28869" lon="-4.18252">
        <ele>21.89</ele>
        <time>2022-07-11T06:01:22.688Z</time>
      </trkpt>
      <trkpt lat="48.28861" lon="-4.18258">
        <ele>22.83</ele>
        <time>2022-07-11T06:01:31.992Z</time>
      </trkpt>
      <trkpt lat="48.28854" lon="-4.18261">
        <ele>23.83</ele>
        <time>2022-07-11T06:01:41.089Z</time>
      </trkpt>
      <trkpt lat="48.28847" lon="-4.18265">
        <ele>22.83</ele>
        <time>2022-07-11T06:01:50.910Z</time>
      </trkpt>
      <trkpt lat="48.28834" lon="-4.1827">
        <ele>22.83</ele>
        <time>2022-07-11T06:02:00.415Z</time>
      </trkpt>
      <trkpt lat="48.28824" lon="-4.18274">
        <ele>22.83</ele>
        <time>2022-07-11T06:02:10.649Z</time>
      </trkpt>
      <trkpt lat="48.28815" lon="-4.1828">
        <ele>22.83</ele>
        <time>2022-07-11T06:02:20.311Z</time>
      </trkpt>
      <trkpt lat="48.28805" lon="-4.18282">
        <ele>22.81</ele>
        <time>2022-07-11T06:02:30.295Z</time>
      </trkpt>
      <trkpt lat="48.28795" lon="-4.18288">
        <ele>23.83</ele>
        <time>2022-07-11T06:02:40.000Z</time>
      </trkpt>
      <trkpt lat="48.28786" lon="-4.18293">
        <ele>22.83</ele>
        <time>2022-07-11T06:02:49.302Z</time>
      </trkpt>
      <trkpt lat="48.28775" lon="-4.18297">
        <ele>23.82</ele>
        <time>2022-07-11T06:02:59.148Z</time>
      </trkpt>
      <trkpt lat="48.28765" lon="-4.18303">
        <ele>23.83</ele>
        <time>2022-07-11T06:03:08.227Z</time>
      </trkpt>
      <trkpt lat="48.28755" lon="-4.1831">
        <ele>21.83</ele>
        <time>2022-07-11T06:03:18.305Z</time>
      </trkpt>
      <trkpt lat="48.28746" lon="-4.18321">
        <ele>21.83</ele>
        <time>2022-07-11T06:03:27.586Z</time>
      </trkpt>
      <trkpt lat="48.28737" lon="-4.1833">
        <ele>22.83</ele>
        <time>2022-07-11T06:03:37.385Z</time>
      </trkpt>
      <trkpt lat="48.28733" lon="-4.18335">
        <ele>23.83</ele>
        <time>2022-07-11T06:03:47.395Z</time>
      </trkpt>
      <trkpt lat="48.28726" lon="-4.18344">
        <ele>23.83</ele>
        <time>2022-07-11T06:03:57.073Z</time>
      </trkpt>
      <trkpt lat="48.2872" lon="-4.18361">
        <ele>22.83</ele>
        <time>2022-07-11T06:04:07.496Z</time>
      </trkpt>
      <trkpt lat="48.28714" lon="-4.18372">
        <ele>23.83</ele>
        <time>2022-07-11T06:04:16.928Z</time>
      </trkpt>
      <trkpt lat="48.28705" lon="-4.18381">
        <ele>23.83</ele>
        <time>2022-07-11T06:04:26.368Z</time>
      </trkpt>
      <trkpt lat="48.28698" lon="-4.18389">
        <ele>23.83</ele>
        <time>2022-07-11T06:04:36.180Z</time>
      </trkpt>
      <trkpt lat="48.28692" lon="-4.18396">
        <ele>23.84</ele>
        <time>2022-07-11T06:04:45.250Z</time>
      </trkpt>
      <trkpt lat="48.28684" lon="-4.18408">
        <ele>24.83</ele>
        <time>2022-07-11T06:04:55.307Z</time>
      </trkpt>
      <trkpt lat="48.28677" lon="-4.18416">
        <ele>25.89</ele>
        <time>2022-07-11T06:05:04.649Z</time>
      </trkpt>
      <trkpt lat="48.28673" lon="-4.1843">
        <ele>27.58</ele>
        <time>2022-07-11T06:05:14.050Z</time>
      </trkpt>
      <trkpt lat="48.28666" lon="-4.18441">
        <ele>27.83</ele>
        <time>2022-07-11T06:05:23.571Z</time>
      </trkpt>
      <trkpt lat="48.28659" lon="-4.18449">
        <ele>27.83</ele>
        <time>2022-07-11T06:05:32.614Z</time>
      </trkpt>
      <trkpt lat="48.28651" lon="-4.18461">
        <ele>28.83</ele>
        <time>2022-07-11T06:05:41.913Z</time>
      </trkpt>
      <trkpt lat="48.28644" lon="-4.18467">
        <ele>29.58</ele>
        <time>2022-07-11T06:05:51.210Z</time>
      </trkpt>
      <trkpt lat="48.28639" lon="-4.18474">
        <ele>30.83</ele>
        <time>2022-07-11T06:06:00.531Z</time>
      </trkpt>
      <trkpt lat="48.2863" lon="-4.18483">
        <ele>31.83</ele>
        <time>2022-07-11T06:06:10.410Z</time>
      </trkpt>
      <trkpt lat="48.28622" lon="-4.18489">
        <ele>-29.17</ele>
        <time>2022-07-11T06:06:20.449Z</time>
      </trkpt>
      <trkpt lat="48.28616" lon="-4.18495">
        <ele>-29.17</ele>
        <time>2022-07-11T06:06:29.466Z</time>
      </trkpt>
      <trkpt lat="48.28609" lon="-4.18501">
        <ele>-29.17</ele>
        <time>2022-07-11T06:06:38.666Z</time>
      </trkpt>
      <trkpt lat="48.28604" lon="-4.1851">
        <ele>-29.17</ele>
        <time>2022-07-11T06:06:48.371Z</time>
      </trkpt>
      <trkpt lat="48.28599" lon="-4.18515">
        <ele>-29.17</ele>
        <time>2022-07-11T06:06:57.510Z</time>
      </trkpt>
      <trkpt lat="48.28593" lon="-4.18523">
        <ele>-29.17</ele>
        <time>2022-07-11T06:07:07.431Z</time>
      </trkpt>
      <trkpt lat="48.28588" lon="-4.18531">
        <ele>-29.17</ele>
        <time>2022-07-11T06:07:16.671Z</time>
      </trkpt>
      <trkpt lat="48.28582" lon="-4.18538">
        <ele>-29.17</ele>
        <time>2022-07-11T06:07:26.492Z</time>
      </trkpt>
      <trkpt lat="48.28577" lon="-4.18548">
        <ele>-29.17</ele>
        <time>2022-07-11T06:07:36.587Z</time>
      </trkpt>
      <trkpt lat="48.28572" lon="-4.18556">
        <ele>-29.17</ele>
        <time>2022-07-11T06:07:46.028Z</time>
      </trkpt>
      <trkpt lat="48.28568" lon="-4.18563">
        <ele>-29.17</ele>
        <time>2022-07-11T06:07:55.072Z</time>
      </trkpt>
      <trkpt lat="48.28563" lon="-4.1857">
        <ele>-29.17</ele>
        <time>2022-07-11T06:08:04.709Z</time>
      </trkpt>
      <trkpt lat="48.28559" lon="-4.18577">
        <ele>-29.17</ele>
        <time>2022-07-11T06:08:14.725Z</time>
      </trkpt>
      <trkpt lat="48.28552" lon="-4.18586">
        <ele>-29.17</ele>
        <time>2022-07-11T06:08:24.000Z</time>
      </trkpt>
      <trkpt lat="48.28549" lon="-4.18589">
        <ele>-29.17</ele>
        <time>2022-07-11T06:08:33.450Z</time>
      </trkpt>
      <trkpt lat="48.28542" lon="-4.18597">
        <ele>-29.17</ele>
        <time>2022-07-11T06:08:42.972Z</time>
      </trkpt>
      <trkpt lat="48.28535" lon="-4.18602">
        <ele>-29.17</ele>
        <time>2022-07-11T06:08:52.428Z</time>
      </trkpt>
      <trkpt lat="48.28527" lon="-4.18606">
        <ele>-29.17</ele>
        <time>2022-07-11T06:09:02.511Z</time>
      </trkpt>
      <trkpt lat="48.28519" lon="-4.18611">
        <ele>-29.17</ele>
        <time>2022-07-11T06:09:12.031Z</time>
      </trkpt>
      <trkpt lat="48.28513" lon="-4.18614">
        <ele>49.81</ele>
        <time>2022-07-11T06:09:21.468Z</time>
      </trkpt>
      <trkpt lat="48.28504" lon="-4.18618">
        <ele>49.83</ele>
        <time>2022-07-11T06:09:31.649Z</time>
      </trkpt>
      <trkpt lat="48.28498" lon="-4.18623">
        <ele>50.81</ele>
        <time>2022-07-11T06:09:41.000Z</time>
      </trkpt>
      <trkpt lat="48.28491" lon="-4.18625">
        <ele>50.08</ele>
        <time>2022-07-11T06:09:50.326Z</time>
      </trkpt>
      <trkpt lat="48.28484" lon="-4.18624">
        <ele>48.83</ele>
        <time>2022-07-11T06:09:59.551Z</time>
      </trkpt>
      <trkpt lat="48.2848" lon="-4.18637">
        <ele>50.81</ele>
        <time>2022-07-11T06:10:08.990Z</time>
      </trkpt>
      <trkpt lat="48.28472" lon="-4.18642">
        <ele>51.83</ele>
        <time>2022-07-11T06:10:18.365Z</time>
      </trkpt>
      <trkpt lat="48.28465" lon="-4.18646">
        <ele>53.81</ele>
        <time>2022-07-11T06:10:28.000Z</time>
      </trkpt>
      <trkpt lat="48.28459" lon="-4.18651">
        <ele>55.83</ele>
        <time>2022-07-11T06:10:38.325Z</time>
      </trkpt>
      <trkpt lat="48.28449" lon="-4.18655">
        <ele>57.76</ele>
        <time>2022-07-11T06:10:48.000Z</time>
      </trkpt>
      <trkpt lat="48.28443" lon="-4.18659">
        <ele>57.83</ele>
        <time>2022-07-11T06:10:57.408Z</time>
      </trkpt>
      <trkpt lat="48.28436" lon="-4.18661">
        <ele>58.83</ele>
        <time>2022-07-11T06:11:06.411Z</time>
      </trkpt>
      <trkpt lat="48.28428" lon="-4.18665">
        <ele>58.83</ele>
        <time>2022-07-11T06:11:15.542Z</time>
      </trkpt>
      <trkpt lat="48.2842" lon="-4.18668">
        <ele>58.83</ele>
        <time>2022-07-11T06:11:24.931Z</time>
      </trkpt>
      <trkpt lat="48.2841" lon="-4.18671">
        <ele>59.83</ele>
        <time>2022-07-11T06:11:34.532Z</time>
      </trkpt>
      <trkpt lat="48.28398" lon="-4.18675">
        <ele>59.83</ele>
        <time>2022-07-11T06:11:43.549Z</time>
      </trkpt>
      <trkpt lat="48.28391" lon="-4.18677">
        <ele>60.83</ele>
        <time>2022-07-11T06:11:53.530Z</time>
      </trkpt>
      <trkpt lat="48.28378" lon="-4.18679">
        <ele>60.83</ele>
        <time>2022-07-11T06:12:03.000Z</time>
      </trkpt>
      <trkpt lat="48.28368" lon="-4.18681">
        <ele>60.83</ele>
        <time>2022-07-11T06:12:12.488Z</time>
      </trkpt>
      <trkpt lat="48.28359" lon="-4.18681">
        <ele>59.83</ele>
        <time>2022-07-11T06:12:21.911Z</time>
      </trkpt>
      <trkpt lat="48.28349" lon="-4.1868">
        <ele>59.83</ele>
        <time>2022-07-11T06:12:31.407Z</time>
      </trkpt>
      <trkpt lat="48.28339" lon="-4.18682">
        <ele>59.83</ele>
        <time>2022-07-11T06:12:40.731Z</time>
      </trkpt>
      <trkpt lat="48.2833" lon="-4.18685">
        <ele>59.83</ele>
        <time>2022-07-11T06:12:50.000Z</time>
      </trkpt>
      <trkpt lat="48.28321" lon="-4.18686">
        <ele>59.83</ele>
        <time>2022-07-11T06:12:59.589Z</time>
      </trkpt>
      <trkpt lat="48.28313" lon="-4.18688">
        <ele>59.83</ele>
        <time>2022-07-11T06:13:09.328Z</time>
      </trkpt>
      <trkpt lat="48.28303" lon="-4.18691">
        <ele>60.82</ele>
        <time>2022-07-11T06:13:19.000Z</time>
      </trkpt>
      <trkpt lat="48.28294" lon="-4.1869">
        <ele>59.83</ele>
        <time>2022-07-11T06:13:28.190Z</time>
      </trkpt>
      <trkpt lat="48.28285" lon="-4.18694">
        <ele>59.83</ele>
        <time>2022-07-11T06:13:37.724Z</time>
      </trkpt>
      <trkpt lat="48.28276" lon="-4.18695">
        <ele>60.83</ele>
        <time>2022-07-11T06:13:47.429Z</time>
      </trkpt>
      <trkpt lat="48.28267" lon="-4.18697">
        <ele>60.83</ele>
        <time>2022-07-11T06:13:57.143Z</time>
      </trkpt>
      <trkpt lat="48.28256" lon="-4.18697">
        <ele>60.83</ele>
        <time>2022-07-11T06:14:07.000Z</time>
      </trkpt>
      <trkpt lat="48.28248" lon="-4.18701">
        <ele>60.83</ele>
        <time>2022-07-11T06:14:16.011Z</time>
      </trkpt>
      <trkpt lat="48.28239" lon="-4.18704">
        <ele>61.83</ele>
        <time>2022-07-11T06:14:25.671Z</time>
      </trkpt>
      <trkpt lat="48.28231" lon="-4.18706">
        <ele>62.58</ele>
        <time>2022-07-11T06:14:35.189Z</time>
      </trkpt>
      <trkpt lat="48.28225" lon="-4.18709">
        <ele>62.83</ele>
        <time>2022-07-11T06:14:44.787Z</time>
      </trkpt>
      <trkpt lat="48.28218" lon="-4.18712">
        <ele>62.83</ele>
        <time>2022-07-11T06:14:54.568Z</time>
      </trkpt>
      <trkpt lat="48.28213" lon="-4.18716">
        <ele>62.83</ele>
        <time>2022-07-11T06:15:04.433Z</time>
      </trkpt>
      <trkpt lat="48.28204" lon="-4.18723">
        <ele>63.83</ele>
        <time>2022-07-11T06:15:13.709Z</time>
      </trkpt>
      <trkpt lat="48.28196" lon="-4.18728">
        <ele>63.83</ele>
        <time>2022-07-11T06:15:23.131Z</time>
      </trkpt>
      <trkpt lat="48.28188" lon="-4.18732">
        <ele>64.83</ele>
        <time>2022-07-11T06:15:33.433Z</time>
      </trkpt>
      <trkpt lat="48.28184" lon="-4.18734">
        <ele>64.83</ele>
        <time>2022-07-11T06:15:42.469Z</time>
      </trkpt>
      <trkpt lat="48.28175" lon="-4.1874">
        <ele>65.83</ele>
        <time>2022-07-11T06:15:52.072Z</time>
      </trkpt>
      <trkpt lat="48.28168" lon="-4.18745">
        <ele>66.83</ele>
        <time>2022-07-11T06:16:01.154Z</time>
      </trkpt>
      <trkpt lat="48.28161" lon="-4.18749">
        <ele>66.84</ele>
        <time>2022-07-11T06:16:10.252Z</time>
      </trkpt>
      <trkpt lat="48.28154" lon="-4.18754">
        <ele>67.83</ele>
        <time>2022-07-11T06:16:19.351Z</time>
      </trkpt>
      <trkpt lat="48.28145" lon="-4.18759">
        <ele>68.81</ele>
        <time>2022-07-11T06:16:29.588Z</time>
      </trkpt>
      <trkpt lat="48.28138" lon="-4.18764">
        <ele>68.83</ele>
        <time>2022-07-11T06:16:38.693Z</time>
      </trkpt>
      <trkpt lat="48.28132" lon="-4.18768">
        <ele>69.83</ele>
        <time>2022-07-11T06:16:48.588Z</time>
      </trkpt>
      <trkpt lat="48.28124" lon="-4.18772">
        <ele>70.83</ele>
        <time>2022-07-11T06:16:57.704Z</time>
      </trkpt>
      <trkpt lat="48.28117" lon="-4.18777">
        <ele>70.83</ele>
        <time>2022-07-11T06:17:07.673Z</time>
      </trkpt>
      <trkpt lat="48.2811" lon="-4.1878">
        <ele>70.83</ele>
        <time>2022-07-11T06:17:17.251Z</time>
      </trkpt>
      <trkpt lat="48.28104" lon="-4.18784">
        <ele>71.83</ele>
        <time>2022-07-11T06:17:26.692Z</time>
      </trkpt>
      <trkpt lat="48.28098" lon="-4.18788">
        <ele>72.83</ele>
        <time>2022-07-11T06:17:36.171Z</time>
      </trkpt>
      <trkpt lat="48.28091" lon="-4.18792">
        <ele>73.83</ele>
        <time>2022-07-11T06:17:45.411Z</time>
      </trkpt>
      <trkpt lat="48.28086" lon="-4.18795">
        <ele>73.87</ele>
        <time>2022-07-11T06:17:54.647Z</time>
      </trkpt>
      <trkpt lat="48.28079" lon="-4.18798">
        <ele>73.81</ele>
        <time>2022-07-11T06:18:04.630Z</time>
      </trkpt>
      <trkpt lat="48.28073" lon="-4.18803">
        <ele>74.83</ele>
        <time>2022-07-11T06:18:14.690Z</time>
      </trkpt>
      <trkpt lat="48.28066" lon="-4.18808">
        <ele>75.83</ele>
        <time>2022-07-11T06:18:23.970Z</time>
      </trkpt>
      <trkpt lat="48.28058" lon="-4.18813">
        <ele>76.83</ele>
        <time>2022-07-11T06:18:33.491Z</time>
      </trkpt>
      <trkpt lat="48.28051" lon="-4.18819">
        <ele>78.82</ele>
        <time>2022-07-11T06:18:43.609Z</time>
      </trkpt>
      <trkpt lat="48.28044" lon="-4.18823">
        <ele>79.76</ele>
        <time>2022-07-11T06:18:53.715Z</time>
      </trkpt>
      <trkpt lat="48.28038" lon="-4.18825">
        <ele>80.82</ele>
        <time>2022-07-11T06:19:03.670Z</time>
      </trkpt>
      <trkpt lat="48.28032" lon="-4.18831">
        <ele>81.83</ele>
        <time>2022-07-11T06:19:13.675Z</time>
      </trkpt>
      <trkpt lat="48.28023" lon="-4.18837">
        <ele>83.57</ele>
        <time>2022-07-11T06:19:23.000Z</time>
      </trkpt>
      <trkpt lat="48.28017" lon="-4.18843">
        <ele>84.82</ele>
        <time>2022-07-11T06:19:32.593Z</time>
      </trkpt>
      <trkpt lat="48.28009" lon="-4.18848">
        <ele>85.76</ele>
        <time>2022-07-11T06:19:42.612Z</time>
      </trkpt>
      <trkpt lat="48.28003" lon="-4.18853">
        <ele>86.82</ele>
        <time>2022-07-11T06:19:52.698Z</time>
      </trkpt>
      <trkpt lat="48.28001" lon="-4.18861">
        <ele>86.82</ele>
        <time>2022-07-11T06:20:02.490Z</time>
      </trkpt>
      <trkpt lat="48.28002" lon="-4.18868">
        <ele>86.89</ele>
        <time>2022-07-11T06:20:11.670Z</time>
      </trkpt>
      <trkpt lat="48.28004" lon="-4.18873">
        <ele>89.81</ele>
        <time>2022-07-11T06:20:21.000Z</time>
      </trkpt>
      <trkpt lat="48.28005" lon="-4.18877">
        <ele>90.82</ele>
        <time>2022-07-11T06:20:31.000Z</time>
      </trkpt>
      <trkpt lat="48.28003" lon="-4.18878">
        <ele>89.82</ele>
        <time>2022-07-11T06:20:41.000Z</time>
      </trkpt>
      <trkpt lat="48.28002" lon="-4.18878">
        <ele>89.82</ele>
        <time>2022-07-11T06:20:51.000Z</time>
      </trkpt>
      <trkpt lat="48.28001" lon="-4.18881">
        <ele>95.01</ele>
        <time>2022-07-11T06:21:14.000Z</time>
      </trkpt>
      <trkpt lat="48.27999" lon="-4.18888">
        <ele>93.84</ele>
        <time>2022-07-11T06:21:24.672Z</time>
      </trkpt>
      <trkpt lat="48.28" lon="-4.18898">
        <ele>93.82</ele>
        <time>2022-07-11T06:21:34.709Z</time>
      </trkpt>
      <trkpt lat="48.28" lon="-4.18911">
        <ele>92.87</ele>
        <time>2022-07-11T06:21:44.192Z</time>
      </trkpt>
      <trkpt lat="48.27999" lon="-4.18919">
        <ele>92.82</ele>
        <time>2022-07-11T06:21:53.569Z</time>
      </trkpt>
      <trkpt lat="48.27998" lon="-4.18932">
        <ele>90.84</ele>
        <time>2022-07-11T06:22:03.547Z</time>
      </trkpt>
      <trkpt lat="48.27997" lon="-4.18947">
        <ele>90.82</ele>
        <time>2022-07-11T06:22:12.587Z</time>
      </trkpt>
      <trkpt lat="48.27994" lon="-4.18963">
        <ele>89.84</ele>
        <time>2022-07-11T06:22:22.529Z</time>
      </trkpt>
      <trkpt lat="48.27995" lon="-4.18975">
        <ele>90.82</ele>
        <time>2022-07-11T06:22:31.546Z</time>
      </trkpt>
      <trkpt lat="48.27996" lon="-4.18986">
        <ele>90.81</ele>
        <time>2022-07-11T06:22:40.710Z</time>
      </trkpt>
      <trkpt lat="48.27992" lon="-4.19004">
        <ele>89.82</ele>
        <time>2022-07-11T06:22:50.088Z</time>
      </trkpt>
      <trkpt lat="48.27991" lon="-4.19023">
        <ele>90.07</ele>
        <time>2022-07-11T06:22:59.386Z</time>
      </trkpt>
      <trkpt lat="48.27987" lon="-4.19038">
        <ele>89.89</ele>
        <time>2022-07-11T06:23:08.574Z</time>
      </trkpt>
      <trkpt lat="48.27984" lon="-4.19054">
        <ele>89.82</ele>
        <time>2022-07-11T06:23:17.773Z</time>
      </trkpt>
      <trkpt lat="48.27982" lon="-4.19068">
        <ele>90.59</ele>
        <time>2022-07-11T06:23:27.668Z</time>
      </trkpt>
      <trkpt lat="48.27979" lon="-4.1908">
        <ele>89.82</ele>
        <time>2022-07-11T06:23:37.152Z</time>
      </trkpt>
      <trkpt lat="48.27975" lon="-4.19095">
        <ele>89.82</ele>
        <time>2022-07-11T06:23:47.129Z</time>
      </trkpt>
      <trkpt lat="48.27971" lon="-4.19109">
        <ele>89.82</ele>
        <time>2022-07-11T06:23:56.187Z</time>
      </trkpt>
      <trkpt lat="48.27967" lon="-4.19126">
        <ele>89.82</ele>
        <time>2022-07-11T06:24:06.410Z</time>
      </trkpt>
      <trkpt lat="48.27962" lon="-4.19142">
        <ele>89.83</ele>
        <time>2022-07-11T06:24:16.412Z</time>
      </trkpt>
      <trkpt lat="48.27956" lon="-4.19156">
        <ele>89.76</ele>
        <time>2022-07-11T06:24:26.408Z</time>
      </trkpt>
      <trkpt lat="48.27953" lon="-4.19167">
        <ele>88.89</ele>
        <time>2022-07-11T06:24:35.652Z</time>
      </trkpt>
      <trkpt lat="48.27949" lon="-4.19182">
        <ele>89.82</ele>
        <time>2022-07-11T06:24:45.507Z</time>
      </trkpt>
      <trkpt lat="48.27945" lon="-4.19198">
        <ele>90.82</ele>
        <time>2022-07-11T06:24:55.000Z</time>
      </trkpt>
      <trkpt lat="48.27941" lon="-4.1921">
        <ele>89.88</ele>
        <time>2022-07-11T06:25:05.626Z</time>
      </trkpt>
      <trkpt lat="48.27936" lon="-4.19223">
        <ele>89.82</ele>
        <time>2022-07-11T06:25:15.168Z</time>
      </trkpt>
      <trkpt lat="48.27933" lon="-4.19237">
        <ele>89.83</ele>
        <time>2022-07-11T06:25:24.226Z</time>
      </trkpt>
      <trkpt lat="48.27932" lon="-4.1925">
        <ele>90.01</ele>
        <time>2022-07-11T06:25:33.508Z</time>
      </trkpt>
      <trkpt lat="48.27928" lon="-4.19266">
        <ele>89.82</ele>
        <time>2022-07-11T06:25:43.666Z</time>
      </trkpt>
      <trkpt lat="48.27923" lon="-4.1928">
        <ele>89.82</ele>
        <time>2022-07-11T06:25:52.812Z</time>
      </trkpt>
      <trkpt lat="48.27916" lon="-4.19292">
        <ele>89.82</ele>
        <time>2022-07-11T06:26:02.000Z</time>
      </trkpt>
      <trkpt lat="48.27913" lon="-4.19301">
        <ele>88.82</ele>
        <time>2022-07-11T06:26:11.472Z</time>
      </trkpt>
      <trkpt lat="48.27908" lon="-4.19315">
        <ele>88.82</ele>
        <time>2022-07-11T06:26:21.184Z</time>
      </trkpt>
      <trkpt lat="48.27902" lon="-4.19329">
        <ele>87.82</ele>
        <time>2022-07-11T06:26:31.000Z</time>
      </trkpt>
      <trkpt lat="48.27894" lon="-4.19338">
        <ele>87.82</ele>
        <time>2022-07-11T06:26:40.126Z</time>
      </trkpt>
      <trkpt lat="48.27888" lon="-4.1935">
        <ele>86.82</ele>
        <time>2022-07-11T06:26:49.153Z</time>
      </trkpt>
      <trkpt lat="48.27881" lon="-4.19361">
        <ele>86.82</ele>
        <time>2022-07-11T06:26:58.369Z</time>
      </trkpt>
      <trkpt lat="48.27874" lon="-4.19374">
        <ele>86.82</ele>
        <time>2022-07-11T06:27:07.589Z</time>
      </trkpt>
      <trkpt lat="48.27865" lon="-4.19385">
        <ele>85.82</ele>
        <time>2022-07-11T06:27:17.000Z</time>
      </trkpt>
      <trkpt lat="48.2786" lon="-4.19397">
        <ele>85.82</ele>
        <time>2022-07-11T06:27:26.348Z</time>
      </trkpt>
      <trkpt lat="48.27854" lon="-4.19408">
        <ele>85.82</ele>
        <time>2022-07-11T06:27:35.652Z</time>
      </trkpt>
      <trkpt lat="48.27845" lon="-4.1942">
        <ele>84.87</ele>
        <time>2022-07-11T06:27:45.349Z</time>
      </trkpt>
      <trkpt lat="48.27837" lon="-4.19431">
        <ele>85.82</ele>
        <time>2022-07-11T06:27:54.426Z</time>
      </trkpt>
      <trkpt lat="48.27832" lon="-4.1944">
        <ele>84.88</ele>
        <time>2022-07-11T06:28:03.626Z</time>
      </trkpt>
      <trkpt lat="48.27826" lon="-4.19448">
        <ele>85.82</ele>
        <time>2022-07-11T06:28:13.312Z</time>
      </trkpt>
      <trkpt lat="48.27819" lon="-4.19461">
        <ele>84.82</ele>
        <time>2022-07-11T06:28:23.452Z</time>
      </trkpt>
      <trkpt lat="48.2781" lon="-4.19474">
        <ele>84.77</ele>
        <time>2022-07-11T06:28:32.588Z</time>
      </trkpt>
      <trkpt lat="48.27803" lon="-4.19485">
        <ele>82.84</ele>
        <time>2022-07-11T06:28:42.016Z</time>
      </trkpt>
      <trkpt lat="48.27796" lon="-4.19495">
        <ele>82.07</ele>
        <time>2022-07-11T06:28:51.293Z</time>
      </trkpt>
      <trkpt lat="48.2779" lon="-4.19507">
        <ele>81.57</ele>
        <time>2022-07-11T06:29:00.530Z</time>
      </trkpt>
      <trkpt lat="48.27785" lon="-4.19522">
        <ele>81.82</ele>
        <time>2022-07-11T06:29:10.227Z</time>
      </trkpt>
      <trkpt lat="48.27778" lon="-4.19533">
        <ele>80.82</ele>
        <time>2022-07-11T06:29:19.289Z</time>
      </trkpt>
      <trkpt lat="48.27772" lon="-4.19541">
        <ele>80.07</ele>
        <time>2022-07-11T06:29:28.427Z</time>
      </trkpt>
      <trkpt lat="48.27766" lon="-4.19557">
        <ele>79.82</ele>
        <time>2022-07-11T06:29:38.450Z</time>
      </trkpt>
      <trkpt lat="48.27763" lon="-4.19568">
        <ele>79.82</ele>
        <time>2022-07-11T06:29:47.691Z</time>
      </trkpt>
      <trkpt lat="48.27758" lon="-4.19583">
        <ele>78.82</ele>
        <time>2022-07-11T06:29:57.000Z</time>
      </trkpt>
      <trkpt lat="48.2775" lon="-4.19599">
        <ele>78.88</ele>
        <time>2022-07-11T06:30:07.291Z</time>
      </trkpt>
      <trkpt lat="48.27744" lon="-4.19612">
        <ele>78.82</ele>
        <time>2022-07-11T06:30:16.410Z</time>
      </trkpt>
      <trkpt lat="48.27738" lon="-4.19625">
        <ele>78.82</ele>
        <time>2022-07-11T06:30:25.449Z</time>
      </trkpt>
      <trkpt lat="48.27733" lon="-4.19638">
        <ele>77.82</ele>
        <time>2022-07-11T06:30:34.588Z</time>
      </trkpt>
      <trkpt lat="48.27728" lon="-4.1965">
        <ele>75.88</ele>
        <time>2022-07-11T06:30:43.732Z</time>
      </trkpt>
      <trkpt lat="48.27724" lon="-4.19657">
        <ele>75.82</ele>
        <time>2022-07-11T06:30:53.488Z</time>
      </trkpt>
      <trkpt lat="48.27719" lon="-4.19667">
        <ele>74.82</ele>
        <time>2022-07-11T06:31:02.686Z</time>
      </trkpt>
      <trkpt lat="48.27713" lon="-4.19684">
        <ele>73.82</ele>
        <time>2022-07-11T06:31:11.766Z</time>
      </trkpt>
      <trkpt lat="48.2771" lon="-4.19696">
        <ele>73.05</ele>
        <time>2022-07-11T06:31:21.391Z</time>
      </trkpt>
      <trkpt lat="48.27705" lon="-4.1971">
        <ele>73.82</ele>
        <time>2022-07-11T06:31:31.000Z</time>
      </trkpt>
      <trkpt lat="48.27698" lon="-4.19723">
        <ele>73.76</ele>
        <time>2022-07-11T06:31:40.606Z</time>
      </trkpt>
      <trkpt lat="48.2769" lon="-4.19735">
        <ele>71.07</ele>
        <time>2022-07-11T06:31:50.366Z</time>
      </trkpt>
      <trkpt lat="48.27688" lon="-4.1975">
        <ele>68.82</ele>
        <time>2022-07-11T06:31:59.488Z</time>
      </trkpt>
      <trkpt lat="48.27693" lon="-4.19746">
        <ele>65.88</ele>
        <time>2022-07-11T06:32:09.310Z</time>
      </trkpt>
      <trkpt lat="48.277" lon="-4.1974">
        <ele>64.82</ele>
        <time>2022-07-11T06:32:18.592Z</time>
      </trkpt>
      <trkpt lat="48.2771" lon="-4.19743">
        <ele>64.07</ele>
        <time>2022-07-11T06:32:27.609Z</time>
      </trkpt>
      <trkpt lat="48.27718" lon="-4.19744">
        <ele>63.82</ele>
        <time>2022-07-11T06:32:37.230Z</time>
      </trkpt>
      <trkpt lat="48.27728" lon="-4.19742">
        <ele>62.82</ele>
        <time>2022-07-11T06:32:46.627Z</time>
      </trkpt>
      <trkpt lat="48.27739" lon="-4.19741">
        <ele>63.82</ele>
        <time>2022-07-11T06:32:56.371Z</time>
      </trkpt>
      <trkpt lat="48.2775" lon="-4.19741">
        <ele>60.82</ele>
        <time>2022-07-11T06:33:05.514Z</time>
      </trkpt>
      <trkpt lat="48.2776" lon="-4.19746">
        <ele>52.83</ele>
        <time>2022-07-11T06:33:15.248Z</time>
      </trkpt>
      <trkpt lat="48.27771" lon="-4.19741">
        <ele>54.76</ele>
        <time>2022-07-11T06:33:25.227Z</time>
      </trkpt>
      <trkpt lat="48.27782" lon="-4.19738">
        <ele>54.82</ele>
        <time>2022-07-11T06:33:35.390Z</time>
      </trkpt>
      <trkpt lat="48.27792" lon="-4.1974">
        <ele>54.82</ele>
        <time>2022-07-11T06:33:44.891Z</time>
      </trkpt>
      <trkpt lat="48.27802" lon="-4.1974">
        <ele>54.82</ele>
        <time>2022-07-11T06:33:54.453Z</time>
      </trkpt>
      <trkpt lat="48.27813" lon="-4.19742">
        <ele>54.82</ele>
        <time>2022-07-11T06:34:04.346Z</time>
      </trkpt>
      <trkpt lat="48.27823" lon="-4.19746">
        <ele>53.83</ele>
        <time>2022-07-11T06:34:13.474Z</time>
      </trkpt>
      <trkpt lat="48.27832" lon="-4.1975">
        <ele>53.82</ele>
        <time>2022-07-11T06:34:23.405Z</time>
      </trkpt>
      <trkpt lat="48.27843" lon="-4.19752">
        <ele>53.82</ele>
        <time>2022-07-11T06:34:32.606Z</time>
      </trkpt>
      <trkpt lat="48.27852" lon="-4.19755">
        <ele>53.82</ele>
        <time>2022-07-11T06:34:42.148Z</time>
      </trkpt>
      <trkpt lat="48.27858" lon="-4.19758">
        <ele>53.82</ele>
        <time>2022-07-11T06:34:51.612Z</time>
      </trkpt>
      <trkpt lat="48.27866" lon="-4.19764">
        <ele>51.83</ele>
        <time>2022-07-11T06:35:01.288Z</time>
      </trkpt>
      <trkpt lat="48.27872" lon="-4.19769">
        <ele>50.82</ele>
        <time>2022-07-11T06:35:11.306Z</time>
      </trkpt>
      <trkpt lat="48.2788" lon="-4.19774">
        <ele>49.82</ele>
        <time>2022-07-11T06:35:20.371Z</time>
      </trkpt>
      <trkpt lat="48.27892" lon="-4.19783">
        <ele>48.82</ele>
        <time>2022-07-11T06:35:30.000Z</time>
      </trkpt>
      <trkpt lat="48.279" lon="-4.19793">
        <ele>48.82</ele>
        <time>2022-07-11T06:35:39.246Z</time>
      </trkpt>
      <trkpt lat="48.27911" lon="-4.198">
        <ele>49.82</ele>
        <time>2022-07-11T06:35:49.000Z</time>
      </trkpt>
      <trkpt lat="48.27919" lon="-4.19805">
        <ele>48.82</ele>
        <time>2022-07-11T06:35:58.370Z</time>
      </trkpt>
      <trkpt lat="48.27929" lon="-4.19814">
        <ele>48.82</ele>
        <time>2022-07-11T06:36:07.487Z</time>
      </trkpt>
      <trkpt lat="48.27938" lon="-4.19823">
        <ele>47.82</ele>
        <time>2022-07-11T06:36:16.528Z</time>
      </trkpt>
      <trkpt lat="48.27948" lon="-4.19832">
        <ele>47.82</ele>
        <time>2022-07-11T06:36:25.567Z</time>
      </trkpt>
      <trkpt lat="48.27956" lon="-4.19838">
        <ele>47.82</ele>
        <time>2022-07-11T06:36:34.589Z</time>
      </trkpt>
      <trkpt lat="48.27965" lon="-4.19845">
        <ele>48.82</ele>
        <time>2022-07-11T06:36:44.347Z</time>
      </trkpt>
      <trkpt lat="48.27973" lon="-4.19853">
        <ele>49.8</ele>
        <time>2022-07-11T06:36:53.351Z</time>
      </trkpt>
      <trkpt lat="48.27982" lon="-4.19862">
        <ele>49.82</ele>
        <time>2022-07-11T06:37:03.284Z</time>
      </trkpt>
      <trkpt lat="48.2799" lon="-4.19873">
        <ele>50.75</ele>
        <time>2022-07-11T06:37:13.428Z</time>
      </trkpt>
      <trkpt lat="48.27998" lon="-4.19881">
        <ele>49.82</ele>
        <time>2022-07-11T06:37:22.454Z</time>
      </trkpt>
      <trkpt lat="48.28006" lon="-4.19891">
        <ele>48.82</ele>
        <time>2022-07-11T06:37:32.000Z</time>
      </trkpt>
      <trkpt lat="48.28015" lon="-4.19899">
        <ele>48.81</ele>
        <time>2022-07-11T06:37:41.490Z</time>
      </trkpt>
      <trkpt lat="48.28025" lon="-4.1991">
        <ele>48.82</ele>
        <time>2022-07-11T06:37:51.395Z</time>
      </trkpt>
      <trkpt lat="48.28034" lon="-4.19917">
        <ele>48.82</ele>
        <time>2022-07-11T06:38:00.512Z</time>
      </trkpt>
      <trkpt lat="48.28042" lon="-4.19928">
        <ele>48.82</ele>
        <time>2022-07-11T06:38:10.586Z</time>
      </trkpt>
      <trkpt lat="48.28052" lon="-4.19938">
        <ele>49.82</ele>
        <time>2022-07-11T06:38:19.730Z</time>
      </trkpt>
      <trkpt lat="48.28058" lon="-4.19953">
        <ele>50.82</ele>
        <time>2022-07-11T06:38:29.245Z</time>
      </trkpt>
      <trkpt lat="48.28065" lon="-4.19967">
        <ele>49.82</ele>
        <time>2022-07-11T06:38:38.688Z</time>
      </trkpt>
      <trkpt lat="48.28071" lon="-4.19979">
        <ele>49.82</ele>
        <time>2022-07-11T06:38:48.612Z</time>
      </trkpt>
      <trkpt lat="48.28075" lon="-4.19992">
        <ele>49.82</ele>
        <time>2022-07-11T06:38:57.629Z</time>
      </trkpt>
      <trkpt lat="48.28078" lon="-4.20004">
        <ele>48.82</ele>
        <time>2022-07-11T06:39:07.172Z</time>
      </trkpt>
      <trkpt lat="48.28083" lon="-4.20019">
        <ele>47.82</ele>
        <time>2022-07-11T06:39:16.647Z</time>
      </trkpt>
      <trkpt lat="48.28087" lon="-4.20032">
        <ele>45.82</ele>
        <time>2022-07-11T06:39:26.171Z</time>
      </trkpt>
      <trkpt lat="48.28094" lon="-4.20046">
        <ele>44.82</ele>
        <time>2022-07-11T06:39:35.694Z</time>
      </trkpt>
      <trkpt lat="48.28101" lon="-4.2006">
        <ele>45.82</ele>
        <time>2022-07-11T06:39:45.230Z</time>
      </trkpt>
      <trkpt lat="48.28107" lon="-4.20074">
        <ele>43.88</ele>
        <time>2022-07-11T06:39:55.000Z</time>
      </trkpt>
      <trkpt lat="48.2811" lon="-4.20087">
        <ele>42.82</ele>
        <time>2022-07-11T06:40:04.548Z</time>
      </trkpt>
      <trkpt lat="48.28115" lon="-4.20101">
        <ele>40.83</ele>
        <time>2022-07-11T06:40:14.108Z</time>
      </trkpt>
      <trkpt lat="48.28122" lon="-4.20116">
        <ele>37.88</ele>
        <time>2022-07-11T06:40:23.708Z</time>
      </trkpt>
      <trkpt lat="48.28129" lon="-4.20129">
        <ele>38.82</ele>
        <time>2022-07-11T06:40:33.212Z</time>
      </trkpt>
      <trkpt lat="48.28135" lon="-4.20142">
        <ele>38.82</ele>
        <time>2022-07-11T06:40:43.512Z</time>
      </trkpt>
      <trkpt lat="48.28142" lon="-4.20154">
        <ele>37.82</ele>
        <time>2022-07-11T06:40:53.433Z</time>
      </trkpt>
      <trkpt lat="48.28148" lon="-4.20167">
        <ele>36.82</ele>
        <time>2022-07-11T06:41:03.009Z</time>
      </trkpt>
      <trkpt lat="48.28153" lon="-4.20182">
        <ele>35.81</ele>
        <time>2022-07-11T06:41:12.352Z</time>
      </trkpt>
      <trkpt lat="48.28159" lon="-4.20193">
        <ele>34.88</ele>
        <time>2022-07-11T06:41:21.490Z</time>
      </trkpt>
      <trkpt lat="48.28163" lon="-4.20206">
        <ele>35.58</ele>
        <time>2022-07-11T06:41:30.588Z</time>
      </trkpt>
      <trkpt lat="48.28161" lon="-4.2022">
        <ele>35.81</ele>
        <time>2022-07-11T06:41:39.905Z</time>
      </trkpt>
      <trkpt lat="48.28156" lon="-4.20233">
        <ele>36.81</ele>
        <time>2022-07-11T06:41:49.451Z</time>
      </trkpt>
      <trkpt lat="48.28156" lon="-4.20236">
        <ele>37.81</ele>
        <time>2022-07-11T06:41:59.000Z</time>
      </trkpt>
      <trkpt lat="48.28157" lon="-4.20234">
        <ele>37.81</ele>
        <time>2022-07-11T06:42:13.000Z</time>
      </trkpt>
      <trkpt lat="48.28156" lon="-4.20237">
        <ele>37.82</ele>
        <time>2022-07-11T06:43:07.129Z</time>
      </trkpt>
      <trkpt lat="48.28151" lon="-4.2025">
        <ele>37.81</ele>
        <time>2022-07-11T06:43:16.612Z</time>
      </trkpt>
      <trkpt lat="48.28146" lon="-4.2026">
        <ele>38.81</ele>
        <time>2022-07-11T06:43:26.304Z</time>
      </trkpt>
      <trkpt lat="48.28143" lon="-4.20269">
        <ele>38.81</ele>
        <time>2022-07-11T06:43:35.687Z</time>
      </trkpt>
      <trkpt lat="48.2814" lon="-4.20278">
        <ele>39.81</ele>
        <time>2022-07-11T06:43:45.105Z</time>
      </trkpt>
      <trkpt lat="48.28135" lon="-4.20286">
        <ele>40.75</ele>
        <time>2022-07-11T06:43:54.527Z</time>
      </trkpt>
      <trkpt lat="48.28131" lon="-4.20291">
        <ele>41.56</ele>
        <time>2022-07-11T06:44:04.089Z</time>
      </trkpt>
      <trkpt lat="48.28126" lon="-4.20302">
        <ele>42.81</ele>
        <time>2022-07-11T06:44:13.590Z</time>
      </trkpt>
      <trkpt lat="48.28123" lon="-4.20311">
        <ele>42.88</ele>
        <time>2022-07-11T06:44:22.672Z</time>
      </trkpt>
      <trkpt lat="48.28119" lon="-4.2032">
        <ele>44.81</ele>
        <time>2022-07-11T06:44:31.712Z</time>
      </trkpt>
      <trkpt lat="48.28114" lon="-4.2033">
        <ele>45.81</ele>
        <time>2022-07-11T06:44:41.366Z</time>
      </trkpt>
      <trkpt lat="48.2811" lon="-4.20336">
        <ele>44.81</ele>
        <time>2022-07-11T06:44:51.229Z</time>
      </trkpt>
      <trkpt lat="48.28107" lon="-4.20342">
        <ele>45.81</ele>
        <time>2022-07-11T06:45:00.375Z</time>
      </trkpt>
      <trkpt lat="48.28102" lon="-4.20353">
        <ele>46.81</ele>
        <time>2022-07-11T06:45:09.692Z</time>
      </trkpt>
      <trkpt lat="48.28097" lon="-4.20361">
        <ele>47</ele>
        <time>2022-07-11T06:45:19.528Z</time>
      </trkpt>
      <trkpt lat="48.28095" lon="-4.2037">
        <ele>47.83</ele>
        <time>2022-07-11T06:45:29.000Z</time>
      </trkpt>
      <trkpt lat="48.28093" lon="-4.2038">
        <ele>48.81</ele>
        <time>2022-07-11T06:45:38.366Z</time>
      </trkpt>
      <trkpt lat="48.2809" lon="-4.20388">
        <ele>48.81</ele>
        <time>2022-07-11T06:45:47.608Z</time>
      </trkpt>
      <trkpt lat="48.28084" lon="-4.20398">
        <ele>50.77</ele>
        <time>2022-07-11T06:45:57.572Z</time>
      </trkpt>
      <trkpt lat="48.28079" lon="-4.20407">
        <ele>51.81</ele>
        <time>2022-07-11T06:46:07.729Z</time>
      </trkpt>
      <trkpt lat="48.28075" lon="-4.20414">
        <ele>52.75</ele>
        <time>2022-07-11T06:46:16.732Z</time>
      </trkpt>
      <trkpt lat="48.28071" lon="-4.20423">
        <ele>52.77</ele>
        <time>2022-07-11T06:46:26.532Z</time>
      </trkpt>
      <trkpt lat="48.28067" lon="-4.20432">
        <ele>53.75</ele>
        <time>2022-07-11T06:46:35.697Z</time>
      </trkpt>
      <trkpt lat="48.28063" lon="-4.20439">
        <ele>54.75</ele>
        <time>2022-07-11T06:46:44.952Z</time>
      </trkpt>
      <trkpt lat="48.2806" lon="-4.20451">
        <ele>55.75</ele>
        <time>2022-07-11T06:46:54.279Z</time>
      </trkpt>
      <trkpt lat="48.28054" lon="-4.2046">
        <ele>55.81</ele>
        <time>2022-07-11T06:47:03.350Z</time>
      </trkpt>
      <trkpt lat="48.28049" lon="-4.20469">
        <ele>54.81</ele>
        <time>2022-07-11T06:47:12.390Z</time>
      </trkpt>
      <trkpt lat="48.28043" lon="-4.2048">
        <ele>55.81</ele>
        <time>2022-07-11T06:47:21.913Z</time>
      </trkpt>
      <trkpt lat="48.2804" lon="-4.2049">
        <ele>56.81</ele>
        <time>2022-07-11T06:47:31.692Z</time>
      </trkpt>
      <trkpt lat="48.28037" lon="-4.20496">
        <ele>57.81</ele>
        <time>2022-07-11T06:47:41.290Z</time>
      </trkpt>
      <trkpt lat="48.28034" lon="-4.20501">
        <ele>58.81</ele>
        <time>2022-07-11T06:47:50.309Z</time>
      </trkpt>
      <trkpt lat="48.28028" lon="-4.20509">
        <ele>59.81</ele>
        <time>2022-07-11T06:47:59.412Z</time>
      </trkpt>
      <trkpt lat="48.2802" lon="-4.20516">
        <ele>58.83</ele>
        <time>2022-07-11T06:48:09.531Z</time>
      </trkpt>
      <trkpt lat="48.28011" lon="-4.20523">
        <ele>59.81</ele>
        <time>2022-07-11T06:48:19.509Z</time>
      </trkpt>
      <trkpt lat="48.28007" lon="-4.2053">
        <ele>60.81</ele>
        <time>2022-07-11T06:48:28.950Z</time>
      </trkpt>
      <trkpt lat="48.28003" lon="-4.20537">
        <ele>61.75</ele>
        <time>2022-07-11T06:48:38.413Z</time>
      </trkpt>
      <trkpt lat="48.27998" lon="-4.20547">
        <ele>62.81</ele>
        <time>2022-07-11T06:48:48.652Z</time>
      </trkpt>
      <trkpt lat="48.27989" lon="-4.20559">
        <ele>62.81</ele>
        <time>2022-07-11T06:48:58.000Z</time>
      </trkpt>
      <trkpt lat="48.27986" lon="-4.20565">
        <ele>62.81</ele>
        <time>2022-07-11T06:49:07.592Z</time>
      </trkpt>
      <trkpt lat="48.27983" lon="-4.20566">
        <ele>62.81</ele>
        <time>2022-07-11T06:49:17.000Z</time>
      </trkpt>
      <trkpt lat="48.2798" lon="-4.20569">
        <ele>62.86</ele>
        <time>2022-07-11T06:49:26.427Z</time>
      </trkpt>
      <trkpt lat="48.27973" lon="-4.20576">
        <ele>64.81</ele>
        <time>2022-07-11T06:49:36.567Z</time>
      </trkpt>
      <trkpt lat="48.27968" lon="-4.20583">
        <ele>64.81</ele>
        <time>2022-07-11T06:49:45.587Z</time>
      </trkpt>
      <trkpt lat="48.27964" lon="-4.20591">
        <ele>66.81</ele>
        <time>2022-07-11T06:49:54.670Z</time>
      </trkpt>
      <trkpt lat="48.27959" lon="-4.20599">
        <ele>67.81</ele>
        <time>2022-07-11T06:50:03.688Z</time>
      </trkpt>
      <trkpt lat="48.27953" lon="-4.20609">
        <ele>68.56</ele>
        <time>2022-07-11T06:50:13.150Z</time>
      </trkpt>
      <trkpt lat="48.27948" lon="-4.20616">
        <ele>69.81</ele>
        <time>2022-07-11T06:50:22.167Z</time>
      </trkpt>
      <trkpt lat="48.27944" lon="-4.20622">
        <ele>68.81</ele>
        <time>2022-07-11T06:50:32.710Z</time>
      </trkpt>
      <trkpt lat="48.2794" lon="-4.20631">
        <ele>69.75</ele>
        <time>2022-07-11T06:50:42.275Z</time>
      </trkpt>
      <trkpt lat="48.27936" lon="-4.20639">
        <ele>69.75</ele>
        <time>2022-07-11T06:50:51.867Z</time>
      </trkpt>
      <trkpt lat="48.27933" lon="-4.20644">
        <ele>68.81</ele>
        <time>2022-07-11T06:51:01.650Z</time>
      </trkpt>
      <trkpt lat="48.27925" lon="-4.20654">
        <ele>70.81</ele>
        <time>2022-07-11T06:51:11.191Z</time>
      </trkpt>
      <trkpt lat="48.27916" lon="-4.20662">
        <ele>71.81</ele>
        <time>2022-07-11T06:51:21.000Z</time>
      </trkpt>
      <trkpt lat="48.27913" lon="-4.20667">
        <ele>73.81</ele>
        <time>2022-07-11T06:51:30.067Z</time>
      </trkpt>
      <trkpt lat="48.27911" lon="-4.20681">
        <ele>74.81</ele>
        <time>2022-07-11T06:51:39.290Z</time>
      </trkpt>
      <trkpt lat="48.27908" lon="-4.20686">
        <ele>74.87</ele>
        <time>2022-07-11T06:51:48.715Z</time>
      </trkpt>
      <trkpt lat="48.27907" lon="-4.20693">
        <ele>76.81</ele>
        <time>2022-07-11T06:51:58.691Z</time>
      </trkpt>
      <trkpt lat="48.27904" lon="-4.20702">
        <ele>76.81</ele>
        <time>2022-07-11T06:52:08.247Z</time>
      </trkpt>
      <trkpt lat="48.279" lon="-4.2071">
        <ele>76.81</ele>
        <time>2022-07-11T06:52:18.627Z</time>
      </trkpt>
      <trkpt lat="48.27893" lon="-4.20719">
        <ele>77.81</ele>
        <time>2022-07-11T06:52:27.931Z</time>
      </trkpt>
      <trkpt lat="48.27888" lon="-4.20725">
        <ele>79.75</ele>
        <time>2022-07-11T06:52:37.000Z</time>
      </trkpt>
      <trkpt lat="48.27882" lon="-4.20732">
        <ele>81.81</ele>
        <time>2022-07-11T06:52:46.350Z</time>
      </trkpt>
      <trkpt lat="48.27878" lon="-4.20736">
        <ele>82.81</ele>
        <time>2022-07-11T06:52:55.530Z</time>
      </trkpt>
      <trkpt lat="48.27876" lon="-4.20745">
        <ele>84.56</ele>
        <time>2022-07-11T06:53:05.000Z</time>
      </trkpt>
      <trkpt lat="48.27874" lon="-4.20747">
        <ele>84.81</ele>
        <time>2022-07-11T06:53:15.000Z</time>
      </trkpt>
      <trkpt lat="48.27874" lon="-4.20747">
        <ele>84.06</ele>
        <time>2022-07-11T06:53:48.000Z</time>
      </trkpt>
      <trkpt lat="48.27873" lon="-4.20752">
        <ele>85.81</ele>
        <time>2022-07-11T06:53:58.429Z</time>
      </trkpt>
      <trkpt lat="48.27871" lon="-4.20759">
        <ele>85.81</ele>
        <time>2022-07-11T06:54:07.471Z</time>
      </trkpt>
      <trkpt lat="48.27869" lon="-4.20767">
        <ele>86.87</ele>
        <time>2022-07-11T06:54:17.590Z</time>
      </trkpt>
      <trkpt lat="48.27868" lon="-4.20774">
        <ele>87.81</ele>
        <time>2022-07-11T06:54:27.000Z</time>
      </trkpt>
      <trkpt lat="48.27867" lon="-4.20781">
        <ele>87.81</ele>
        <time>2022-07-11T06:54:36.087Z</time>
      </trkpt>
      <trkpt lat="48.27866" lon="-4.20788">
        <ele>89.75</ele>
        <time>2022-07-11T06:54:45.210Z</time>
      </trkpt>
      <trkpt lat="48.27865" lon="-4.20792">
        <ele>90.81</ele>
        <time>2022-07-11T06:54:54.650Z</time>
      </trkpt>
      <trkpt lat="48.27864" lon="-4.208">
        <ele>91.81</ele>
        <time>2022-07-11T06:55:04.250Z</time>
      </trkpt>
      <trkpt lat="48.27863" lon="-4.20806">
        <ele>91.81</ele>
        <time>2022-07-11T06:55:13.490Z</time>
      </trkpt>
      <trkpt lat="48.27862" lon="-4.2081">
        <ele>93.81</ele>
        <time>2022-07-11T06:55:22.630Z</time>
      </trkpt>
      <trkpt lat="48.27861" lon="-4.20814">
        <ele>95.75</ele>
        <time>2022-07-11T06:55:31.674Z</time>
      </trkpt>
      <trkpt lat="48.27862" lon="-4.20824">
        <ele>95.82</ele>
        <time>2022-07-11T06:55:41.208Z</time>
      </trkpt>
      <trkpt lat="48.27861" lon="-4.20833">
        <ele>98.81</ele>
        <time>2022-07-11T06:55:50.592Z</time>
      </trkpt>
      <trkpt lat="48.27859" lon="-4.2084">
        <ele>99.86</ele>
        <time>2022-07-11T06:55:59.610Z</time>
      </trkpt>
      <trkpt lat="48.27858" lon="-4.20849">
        <ele>101.73</ele>
        <time>2022-07-11T06:56:09.000Z</time>
      </trkpt>
      <trkpt lat="48.27857" lon="-4.20861">
        <ele>102.75</ele>
        <time>2022-07-11T06:56:19.448Z</time>
      </trkpt>
      <trkpt lat="48.27857" lon="-4.20872">
        <ele>102.81</ele>
        <time>2022-07-11T06:56:28.593Z</time>
      </trkpt>
      <trkpt lat="48.27853" lon="-4.2088">
        <ele>102.81</ele>
        <time>2022-07-11T06:56:37.649Z</time>
      </trkpt>
      <trkpt lat="48.27851" lon="-4.20889">
        <ele>102.81</ele>
        <time>2022-07-11T06:56:47.433Z</time>
      </trkpt>
      <trkpt lat="48.27852" lon="-4.20898">
        <ele>102.81</ele>
        <time>2022-07-11T06:56:57.667Z</time>
      </trkpt>
      <trkpt lat="48.27853" lon="-4.20909">
        <ele>102.81</ele>
        <time>2022-07-11T06:57:06.732Z</time>
      </trkpt>
      <trkpt lat="48.27855" lon="-4.20916">
        <ele>103.06</ele>
        <time>2022-07-11T06:57:16.129Z</time>
      </trkpt>
      <trkpt lat="48.27855" lon="-4.20929">
        <ele>105.75</ele>
        <time>2022-07-11T06:57:26.552Z</time>
      </trkpt>
      <trkpt lat="48.27853" lon="-4.20935">
        <ele>105.81</ele>
        <time>2022-07-11T06:57:35.608Z</time>
      </trkpt>
      <trkpt lat="48.27852" lon="-4.20945">
        <ele>104.87</ele>
        <time>2022-07-11T06:57:44.732Z</time>
      </trkpt>
      <trkpt lat="48.27852" lon="-4.20957">
        <ele>103.81</ele>
        <time>2022-07-11T06:57:53.986Z</time>
      </trkpt>
      <trkpt lat="48.27852" lon="-4.20968">
        <ele>104.81</ele>
        <time>2022-07-11T06:58:03.000Z</time>
      </trkpt>
      <trkpt lat="48.2785" lon="-4.20975">
        <ele>104.81</ele>
        <time>2022-07-11T06:58:12.426Z</time>
      </trkpt>
      <trkpt lat="48.27843" lon="-4.20979">
        <ele>102.81</ele>
        <time>2022-07-11T06:58:22.000Z</time>
      </trkpt>
      <trkpt lat="48.2784" lon="-4.20982">
        <ele>102.81</ele>
        <time>2022-07-11T06:58:32.000Z</time>
      </trkpt>
      <trkpt lat="48.2784" lon="-4.20983">
        <ele>101.87</ele>
        <time>2022-07-11T06:58:42.000Z</time>
      </trkpt>
      <trkpt lat="48.27837" lon="-4.20985">
        <ele>100.81</ele>
        <time>2022-07-11T06:58:52.000Z</time>
      </trkpt>
      <trkpt lat="48.27835" lon="-4.20984">
        <ele>100.81</ele>
        <time>2022-07-11T06:59:02.000Z</time>
      </trkpt>
      <trkpt lat="48.27834" lon="-4.20986">
        <ele>100.81</ele>
        <time>2022-07-11T06:59:45.000Z</time>
      </trkpt>
      <trkpt lat="48.27831" lon="-4.2099">
        <ele>102.56</ele>
        <time>2022-07-11T06:59:54.209Z</time>
      </trkpt>
      <trkpt lat="48.27828" lon="-4.21001">
        <ele>104.8</ele>
        <time>2022-07-11T07:00:03.728Z</time>
      </trkpt>
      <trkpt lat="48.27829" lon="-4.21009">
        <ele>105.81</ele>
        <time>2022-07-11T07:00:12.991Z</time>
      </trkpt>
      <trkpt lat="48.27829" lon="-4.21026">
        <ele>107</ele>
        <time>2022-07-11T07:00:22.286Z</time>
      </trkpt>
      <trkpt lat="48.27829" lon="-4.21034">
        <ele>107.05</ele>
        <time>2022-07-11T07:00:31.290Z</time>
      </trkpt>
      <trkpt lat="48.27828" lon="-4.21045">
        <ele>106.87</ele>
        <time>2022-07-11T07:00:40.712Z</time>
      </trkpt>
      <trkpt lat="48.27827" lon="-4.21059">
        <ele>108.82</ele>
        <time>2022-07-11T07:00:50.587Z</time>
      </trkpt>
      <trkpt lat="48.27826" lon="-4.21072">
        <ele>108.75</ele>
        <time>2022-07-11T07:01:00.000Z</time>
      </trkpt>
      <trkpt lat="48.27826" lon="-4.21084">
        <ele>106.81</ele>
        <time>2022-07-11T07:01:09.572Z</time>
      </trkpt>
      <trkpt lat="48.27824" lon="-4.211">
        <ele>107.75</ele>
        <time>2022-07-11T07:01:19.372Z</time>
      </trkpt>
      <trkpt lat="48.27822" lon="-4.21113">
        <ele>107.81</ele>
        <time>2022-07-11T07:01:28.406Z</time>
      </trkpt>
      <trkpt lat="48.27821" lon="-4.21122">
        <ele>106.81</ele>
        <time>2022-07-11T07:01:37.410Z</time>
      </trkpt>
      <trkpt lat="48.2782" lon="-4.21136">
        <ele>106.81</ele>
        <time>2022-07-11T07:01:46.491Z</time>
      </trkpt>
      <trkpt lat="48.27819" lon="-4.21148">
        <ele>106.81</ele>
        <time>2022-07-11T07:01:55.526Z</time>
      </trkpt>
      <trkpt lat="48.27818" lon="-4.21159">
        <ele>106.81</ele>
        <time>2022-07-11T07:02:04.626Z</time>
      </trkpt>
      <trkpt lat="48.27816" lon="-4.21169">
        <ele>104.87</ele>
        <time>2022-07-11T07:02:14.288Z</time>
      </trkpt>
      <trkpt lat="48.27815" lon="-4.21181">
        <ele>104.81</ele>
        <time>2022-07-11T07:02:24.487Z</time>
      </trkpt>
      <trkpt lat="48.27814" lon="-4.21195">
        <ele>103.82</ele>
        <time>2022-07-11T07:02:34.000Z</time>
      </trkpt>
      <trkpt lat="48.27812" lon="-4.21208">
        <ele>104.81</ele>
        <time>2022-07-11T07:02:43.292Z</time>
      </trkpt>
      <trkpt lat="48.2781" lon="-4.21218">
        <ele>103.81</ele>
        <time>2022-07-11T07:02:52.524Z</time>
      </trkpt>
      <trkpt lat="48.2781" lon="-4.21229">
        <ele>103.81</ele>
        <time>2022-07-11T07:03:02.469Z</time>
      </trkpt>
      <trkpt lat="48.2781" lon="-4.21247">
        <ele>102.81</ele>
        <time>2022-07-11T07:03:12.373Z</time>
      </trkpt>
      <trkpt lat="48.27809" lon="-4.21264">
        <ele>102.56</ele>
        <time>2022-07-11T07:03:22.000Z</time>
      </trkpt>
      <trkpt lat="48.27806" lon="-4.21275">
        <ele>101.82</ele>
        <time>2022-07-11T07:03:31.109Z</time>
      </trkpt>
      <trkpt lat="48.27805" lon="-4.21287">
        <ele>101.81</ele>
        <time>2022-07-11T07:03:41.277Z</time>
      </trkpt>
      <trkpt lat="48.27805" lon="-4.21299">
        <ele>102.74</ele>
        <time>2022-07-11T07:03:51.228Z</time>
      </trkpt>
      <trkpt lat="48.27796" lon="-4.21314">
        <ele>102.81</ele>
        <time>2022-07-11T07:04:00.249Z</time>
      </trkpt>
      <trkpt lat="48.27789" lon="-4.21328">
        <ele>102.81</ele>
        <time>2022-07-11T07:04:09.493Z</time>
      </trkpt>
      <trkpt lat="48.27783" lon="-4.2134">
        <ele>103.81</ele>
        <time>2022-07-11T07:04:18.807Z</time>
      </trkpt>
      <trkpt lat="48.27775" lon="-4.2135">
        <ele>103.81</ele>
        <time>2022-07-11T07:04:28.330Z</time>
      </trkpt>
      <trkpt lat="48.27768" lon="-4.21358">
        <ele>103.81</ele>
        <time>2022-07-11T07:04:37.547Z</time>
      </trkpt>
      <trkpt lat="48.27762" lon="-4.21368">
        <ele>103.81</ele>
        <time>2022-07-11T07:04:47.129Z</time>
      </trkpt>
      <trkpt lat="48.27754" lon="-4.21378">
        <ele>104.81</ele>
        <time>2022-07-11T07:04:56.686Z</time>
      </trkpt>
      <trkpt lat="48.27747" lon="-4.21387">
        <ele>104.06</ele>
        <time>2022-07-11T07:05:06.606Z</time>
      </trkpt>
      <trkpt lat="48.2774" lon="-4.21397">
        <ele>104.8</ele>
        <time>2022-07-11T07:05:16.590Z</time>
      </trkpt>
      <trkpt lat="48.27733" lon="-4.21409">
        <ele>104.81</ele>
        <time>2022-07-11T07:05:26.289Z</time>
      </trkpt>
      <trkpt lat="48.27727" lon="-4.21419">
        <ele>104.81</ele>
        <time>2022-07-11T07:05:35.393Z</time>
      </trkpt>
      <trkpt lat="48.27719" lon="-4.21426">
        <ele>104.81</ele>
        <time>2022-07-11T07:05:44.464Z</time>
      </trkpt>
      <trkpt lat="48.27713" lon="-4.21436">
        <ele>104.82</ele>
        <time>2022-07-11T07:05:53.572Z</time>
      </trkpt>
      <trkpt lat="48.27705" lon="-4.21447">
        <ele>104.81</ele>
        <time>2022-07-11T07:06:03.507Z</time>
      </trkpt>
      <trkpt lat="48.27702" lon="-4.21459">
        <ele>105.81</ele>
        <time>2022-07-11T07:06:13.653Z</time>
      </trkpt>
      <trkpt lat="48.27706" lon="-4.21473">
        <ele>104.81</ele>
        <time>2022-07-11T07:06:23.427Z</time>
      </trkpt>
      <trkpt lat="48.2771" lon="-4.21486">
        <ele>105.79</ele>
        <time>2022-07-11T07:06:32.572Z</time>
      </trkpt>
      <trkpt lat="48.27715" lon="-4.21496">
        <ele>104.81</ele>
        <time>2022-07-11T07:06:41.691Z</time>
      </trkpt>
      <trkpt lat="48.27722" lon="-4.21505">
        <ele>104.81</ele>
        <time>2022-07-11T07:06:50.707Z</time>
      </trkpt>
      <trkpt lat="48.27728" lon="-4.21518">
        <ele>103.81</ele>
        <time>2022-07-11T07:07:00.350Z</time>
      </trkpt>
      <trkpt lat="48.27733" lon="-4.21529">
        <ele>103.8</ele>
        <time>2022-07-11T07:07:10.372Z</time>
      </trkpt>
      <trkpt lat="48.27739" lon="-4.21538">
        <ele>103.8</ele>
        <time>2022-07-11T07:07:19.391Z</time>
      </trkpt>
      <trkpt lat="48.27747" lon="-4.21549">
        <ele>104.8</ele>
        <time>2022-07-11T07:07:29.327Z</time>
      </trkpt>
      <trkpt lat="48.27753" lon="-4.21559">
        <ele>103.8</ele>
        <time>2022-07-11T07:07:38.648Z</time>
      </trkpt>
      <trkpt lat="48.27761" lon="-4.21573">
        <ele>103.8</ele>
        <time>2022-07-11T07:07:48.047Z</time>
      </trkpt>
      <trkpt lat="48.27769" lon="-4.21584">
        <ele>103.8</ele>
        <time>2022-07-11T07:07:57.347Z</time>
      </trkpt>
      <trkpt lat="48.27775" lon="-4.21598">
        <ele>102.8</ele>
        <time>2022-07-11T07:08:07.226Z</time>
      </trkpt>
      <trkpt lat="48.27779" lon="-4.2161">
        <ele>102.8</ele>
        <time>2022-07-11T07:08:16.491Z</time>
      </trkpt>
      <trkpt lat="48.27784" lon="-4.21621">
        <ele>102.8</ele>
        <time>2022-07-11T07:08:25.670Z</time>
      </trkpt>
      <trkpt lat="48.27789" lon="-4.21635">
        <ele>102.8</ele>
        <time>2022-07-11T07:08:35.444Z</time>
      </trkpt>
      <trkpt lat="48.27796" lon="-4.21649">
        <ele>102.8</ele>
        <time>2022-07-11T07:08:45.452Z</time>
      </trkpt>
      <trkpt lat="48.27801" lon="-4.21662">
        <ele>102.8</ele>
        <time>2022-07-11T07:08:55.711Z</time>
      </trkpt>
      <trkpt lat="48.27806" lon="-4.2167">
        <ele>101.8</ele>
        <time>2022-07-11T07:09:05.310Z</time>
      </trkpt>
      <trkpt lat="48.2781" lon="-4.21677">
        <ele>101.74</ele>
        <time>2022-07-11T07:09:15.228Z</time>
      </trkpt>
      <trkpt lat="48.27816" lon="-4.21692">
        <ele>99.82</ele>
        <time>2022-07-11T07:09:24.505Z</time>
      </trkpt>
      <trkpt lat="48.27821" lon="-4.21705">
        <ele>100.8</ele>
        <time>2022-07-11T07:09:34.000Z</time>
      </trkpt>
      <trkpt lat="48.27827" lon="-4.21716">
        <ele>99.86</ele>
        <time>2022-07-11T07:09:43.648Z</time>
      </trkpt>
      <trkpt lat="48.27832" lon="-4.21731">
        <ele>98.05</ele>
        <time>2022-07-11T07:09:53.707Z</time>
      </trkpt>
      <trkpt lat="48.27835" lon="-4.21746">
        <ele>98.55</ele>
        <time>2022-07-11T07:10:03.000Z</time>
      </trkpt>
      <trkpt lat="48.27837" lon="-4.21759">
        <ele>97.8</ele>
        <time>2022-07-11T07:10:12.673Z</time>
      </trkpt>
      <trkpt lat="48.2784" lon="-4.21769">
        <ele>97.8</ele>
        <time>2022-07-11T07:10:21.916Z</time>
      </trkpt>
      <trkpt lat="48.27843" lon="-4.2178">
        <ele>97.79</ele>
        <time>2022-07-11T07:10:31.000Z</time>
      </trkpt>
      <trkpt lat="48.27845" lon="-4.21787">
        <ele>96.8</ele>
        <time>2022-07-11T07:10:40.146Z</time>
      </trkpt>
      <trkpt lat="48.27848" lon="-4.218">
        <ele>96.8</ele>
        <time>2022-07-11T07:10:49.691Z</time>
      </trkpt>
      <trkpt lat="48.27851" lon="-4.2181">
        <ele>94.88</ele>
        <time>2022-07-11T07:10:59.279Z</time>
      </trkpt>
      <trkpt lat="48.27855" lon="-4.21826">
        <ele>93.8</ele>
        <time>2022-07-11T07:11:09.207Z</time>
      </trkpt>
      <trkpt lat="48.27855" lon="-4.21836">
        <ele>93.8</ele>
        <time>2022-07-11T07:11:18.291Z</time>
      </trkpt>
      <trkpt lat="48.27857" lon="-4.21847">
        <ele>92.8</ele>
        <time>2022-07-11T07:11:27.327Z</time>
      </trkpt>
      <trkpt lat="48.27858" lon="-4.21859">
        <ele>92.8</ele>
        <time>2022-07-11T07:11:36.354Z</time>
      </trkpt>
      <trkpt lat="48.27862" lon="-4.21875">
        <ele>90.82</ele>
        <time>2022-07-11T07:11:46.406Z</time>
      </trkpt>
      <trkpt lat="48.27864" lon="-4.21883">
        <ele>90.8</ele>
        <time>2022-07-11T07:11:55.471Z</time>
      </trkpt>
      <trkpt lat="48.27869" lon="-4.21893">
        <ele>89.8</ele>
        <time>2022-07-11T07:12:04.594Z</time>
      </trkpt>
      <trkpt lat="48.27871" lon="-4.21907">
        <ele>88.8</ele>
        <time>2022-07-11T07:12:13.609Z</time>
      </trkpt>
      <trkpt lat="48.27875" lon="-4.21921">
        <ele>88.8</ele>
        <time>2022-07-11T07:12:23.000Z</time>
      </trkpt>
      <trkpt lat="48.27878" lon="-4.21933">
        <ele>88.8</ele>
        <time>2022-07-11T07:12:32.552Z</time>
      </trkpt>
      <trkpt lat="48.2788" lon="-4.21943">
        <ele>88.8</ele>
        <time>2022-07-11T07:12:41.713Z</time>
      </trkpt>
      <trkpt lat="48.27883" lon="-4.21957">
        <ele>88.79</ele>
        <time>2022-07-11T07:12:51.193Z</time>
      </trkpt>
      <trkpt lat="48.27884" lon="-4.21965">
        <ele>87.8</ele>
        <time>2022-07-11T07:13:00.510Z</time>
      </trkpt>
      <trkpt lat="48.27887" lon="-4.21981">
        <ele>85.86</ele>
        <time>2022-07-11T07:13:09.592Z</time>
      </trkpt>
      <trkpt lat="48.27888" lon="-4.2199">
        <ele>84.8</ele>
        <time>2022-07-11T07:13:19.247Z</time>
      </trkpt>
      <trkpt lat="48.27891" lon="-4.21999">
        <ele>83.8</ele>
        <time>2022-07-11T07:13:28.652Z</time>
      </trkpt>
      <trkpt lat="48.27893" lon="-4.22012">
        <ele>82.81</ele>
        <time>2022-07-11T07:13:38.409Z</time>
      </trkpt>
      <trkpt lat="48.27893" lon="-4.22026">
        <ele>81.8</ele>
        <time>2022-07-11T07:13:48.031Z</time>
      </trkpt>
      <trkpt lat="48.27896" lon="-4.22039">
        <ele>79.86</ele>
        <time>2022-07-11T07:13:57.208Z</time>
      </trkpt>
      <trkpt lat="48.27899" lon="-4.22053">
        <ele>79.79</ele>
        <time>2022-07-11T07:14:06.230Z</time>
      </trkpt>
      <trkpt lat="48.279" lon="-4.22064">
        <ele>78.8</ele>
        <time>2022-07-11T07:14:15.248Z</time>
      </trkpt>
      <trkpt lat="48.27903" lon="-4.22077">
        <ele>78.8</ele>
        <time>2022-07-11T07:14:24.434Z</time>
      </trkpt>
      <trkpt lat="48.27905" lon="-4.22084">
        <ele>76.8</ele>
        <time>2022-07-11T07:14:33.611Z</time>
      </trkpt>
      <trkpt lat="48.27908" lon="-4.22093">
        <ele>76.86</ele>
        <time>2022-07-11T07:14:43.000Z</time>
      </trkpt>
      <trkpt lat="48.2791" lon="-4.22105">
        <ele>76.8</ele>
        <time>2022-07-11T07:14:52.394Z</time>
      </trkpt>
      <trkpt lat="48.27909" lon="-4.22118">
        <ele>73.05</ele>
        <time>2022-07-11T07:15:01.449Z</time>
      </trkpt>
      <trkpt lat="48.2791" lon="-4.22126">
        <ele>70.8</ele>
        <time>2022-07-11T07:15:11.447Z</time>
      </trkpt>
      <trkpt lat="48.27913" lon="-4.22142">
        <ele>68.8</ele>
        <time>2022-07-11T07:15:21.474Z</time>
      </trkpt>
      <trkpt lat="48.27918" lon="-4.22156">
        <ele>67.8</ele>
        <time>2022-07-11T07:15:30.607Z</time>
      </trkpt>
      <trkpt lat="48.27921" lon="-4.22167">
        <ele>65.05</ele>
        <time>2022-07-11T07:15:39.911Z</time>
      </trkpt>
      <trkpt lat="48.27923" lon="-4.22179">
        <ele>63.8</ele>
        <time>2022-07-11T07:15:49.528Z</time>
      </trkpt>
      <trkpt lat="48.27926" lon="-4.22192">
        <ele>62.99</ele>
        <time>2022-07-11T07:15:58.647Z</time>
      </trkpt>
      <trkpt lat="48.27932" lon="-4.22205">
        <ele>61.8</ele>
        <time>2022-07-11T07:16:07.691Z</time>
      </trkpt>
      <trkpt lat="48.27937" lon="-4.22218">
        <ele>60.8</ele>
        <time>2022-07-11T07:16:17.672Z</time>
      </trkpt>
      <trkpt lat="48.27937" lon="-4.22233">
        <ele>60.8</ele>
        <time>2022-07-11T07:16:27.407Z</time>
      </trkpt>
      <trkpt lat="48.27931" lon="-4.22245">
        <ele>60.8</ele>
        <time>2022-07-11T07:16:36.546Z</time>
      </trkpt>
      <trkpt lat="48.27928" lon="-4.2226">
        <ele>59.8</ele>
        <time>2022-07-11T07:16:45.576Z</time>
      </trkpt>
      <trkpt lat="48.27928" lon="-4.22272">
        <ele>57.8</ele>
        <time>2022-07-11T07:16:55.389Z</time>
      </trkpt>
      <trkpt lat="48.2793" lon="-4.2228">
        <ele>56.8</ele>
        <time>2022-07-11T07:17:05.000Z</time>
      </trkpt>
      <trkpt lat="48.27935" lon="-4.22289">
        <ele>55.81</ele>
        <time>2022-07-11T07:17:14.491Z</time>
      </trkpt>
      <trkpt lat="48.2794" lon="-4.22298">
        <ele>54.8</ele>
        <time>2022-07-11T07:17:24.187Z</time>
      </trkpt>
      <trkpt lat="48.27943" lon="-4.223">
        <ele>53.8</ele>
        <time>2022-07-11T07:17:33.347Z</time>
      </trkpt>
      <trkpt lat="48.27946" lon="-4.22308">
        <ele>52.8</ele>
        <time>2022-07-11T07:17:43.000Z</time>
      </trkpt>
      <trkpt lat="48.27946" lon="-4.22308">
        <ele>52.8</ele>
        <time>2022-07-11T07:18:02.000Z</time>
      </trkpt>
      <trkpt lat="48.27947" lon="-4.2231">
        <ele>52.8</ele>
        <time>2022-07-11T07:18:16.000Z</time>
      </trkpt>
      <trkpt lat="48.27947" lon="-4.22311">
        <ele>51.8</ele>
        <time>2022-07-11T07:18:29.000Z</time>
      </trkpt>
      <trkpt lat="48.27948" lon="-4.22312">
        <ele>50.8</ele>
        <time>2022-07-11T07:18:39.000Z</time>
      </trkpt>
      <trkpt lat="48.27949" lon="-4.22311">
        <ele>50.8</ele>
        <time>2022-07-11T07:19:39.000Z</time>
      </trkpt>
      <trkpt lat="48.2795" lon="-4.22311">
        <ele>50.8</ele>
        <time>2022-07-11T07:19:49.000Z</time>
      </trkpt>
      <trkpt lat="48.27951" lon="-4.22311">
        <ele>48.8</ele>
        <time>2022-07-11T07:25:14.109Z</time>
      </trkpt>
      <trkpt lat="48.27955" lon="-4.22317">
        <ele>48.8</ele>
        <time>2022-07-11T07:25:23.589Z</time>
      </trkpt>
      <trkpt lat="48.27956" lon="-4.22321">
        <ele>47.8</ele>
        <time>2022-07-11T07:25:33.000Z</time>
      </trkpt>
      <trkpt lat="48.27963" lon="-4.22333">
        <ele>47.8</ele>
        <time>2022-07-11T07:25:42.508Z</time>
      </trkpt>
      <trkpt lat="48.27969" lon="-4.22349">
        <ele>46.8</ele>
        <time>2022-07-11T07:25:52.283Z</time>
      </trkpt>
      <trkpt lat="48.27972" lon="-4.22362">
        <ele>46.55</ele>
        <time>2022-07-11T07:26:01.546Z</time>
      </trkpt>
      <trkpt lat="48.27972" lon="-4.22377">
        <ele>45.8</ele>
        <time>2022-07-11T07:26:11.179Z</time>
      </trkpt>
      <trkpt lat="48.27969" lon="-4.22392">
        <ele>44.8</ele>
        <time>2022-07-11T07:26:20.567Z</time>
      </trkpt>
      <trkpt lat="48.27964" lon="-4.22405">
        <ele>43.8</ele>
        <time>2022-07-11T07:26:29.628Z</time>
      </trkpt>
      <trkpt lat="48.27957" lon="-4.22415">
        <ele>44.8</ele>
        <time>2022-07-11T07:26:38.965Z</time>
      </trkpt>
      <trkpt lat="48.27952" lon="-4.22425">
        <ele>44.8</ele>
        <time>2022-07-11T07:26:48.312Z</time>
      </trkpt>
      <trkpt lat="48.27948" lon="-4.22438">
        <ele>43.8</ele>
        <time>2022-07-11T07:26:58.225Z</time>
      </trkpt>
      <trkpt lat="48.27945" lon="-4.22451">
        <ele>45.55</ele>
        <time>2022-07-11T07:27:07.665Z</time>
      </trkpt>
      <trkpt lat="48.27943" lon="-4.22464">
        <ele>44.8</ele>
        <time>2022-07-11T07:27:17.587Z</time>
      </trkpt>
      <trkpt lat="48.27939" lon="-4.2247">
        <ele>44.05</ele>
        <time>2022-07-11T07:27:27.651Z</time>
      </trkpt>
      <trkpt lat="48.27937" lon="-4.22483">
        <ele>43.8</ele>
        <time>2022-07-11T07:27:36.892Z</time>
      </trkpt>
      <trkpt lat="48.27936" lon="-4.22494">
        <ele>42.8</ele>
        <time>2022-07-11T07:27:46.285Z</time>
      </trkpt>
      <trkpt lat="48.27936" lon="-4.22507">
        <ele>41.8</ele>
        <time>2022-07-11T07:27:55.391Z</time>
      </trkpt>
      <trkpt lat="48.27935" lon="-4.22516">
        <ele>41.73</ele>
        <time>2022-07-11T07:28:05.247Z</time>
      </trkpt>
      <trkpt lat="48.27932" lon="-4.22526">
        <ele>40.8</ele>
        <time>2022-07-11T07:28:14.631Z</time>
      </trkpt>
      <trkpt lat="48.27932" lon="-4.22544">
        <ele>40.56</ele>
        <time>2022-07-11T07:28:24.312Z</time>
      </trkpt>
      <trkpt lat="48.27932" lon="-4.22557">
        <ele>40.8</ele>
        <time>2022-07-11T07:28:34.408Z</time>
      </trkpt>
      <trkpt lat="48.27932" lon="-4.22566">
        <ele>40.78</ele>
        <time>2022-07-11T07:28:44.328Z</time>
      </trkpt>
      <trkpt lat="48.27933" lon="-4.22579">
        <ele>40.55</ele>
        <time>2022-07-11T07:28:53.530Z</time>
      </trkpt>
      <trkpt lat="48.27936" lon="-4.22598">
        <ele>41.55</ele>
        <time>2022-07-11T07:29:03.609Z</time>
      </trkpt>
      <trkpt lat="48.27936" lon="-4.22616">
        <ele>43.8</ele>
        <time>2022-07-11T07:29:13.327Z</time>
      </trkpt>
      <trkpt lat="48.27937" lon="-4.22631">
        <ele>45.8</ele>
        <time>2022-07-11T07:29:22.408Z</time>
      </trkpt>
      <trkpt lat="48.27935" lon="-4.22642">
        <ele>45.8</ele>
        <time>2022-07-11T07:29:31.412Z</time>
      </trkpt>
      <trkpt lat="48.27933" lon="-4.2265">
        <ele>44.8</ele>
        <time>2022-07-11T07:29:41.388Z</time>
      </trkpt>
      <trkpt lat="48.27931" lon="-4.22663">
        <ele>44.81</ele>
        <time>2022-07-11T07:29:50.406Z</time>
      </trkpt>
      <trkpt lat="48.27928" lon="-4.22677">
        <ele>43.81</ele>
        <time>2022-07-11T07:30:00.000Z</time>
      </trkpt>
      <trkpt lat="48.27928" lon="-4.22688">
        <ele>43.55</ele>
        <time>2022-07-11T07:30:09.347Z</time>
      </trkpt>
      <trkpt lat="48.27927" lon="-4.22697">
        <ele>42.79</ele>
        <time>2022-07-11T07:30:18.453Z</time>
      </trkpt>
      <trkpt lat="48.27925" lon="-4.22711">
        <ele>41.8</ele>
        <time>2022-07-11T07:30:28.549Z</time>
      </trkpt>
      <trkpt lat="48.27924" lon="-4.22723">
        <ele>42.73</ele>
        <time>2022-07-11T07:30:38.000Z</time>
      </trkpt>
      <trkpt lat="48.27923" lon="-4.2274">
        <ele>43.8</ele>
        <time>2022-07-11T07:30:47.132Z</time>
      </trkpt>
      <trkpt lat="48.27922" lon="-4.22755">
        <ele>44.73</ele>
        <time>2022-07-11T07:30:56.566Z</time>
      </trkpt>
      <trkpt lat="48.27924" lon="-4.22768">
        <ele>42.8</ele>
        <time>2022-07-11T07:31:05.846Z</time>
      </trkpt>
      <trkpt lat="48.27925" lon="-4.22781">
        <ele>41.8</ele>
        <time>2022-07-11T07:31:15.367Z</time>
      </trkpt>
      <trkpt lat="48.27925" lon="-4.22793">
        <ele>40.8</ele>
        <time>2022-07-11T07:31:25.246Z</time>
      </trkpt>
      <trkpt lat="48.27922" lon="-4.22807">
        <ele>38.81</ele>
        <time>2022-07-11T07:31:34.488Z</time>
      </trkpt>
      <trkpt lat="48.27918" lon="-4.2282">
        <ele>38.8</ele>
        <time>2022-07-11T07:31:44.000Z</time>
      </trkpt>
      <trkpt lat="48.27916" lon="-4.22833">
        <ele>37.8</ele>
        <time>2022-07-11T07:31:53.248Z</time>
      </trkpt>
      <trkpt lat="48.27912" lon="-4.22847">
        <ele>36.05</ele>
        <time>2022-07-11T07:32:02.672Z</time>
      </trkpt>
      <trkpt lat="48.27907" lon="-4.22859">
        <ele>36.53</ele>
        <time>2022-07-11T07:32:12.512Z</time>
      </trkpt>
      <trkpt lat="48.27905" lon="-4.22871">
        <ele>34.86</ele>
        <time>2022-07-11T07:32:21.632Z</time>
      </trkpt>
      <trkpt lat="48.27902" lon="-4.22887">
        <ele>35.79</ele>
        <time>2022-07-11T07:32:31.112Z</time>
      </trkpt>
      <trkpt lat="48.279" lon="-4.22903">
        <ele>35.79</ele>
        <time>2022-07-11T07:32:41.000Z</time>
      </trkpt>
      <trkpt lat="48.27899" lon="-4.22914">
        <ele>35.79</ele>
        <time>2022-07-11T07:32:50.288Z</time>
      </trkpt>
      <trkpt lat="48.27896" lon="-4.2293">
        <ele>34.79</ele>
        <time>2022-07-11T07:33:00.368Z</time>
      </trkpt>
      <trkpt lat="48.27896" lon="-4.22942">
        <ele>32.8</ele>
        <time>2022-07-11T07:33:09.690Z</time>
      </trkpt>
      <trkpt lat="48.27897" lon="-4.22957">
        <ele>30.79</ele>
        <time>2022-07-11T07:33:18.853Z</time>
      </trkpt>
      <trkpt lat="48.27904" lon="-4.22965">
        <ele>30.56</ele>
        <time>2022-07-11T07:33:28.429Z</time>
      </trkpt>
      <trkpt lat="48.27907" lon="-4.22975">
        <ele>31.79</ele>
        <time>2022-07-11T07:33:37.653Z</time>
      </trkpt>
      <trkpt lat="48.27906" lon="-4.22985">
        <ele>31.79</ele>
        <time>2022-07-11T07:33:47.148Z</time>
      </trkpt>
      <trkpt lat="48.27907" lon="-4.22997">
        <ele>34.79</ele>
        <time>2022-07-11T07:33:56.453Z</time>
      </trkpt>
      <trkpt lat="48.27908" lon="-4.23009">
        <ele>35.79</ele>
        <time>2022-07-11T07:34:05.990Z</time>
      </trkpt>
      <trkpt lat="48.27912" lon="-4.23025">
        <ele>35.79</ele>
        <time>2022-07-11T07:34:15.690Z</time>
      </trkpt>
      <trkpt lat="48.27913" lon="-4.23033">
        <ele>34.79</ele>
        <time>2022-07-11T07:34:25.127Z</time>
      </trkpt>
      <trkpt lat="48.27916" lon="-4.23043">
        <ele>32.79</ele>
        <time>2022-07-11T07:34:34.289Z</time>
      </trkpt>
      <trkpt lat="48.27918" lon="-4.23055">
        <ele>31.79</ele>
        <time>2022-07-11T07:34:44.225Z</time>
      </trkpt>
      <trkpt lat="48.27917" lon="-4.23069">
        <ele>30.04</ele>
        <time>2022-07-11T07:34:54.305Z</time>
      </trkpt>
      <trkpt lat="48.27916" lon="-4.2308">
        <ele>28.81</ele>
        <time>2022-07-11T07:35:03.468Z</time>
      </trkpt>
      <trkpt lat="48.27917" lon="-4.23098">
        <ele>27.79</ele>
        <time>2022-07-11T07:35:12.990Z</time>
      </trkpt>
      <trkpt lat="48.27917" lon="-4.23113">
        <ele>25.79</ele>
        <time>2022-07-11T07:35:22.312Z</time>
      </trkpt>
      <trkpt lat="48.27917" lon="-4.23129">
        <ele>25.79</ele>
        <time>2022-07-11T07:35:32.000Z</time>
      </trkpt>
      <trkpt lat="48.27915" lon="-4.23142">
        <ele>25.79</ele>
        <time>2022-07-11T07:35:42.311Z</time>
      </trkpt>
      <trkpt lat="48.27914" lon="-4.2315">
        <ele>24.79</ele>
        <time>2022-07-11T07:35:52.152Z</time>
      </trkpt>
      <trkpt lat="48.27915" lon="-4.23162">
        <ele>24.79</ele>
        <time>2022-07-11T07:36:01.551Z</time>
      </trkpt>
      <trkpt lat="48.27918" lon="-4.23177">
        <ele>23.79</ele>
        <time>2022-07-11T07:36:11.000Z</time>
      </trkpt>
      <trkpt lat="48.27922" lon="-4.23192">
        <ele>23.85</ele>
        <time>2022-07-11T07:36:20.126Z</time>
      </trkpt>
      <trkpt lat="48.27924" lon="-4.23212">
        <ele>24.79</ele>
        <time>2022-07-11T07:36:29.468Z</time>
      </trkpt>
      <trkpt lat="48.27922" lon="-4.23233">
        <ele>27.54</ele>
        <time>2022-07-11T07:36:38.990Z</time>
      </trkpt>
      <trkpt lat="48.27922" lon="-4.2325">
        <ele>26.79</ele>
        <time>2022-07-11T07:36:48.728Z</time>
      </trkpt>
      <trkpt lat="48.27922" lon="-4.23261">
        <ele>26.79</ele>
        <time>2022-07-11T07:36:58.593Z</time>
      </trkpt>
      <trkpt lat="48.27921" lon="-4.23269">
        <ele>25.85</ele>
        <time>2022-07-11T07:37:08.447Z</time>
      </trkpt>
      <trkpt lat="48.27923" lon="-4.23285">
        <ele>27.78</ele>
        <time>2022-07-11T07:37:18.387Z</time>
      </trkpt>
      <trkpt lat="48.27925" lon="-4.23294">
        <ele>28.79</ele>
        <time>2022-07-11T07:37:28.306Z</time>
      </trkpt>
      <trkpt lat="48.27926" lon="-4.23304">
        <ele>27.85</ele>
        <time>2022-07-11T07:37:38.651Z</time>
      </trkpt>
      <trkpt lat="48.2793" lon="-4.23322">
        <ele>27.79</ele>
        <time>2022-07-11T07:37:48.650Z</time>
      </trkpt>
      <trkpt lat="48.27936" lon="-4.23341">
        <ele>28.79</ele>
        <time>2022-07-11T07:37:58.608Z</time>
      </trkpt>
      <trkpt lat="48.27943" lon="-4.23369">
        <ele>32.71</ele>
        <time>2022-07-11T07:38:08.329Z</time>
      </trkpt>
      <trkpt lat="48.27951" lon="-4.23389">
        <ele>33.79</ele>
        <time>2022-07-11T07:38:18.149Z</time>
      </trkpt>
      <trkpt lat="48.27959" lon="-4.23405">
        <ele>35.73</ele>
        <time>2022-07-11T07:38:27.487Z</time>
      </trkpt>
      <trkpt lat="48.27964" lon="-4.23423">
        <ele>36.79</ele>
        <time>2022-07-11T07:38:37.151Z</time>
      </trkpt>
      <trkpt lat="48.27968" lon="-4.2344">
        <ele>37.54</ele>
        <time>2022-07-11T07:38:47.000Z</time>
      </trkpt>
      <trkpt lat="48.27972" lon="-4.23452">
        <ele>36.79</ele>
        <time>2022-07-11T07:38:56.111Z</time>
      </trkpt>
      <trkpt lat="48.27971" lon="-4.23464">
        <ele>37.04</ele>
        <time>2022-07-11T07:39:05.694Z</time>
      </trkpt>
      <trkpt lat="48.27963" lon="-4.23473">
        <ele>35.79</ele>
        <time>2022-07-11T07:39:14.852Z</time>
      </trkpt>
      <trkpt lat="48.27955" lon="-4.2348">
        <ele>35.79</ele>
        <time>2022-07-11T07:39:24.427Z</time>
      </trkpt>
      <trkpt lat="48.27948" lon="-4.23487">
        <ele>35.54</ele>
        <time>2022-07-11T07:39:34.000Z</time>
      </trkpt>
      <trkpt lat="48.27943" lon="-4.23493">
        <ele>34.79</ele>
        <time>2022-07-11T07:39:43.409Z</time>
      </trkpt>
      <trkpt lat="48.27935" lon="-4.23502">
        <ele>33.81</ele>
        <time>2022-07-11T07:39:53.528Z</time>
      </trkpt>
      <trkpt lat="48.27927" lon="-4.23508">
        <ele>33.79</ele>
        <time>2022-07-11T07:40:03.452Z</time>
      </trkpt>
      <trkpt lat="48.2792" lon="-4.23513">
        <ele>34.79</ele>
        <time>2022-07-11T07:40:12.573Z</time>
      </trkpt>
      <trkpt lat="48.27912" lon="-4.2352">
        <ele>34.79</ele>
        <time>2022-07-11T07:40:22.000Z</time>
      </trkpt>
      <trkpt lat="48.27905" lon="-4.23526">
        <ele>34.79</ele>
        <time>2022-07-11T07:40:31.628Z</time>
      </trkpt>
      <trkpt lat="48.27901" lon="-4.23529">
        <ele>35.79</ele>
        <time>2022-07-11T07:40:40.951Z</time>
      </trkpt>
      <trkpt lat="48.27895" lon="-4.23538">
        <ele>34.85</ele>
        <time>2022-07-11T07:40:50.371Z</time>
      </trkpt>
      <trkpt lat="48.27887" lon="-4.23545">
        <ele>34.79</ele>
        <time>2022-07-11T07:40:59.693Z</time>
      </trkpt>
      <trkpt lat="48.27881" lon="-4.23548">
        <ele>34.79</ele>
        <time>2022-07-11T07:41:08.995Z</time>
      </trkpt>
      <trkpt lat="48.27873" lon="-4.23552">
        <ele>35.54</ele>
        <time>2022-07-11T07:41:18.532Z</time>
      </trkpt>
      <trkpt lat="48.27864" lon="-4.23561">
        <ele>36.73</ele>
        <time>2022-07-11T07:41:28.408Z</time>
      </trkpt>
      <trkpt lat="48.27858" lon="-4.23563">
        <ele>36.85</ele>
        <time>2022-07-11T07:41:37.671Z</time>
      </trkpt>
      <trkpt lat="48.2785" lon="-4.23569">
        <ele>36.79</ele>
        <time>2022-07-11T07:41:47.000Z</time>
      </trkpt>
      <trkpt lat="48.27844" lon="-4.23573">
        <ele>36.77</ele>
        <time>2022-07-11T07:41:56.435Z</time>
      </trkpt>
      <trkpt lat="48.27835" lon="-4.23577">
        <ele>37.77</ele>
        <time>2022-07-11T07:42:05.710Z</time>
      </trkpt>
      <trkpt lat="48.27826" lon="-4.2358">
        <ele>37.77</ele>
        <time>2022-07-11T07:42:15.000Z</time>
      </trkpt>
      <trkpt lat="48.2782" lon="-4.23583">
        <ele>37.79</ele>
        <time>2022-07-11T07:42:24.311Z</time>
      </trkpt>
      <trkpt lat="48.27818" lon="-4.23583">
        <ele>37.79</ele>
        <time>2022-07-11T07:42:33.591Z</time>
      </trkpt>
      <trkpt lat="48.27812" lon="-4.23586">
        <ele>39.77</ele>
        <time>2022-07-11T07:42:43.352Z</time>
      </trkpt>
      <trkpt lat="48.27805" lon="-4.23589">
        <ele>39.98</ele>
        <time>2022-07-11T07:42:53.000Z</time>
      </trkpt>
      <trkpt lat="48.27802" lon="-4.2359">
        <ele>40.79</ele>
        <time>2022-07-11T07:43:02.211Z</time>
      </trkpt>
      <trkpt lat="48.27795" lon="-4.23593">
        <ele>41.73</ele>
        <time>2022-07-11T07:43:11.414Z</time>
      </trkpt>
      <trkpt lat="48.27787" lon="-4.23595">
        <ele>41.79</ele>
        <time>2022-07-11T07:43:20.466Z</time>
      </trkpt>
      <trkpt lat="48.27779" lon="-4.236">
        <ele>41.79</ele>
        <time>2022-07-11T07:43:30.000Z</time>
      </trkpt>
      <trkpt lat="48.27771" lon="-4.23604">
        <ele>40.79</ele>
        <time>2022-07-11T07:43:39.585Z</time>
      </trkpt>
      <trkpt lat="48.27764" lon="-4.23609">
        <ele>40.79</ele>
        <time>2022-07-11T07:43:48.719Z</time>
      </trkpt>
      <trkpt lat="48.27758" lon="-4.23611">
        <ele>41.79</ele>
        <time>2022-07-11T07:43:58.411Z</time>
      </trkpt>
      <trkpt lat="48.2775" lon="-4.23613">
        <ele>43.74</ele>
        <time>2022-07-11T07:44:08.470Z</time>
      </trkpt>
      <trkpt lat="48.27741" lon="-4.23615">
        <ele>43.79</ele>
        <time>2022-07-11T07:44:18.567Z</time>
      </trkpt>
      <trkpt lat="48.27735" lon="-4.23618">
        <ele>44.79</ele>
        <time>2022-07-11T07:44:28.509Z</time>
      </trkpt>
      <trkpt lat="48.27728" lon="-4.23623">
        <ele>45.79</ele>
        <time>2022-07-11T07:44:38.491Z</time>
      </trkpt>
      <trkpt lat="48.27723" lon="-4.23634">
        <ele>46.79</ele>
        <time>2022-07-11T07:44:48.531Z</time>
      </trkpt>
      <trkpt lat="48.27717" lon="-4.23645">
        <ele>48.79</ele>
        <time>2022-07-11T07:44:58.091Z</time>
      </trkpt>
      <trkpt lat="48.27712" lon="-4.23655">
        <ele>50.73</ele>
        <time>2022-07-11T07:45:07.327Z</time>
      </trkpt>
      <trkpt lat="48.27712" lon="-4.23666">
        <ele>52.79</ele>
        <time>2022-07-11T07:45:16.570Z</time>
      </trkpt>
      <trkpt lat="48.2771" lon="-4.23678">
        <ele>55.54</ele>
        <time>2022-07-11T07:45:26.000Z</time>
      </trkpt>
      <trkpt lat="48.27709" lon="-4.23688">
        <ele>57.73</ele>
        <time>2022-07-11T07:45:35.351Z</time>
      </trkpt>
      <trkpt lat="48.27705" lon="-4.23698">
        <ele>58.79</ele>
        <time>2022-07-11T07:45:44.693Z</time>
      </trkpt>
      <trkpt lat="48.27703" lon="-4.2371">
        <ele>60.77</ele>
        <time>2022-07-11T07:45:54.130Z</time>
      </trkpt>
      <trkpt lat="48.277" lon="-4.23722">
        <ele>61.79</ele>
        <time>2022-07-11T07:46:03.172Z</time>
      </trkpt>
      <trkpt lat="48.27693" lon="-4.23734">
        <ele>61.04</ele>
        <time>2022-07-11T07:46:12.467Z</time>
      </trkpt>
      <trkpt lat="48.27696" lon="-4.23747">
        <ele>61.79</ele>
        <time>2022-07-11T07:46:22.409Z</time>
      </trkpt>
      <trkpt lat="48.27699" lon="-4.23757">
        <ele>62.79</ele>
        <time>2022-07-11T07:46:32.428Z</time>
      </trkpt>
      <trkpt lat="48.27699" lon="-4.23769">
        <ele>64.77</ele>
        <time>2022-07-11T07:46:42.572Z</time>
      </trkpt>
      <trkpt lat="48.27699" lon="-4.2378">
        <ele>65.79</ele>
        <time>2022-07-11T07:46:52.528Z</time>
      </trkpt>
      <trkpt lat="48.27696" lon="-4.23789">
        <ele>66.77</ele>
        <time>2022-07-11T07:47:02.000Z</time>
      </trkpt>
      <trkpt lat="48.27689" lon="-4.23793">
        <ele>66.79</ele>
        <time>2022-07-11T07:47:11.068Z</time>
      </trkpt>
      <trkpt lat="48.27686" lon="-4.23793">
        <ele>67.04</ele>
        <time>2022-07-11T07:47:20.352Z</time>
      </trkpt>
      <trkpt lat="48.27677" lon="-4.23795">
        <ele>67.73</ele>
        <time>2022-07-11T07:47:29.411Z</time>
      </trkpt>
      <trkpt lat="48.27667" lon="-4.23794">
        <ele>65.79</ele>
        <time>2022-07-11T07:47:39.671Z</time>
      </trkpt>
      <trkpt lat="48.27658" lon="-4.2379">
        <ele>66.79</ele>
        <time>2022-07-11T07:47:49.191Z</time>
      </trkpt>
      <trkpt lat="48.27653" lon="-4.23787">
        <ele>67.79</ele>
        <time>2022-07-11T07:47:58.369Z</time>
      </trkpt>
      <trkpt lat="48.27647" lon="-4.23793">
        <ele>67.79</ele>
        <time>2022-07-11T07:48:07.413Z</time>
      </trkpt>
      <trkpt lat="48.27644" lon="-4.23806">
        <ele>68.78</ele>
        <time>2022-07-11T07:48:16.591Z</time>
      </trkpt>
      <trkpt lat="48.27642" lon="-4.2382">
        <ele>71.77</ele>
        <time>2022-07-11T07:48:26.512Z</time>
      </trkpt>
      <trkpt lat="48.2764" lon="-4.23832">
        <ele>73.77</ele>
        <time>2022-07-11T07:48:36.528Z</time>
      </trkpt>
      <trkpt lat="48.27639" lon="-4.23843">
        <ele>73.79</ele>
        <time>2022-07-11T07:48:46.000Z</time>
      </trkpt>
      <trkpt lat="48.2764" lon="-4.23841">
        <ele>74.79</ele>
        <time>2022-07-11T07:49:05.000Z</time>
      </trkpt>
      <trkpt lat="48.27641" lon="-4.23841">
        <ele>75.54</ele>
        <time>2022-07-11T07:49:36.000Z</time>
      </trkpt>
      <trkpt lat="48.27642" lon="-4.23841">
        <ele>75.79</ele>
        <time>2022-07-11T07:49:46.000Z</time>
      </trkpt>
      <trkpt lat="48.27642" lon="-4.23848">
        <ele>77.73</ele>
        <time>2022-07-11T07:49:55.549Z</time>
      </trkpt>
      <trkpt lat="48.27643" lon="-4.23862">
        <ele>78.77</ele>
        <time>2022-07-11T07:50:05.007Z</time>
      </trkpt>
      <trkpt lat="48.27646" lon="-4.23876">
        <ele>78.79</ele>
        <time>2022-07-11T07:50:14.347Z</time>
      </trkpt>
      <trkpt lat="48.27645" lon="-4.23889">
        <ele>79.77</ele>
        <time>2022-07-11T07:50:23.391Z</time>
      </trkpt>
      <trkpt lat="48.27644" lon="-4.23901">
        <ele>78.79</ele>
        <time>2022-07-11T07:50:32.430Z</time>
      </trkpt>
      <trkpt lat="48.27647" lon="-4.23915">
        <ele>80.77</ele>
        <time>2022-07-11T07:50:41.447Z</time>
      </trkpt>
      <trkpt lat="48.27648" lon="-4.23928">
        <ele>79.85</ele>
        <time>2022-07-11T07:50:50.491Z</time>
      </trkpt>
      <trkpt lat="48.27647" lon="-4.23941">
        <ele>81.79</ele>
        <time>2022-07-11T07:50:59.531Z</time>
      </trkpt>
      <trkpt lat="48.27645" lon="-4.23956">
        <ele>80.79</ele>
        <time>2022-07-11T07:51:09.547Z</time>
      </trkpt>
      <trkpt lat="48.27645" lon="-4.2397">
        <ele>80.79</ele>
        <time>2022-07-11T07:51:19.386Z</time>
      </trkpt>
      <trkpt lat="48.27647" lon="-4.23985">
        <ele>81.79</ele>
        <time>2022-07-11T07:51:29.329Z</time>
      </trkpt>
      <trkpt lat="48.27647" lon="-4.23997">
        <ele>79.85</ele>
        <time>2022-07-11T07:51:38.693Z</time>
      </trkpt>
      <trkpt lat="48.27646" lon="-4.2401">
        <ele>79.79</ele>
        <time>2022-07-11T07:51:48.551Z</time>
      </trkpt>
      <trkpt lat="48.27643" lon="-4.24021">
        <ele>79.77</ele>
        <time>2022-07-11T07:51:58.589Z</time>
      </trkpt>
      <trkpt lat="48.27642" lon="-4.2403">
        <ele>80.79</ele>
        <time>2022-07-11T07:52:08.000Z</time>
      </trkpt>
      <trkpt lat="48.27639" lon="-4.24029">
        <ele>80.79</ele>
        <time>2022-07-11T07:52:17.251Z</time>
      </trkpt>
      <trkpt lat="48.27631" lon="-4.24025">
        <ele>79.79</ele>
        <time>2022-07-11T07:52:27.318Z</time>
      </trkpt>
      <trkpt lat="48.27623" lon="-4.24022">
        <ele>79.79</ele>
        <time>2022-07-11T07:52:37.406Z</time>
      </trkpt>
      <trkpt lat="48.27615" lon="-4.2402">
        <ele>79.79</ele>
        <time>2022-07-11T07:52:46.572Z</time>
      </trkpt>
      <trkpt lat="48.27607" lon="-4.24018">
        <ele>78.79</ele>
        <time>2022-07-11T07:52:56.049Z</time>
      </trkpt>
      <trkpt lat="48.276" lon="-4.24014">
        <ele>79.04</ele>
        <time>2022-07-11T07:53:05.726Z</time>
      </trkpt>
      <trkpt lat="48.27593" lon="-4.24011">
        <ele>78.79</ele>
        <time>2022-07-11T07:53:15.393Z</time>
      </trkpt>
      <trkpt lat="48.27583" lon="-4.24008">
        <ele>79.72</ele>
        <time>2022-07-11T07:53:24.509Z</time>
      </trkpt>
      <trkpt lat="48.27575" lon="-4.24005">
        <ele>79.79</ele>
        <time>2022-07-11T07:53:33.608Z</time>
      </trkpt>
      <trkpt lat="48.27566" lon="-4.24004">
        <ele>80.78</ele>
        <time>2022-07-11T07:53:42.632Z</time>
      </trkpt>
      <trkpt lat="48.27556" lon="-4.24">
        <ele>81.78</ele>
        <time>2022-07-11T07:53:52.207Z</time>
      </trkpt>
      <trkpt lat="48.27547" lon="-4.23998">
        <ele>81.72</ele>
        <time>2022-07-11T07:54:02.593Z</time>
      </trkpt>
      <trkpt lat="48.27538" lon="-4.23995">
        <ele>81.79</ele>
        <time>2022-07-11T07:54:12.708Z</time>
      </trkpt>
      <trkpt lat="48.2753" lon="-4.23995">
        <ele>83.79</ele>
        <time>2022-07-11T07:54:21.711Z</time>
      </trkpt>
      <trkpt lat="48.27525" lon="-4.23994">
        <ele>83.79</ele>
        <time>2022-07-11T07:54:31.231Z</time>
      </trkpt>
      <trkpt lat="48.27522" lon="-4.23992">
        <ele>85.72</ele>
        <time>2022-07-11T07:54:41.250Z</time>
      </trkpt>
      <trkpt lat="48.2751" lon="-4.23987">
        <ele>85.79</ele>
        <time>2022-07-11T07:54:50.666Z</time>
      </trkpt>
      <trkpt lat="48.27501" lon="-4.23983">
        <ele>85.04</ele>
        <time>2022-07-11T07:54:59.932Z</time>
      </trkpt>
      <trkpt lat="48.2749" lon="-4.23982">
        <ele>85.79</ele>
        <time>2022-07-11T07:55:09.368Z</time>
      </trkpt>
      <trkpt lat="48.27481" lon="-4.23978">
        <ele>85.79</ele>
        <time>2022-07-11T07:55:18.611Z</time>
      </trkpt>
      <trkpt lat="48.27471" lon="-4.23973">
        <ele>85.79</ele>
        <time>2022-07-11T07:55:28.452Z</time>
      </trkpt>
      <trkpt lat="48.27463" lon="-4.23973">
        <ele>85.04</ele>
        <time>2022-07-11T07:55:37.591Z</time>
      </trkpt>
      <trkpt lat="48.27455" lon="-4.23969">
        <ele>85.79</ele>
        <time>2022-07-11T07:55:47.008Z</time>
      </trkpt>
      <trkpt lat="48.27448" lon="-4.23967">
        <ele>85.02</ele>
        <time>2022-07-11T07:55:56.411Z</time>
      </trkpt>
      <trkpt lat="48.27437" lon="-4.23962">
        <ele>85.79</ele>
        <time>2022-07-11T07:56:05.532Z</time>
      </trkpt>
      <trkpt lat="48.27428" lon="-4.23957">
        <ele>84.8</ele>
        <time>2022-07-11T07:56:14.687Z</time>
      </trkpt>
      <trkpt lat="48.27418" lon="-4.23955">
        <ele>84.79</ele>
        <time>2022-07-11T07:56:24.131Z</time>
      </trkpt>
      <trkpt lat="48.27407" lon="-4.23955">
        <ele>84.79</ele>
        <time>2022-07-11T07:56:33.332Z</time>
      </trkpt>
      <trkpt lat="48.27397" lon="-4.23951">
        <ele>84.79</ele>
        <time>2022-07-11T07:56:43.488Z</time>
      </trkpt>
      <trkpt lat="48.27388" lon="-4.23947">
        <ele>84.79</ele>
        <time>2022-07-11T07:56:53.331Z</time>
      </trkpt>
      <trkpt lat="48.2738" lon="-4.23946">
        <ele>84.79</ele>
        <time>2022-07-11T07:57:03.312Z</time>
      </trkpt>
      <trkpt lat="48.27369" lon="-4.23944">
        <ele>84.79</ele>
        <time>2022-07-11T07:57:12.673Z</time>
      </trkpt>
      <trkpt lat="48.27358" lon="-4.2394">
        <ele>85.79</ele>
        <time>2022-07-11T07:57:22.451Z</time>
      </trkpt>
      <trkpt lat="48.27347" lon="-4.2394">
        <ele>85.79</ele>
        <time>2022-07-11T07:57:32.451Z</time>
      </trkpt>
      <trkpt lat="48.27338" lon="-4.2394">
        <ele>87.85</ele>
        <time>2022-07-11T07:57:41.706Z</time>
      </trkpt>
      <trkpt lat="48.27329" lon="-4.23941">
        <ele>89.79</ele>
        <time>2022-07-11T07:57:51.029Z</time>
      </trkpt>
      <trkpt lat="48.27317" lon="-4.23943">
        <ele>89.79</ele>
        <time>2022-07-11T07:58:01.468Z</time>
      </trkpt>
      <trkpt lat="48.27309" lon="-4.23942">
        <ele>90.79</ele>
        <time>2022-07-11T07:58:11.352Z</time>
      </trkpt>
      <trkpt lat="48.27303" lon="-4.23936">
        <ele>90.79</ele>
        <time>2022-07-11T07:58:21.000Z</time>
      </trkpt>
      <trkpt lat="48.27303" lon="-4.23935">
        <ele>91.72</ele>
        <time>2022-07-11T07:58:34.730Z</time>
      </trkpt>
      <trkpt lat="48.27296" lon="-4.23932">
        <ele>91.77</ele>
        <time>2022-07-11T07:58:44.169Z</time>
      </trkpt>
      <trkpt lat="48.2729" lon="-4.23933">
        <ele>90.79</ele>
        <time>2022-07-11T07:58:53.493Z</time>
      </trkpt>
      <trkpt lat="48.27279" lon="-4.23931">
        <ele>90.8</ele>
        <time>2022-07-11T07:59:03.283Z</time>
      </trkpt>
      <trkpt lat="48.27272" lon="-4.23927">
        <ele>90.79</ele>
        <time>2022-07-11T07:59:12.569Z</time>
      </trkpt>
      <trkpt lat="48.27267" lon="-4.23922">
        <ele>91.79</ele>
        <time>2022-07-11T07:59:22.569Z</time>
      </trkpt>
      <trkpt lat="48.27261" lon="-4.23917">
        <ele>90.85</ele>
        <time>2022-07-11T07:59:32.112Z</time>
      </trkpt>
      <trkpt lat="48.27252" lon="-4.23913">
        <ele>89.85</ele>
        <time>2022-07-11T07:59:41.587Z</time>
      </trkpt>
      <trkpt lat="48.27244" lon="-4.23909">
        <ele>88.79</ele>
        <time>2022-07-11T07:59:50.671Z</time>
      </trkpt>
      <trkpt lat="48.27237" lon="-4.23909">
        <ele>87.79</ele>
        <time>2022-07-11T08:00:00.280Z</time>
      </trkpt>
      <trkpt lat="48.27229" lon="-4.23909">
        <ele>86.85</ele>
        <time>2022-07-11T08:00:09.328Z</time>
      </trkpt>
      <trkpt lat="48.27221" lon="-4.23905">
        <ele>85.79</ele>
        <time>2022-07-11T08:00:18.331Z</time>
      </trkpt>
      <trkpt lat="48.27213" lon="-4.23902">
        <ele>84.79</ele>
        <time>2022-07-11T08:00:28.289Z</time>
      </trkpt>
      <trkpt lat="48.27204" lon="-4.23902">
        <ele>84.79</ele>
        <time>2022-07-11T08:00:37.324Z</time>
      </trkpt>
      <trkpt lat="48.27191" lon="-4.23912">
        <ele>84.78</ele>
        <time>2022-07-11T08:00:47.228Z</time>
      </trkpt>
      <trkpt lat="48.27181" lon="-4.23911">
        <ele>85.74</ele>
        <time>2022-07-11T08:00:57.228Z</time>
      </trkpt>
      <trkpt lat="48.27177" lon="-4.2391">
        <ele>85.72</ele>
        <time>2022-07-11T08:01:06.230Z</time>
      </trkpt>
      <trkpt lat="48.2717" lon="-4.23909">
        <ele>84.79</ele>
        <time>2022-07-11T08:01:15.709Z</time>
      </trkpt>
      <trkpt lat="48.27161" lon="-4.23908">
        <ele>82.79</ele>
        <time>2022-07-11T08:01:25.254Z</time>
      </trkpt>
      <trkpt lat="48.27155" lon="-4.23907">
        <ele>81.79</ele>
        <time>2022-07-11T08:01:34.629Z</time>
      </trkpt>
      <trkpt lat="48.27148" lon="-4.23905">
        <ele>80.79</ele>
        <time>2022-07-11T08:01:44.000Z</time>
      </trkpt>
      <trkpt lat="48.27147" lon="-4.23905">
        <ele>80.79</ele>
        <time>2022-07-11T08:01:54.000Z</time>
      </trkpt>
      <trkpt lat="48.27147" lon="-4.23903">
        <ele>79.85</ele>
        <time>2022-07-11T08:02:16.000Z</time>
      </trkpt>
      <trkpt lat="48.27147" lon="-4.23901">
        <ele>79.04</ele>
        <time>2022-07-11T08:03:30.000Z</time>
      </trkpt>
      <trkpt lat="48.27146" lon="-4.239">
        <ele>77.79</ele>
        <time>2022-07-11T08:03:40.000Z</time>
      </trkpt>
      <trkpt lat="48.27145" lon="-4.23899">
        <ele>77.79</ele>
        <time>2022-07-11T08:04:43.000Z</time>
      </trkpt>
      <trkpt lat="48.27141" lon="-4.2389">
        <ele>76.79</ele>
        <time>2022-07-11T08:04:52.245Z</time>
      </trkpt>
      <trkpt lat="48.27134" lon="-4.23881">
        <ele>76.79</ele>
        <time>2022-07-11T08:05:01.630Z</time>
      </trkpt>
      <trkpt lat="48.2713" lon="-4.23875">
        <ele>76.79</ele>
        <time>2022-07-11T08:05:10.702Z</time>
      </trkpt>
      <trkpt lat="48.2713" lon="-4.23866">
        <ele>76.79</ele>
        <time>2022-07-11T08:05:20.368Z</time>
      </trkpt>
      <trkpt lat="48.27129" lon="-4.23854">
        <ele>76.79</ele>
        <time>2022-07-11T08:05:30.000Z</time>
      </trkpt>
      <trkpt lat="48.27126" lon="-4.23844">
        <ele>77.79</ele>
        <time>2022-07-11T08:05:39.127Z</time>
      </trkpt>
      <trkpt lat="48.27125" lon="-4.23831">
        <ele>77.79</ele>
        <time>2022-07-11T08:05:48.633Z</time>
      </trkpt>
      <trkpt lat="48.27125" lon="-4.23822">
        <ele>77.79</ele>
        <time>2022-07-11T08:05:57.668Z</time>
      </trkpt>
      <trkpt lat="48.27124" lon="-4.23813">
        <ele>77.98</ele>
        <time>2022-07-11T08:06:06.688Z</time>
      </trkpt>
      <trkpt lat="48.27122" lon="-4.238">
        <ele>76.79</ele>
        <time>2022-07-11T08:06:15.994Z</time>
      </trkpt>
      <trkpt lat="48.27119" lon="-4.2379">
        <ele>76.78</ele>
        <time>2022-07-11T08:06:25.565Z</time>
      </trkpt>
      <trkpt lat="48.27117" lon="-4.23776">
        <ele>76.79</ele>
        <time>2022-07-11T08:06:34.911Z</time>
      </trkpt>
      <trkpt lat="48.27117" lon="-4.23767">
        <ele>77.73</ele>
        <time>2022-07-11T08:06:44.489Z</time>
      </trkpt>
      <trkpt lat="48.27118" lon="-4.23751">
        <ele>78.79</ele>
        <time>2022-07-11T08:06:54.468Z</time>
      </trkpt>
      <trkpt lat="48.27118" lon="-4.23738">
        <ele>78.79</ele>
        <time>2022-07-11T08:07:03.654Z</time>
      </trkpt>
      <trkpt lat="48.27115" lon="-4.23726">
        <ele>78.79</ele>
        <time>2022-07-11T08:07:13.031Z</time>
      </trkpt>
      <trkpt lat="48.27115" lon="-4.23717">
        <ele>78.79</ele>
        <time>2022-07-11T08:07:22.329Z</time>
      </trkpt>
      <trkpt lat="48.27114" lon="-4.23708">
        <ele>79.73</ele>
        <time>2022-07-11T08:07:31.452Z</time>
      </trkpt>
      <trkpt lat="48.27113" lon="-4.23699">
        <ele>79.79</ele>
        <time>2022-07-11T08:07:40.592Z</time>
      </trkpt>
      <trkpt lat="48.27109" lon="-4.23682">
        <ele>81.79</ele>
        <time>2022-07-11T08:07:50.192Z</time>
      </trkpt>
      <trkpt lat="48.27104" lon="-4.23669">
        <ele>82.73</ele>
        <time>2022-07-11T08:07:59.384Z</time>
      </trkpt>
      <trkpt lat="48.271" lon="-4.23663">
        <ele>83.77</ele>
        <time>2022-07-11T08:08:08.387Z</time>
      </trkpt>
      <trkpt lat="48.27096" lon="-4.23652">
        <ele>83.79</ele>
        <time>2022-07-11T08:08:18.390Z</time>
      </trkpt>
      <trkpt lat="48.27091" lon="-4.23639">
        <ele>84.79</ele>
        <time>2022-07-11T08:08:27.701Z</time>
      </trkpt>
      <trkpt lat="48.27088" lon="-4.23629">
        <ele>85.79</ele>
        <time>2022-07-11T08:08:37.111Z</time>
      </trkpt>
      <trkpt lat="48.27087" lon="-4.2362">
        <ele>85.54</ele>
        <time>2022-07-11T08:08:46.206Z</time>
      </trkpt>
      <trkpt lat="48.27085" lon="-4.23614">
        <ele>84.79</ele>
        <time>2022-07-11T08:08:55.328Z</time>
      </trkpt>
      <trkpt lat="48.27083" lon="-4.23604">
        <ele>85.79</ele>
        <time>2022-07-11T08:09:05.467Z</time>
      </trkpt>
      <trkpt lat="48.2708" lon="-4.23591">
        <ele>84.81</ele>
        <time>2022-07-11T08:09:15.717Z</time>
      </trkpt>
      <trkpt lat="48.27077" lon="-4.23581">
        <ele>85.79</ele>
        <time>2022-07-11T08:09:25.288Z</time>
      </trkpt>
      <trkpt lat="48.27071" lon="-4.23571">
        <ele>85.79</ele>
        <time>2022-07-11T08:09:34.509Z</time>
      </trkpt>
      <trkpt lat="48.27067" lon="-4.23563">
        <ele>86.73</ele>
        <time>2022-07-11T08:09:44.190Z</time>
      </trkpt>
      <trkpt lat="48.27065" lon="-4.23554">
        <ele>87.79</ele>
        <time>2022-07-11T08:09:54.667Z</time>
      </trkpt>
      <trkpt lat="48.27062" lon="-4.23542">
        <ele>87.79</ele>
        <time>2022-07-11T08:10:04.211Z</time>
      </trkpt>
      <trkpt lat="48.27058" lon="-4.23527">
        <ele>88.56</ele>
        <time>2022-07-11T08:10:13.231Z</time>
      </trkpt>
      <trkpt lat="48.27057" lon="-4.23523">
        <ele>89.79</ele>
        <time>2022-07-11T08:10:22.446Z</time>
      </trkpt>
      <trkpt lat="48.27056" lon="-4.23518">
        <ele>90.79</ele>
        <time>2022-07-11T08:10:31.610Z</time>
      </trkpt>
      <trkpt lat="48.27054" lon="-4.23511">
        <ele>92.79</ele>
        <time>2022-07-11T08:10:41.168Z</time>
      </trkpt>
      <trkpt lat="48.27051" lon="-4.23502">
        <ele>93.79</ele>
        <time>2022-07-11T08:10:50.632Z</time>
      </trkpt>
      <trkpt lat="48.27049" lon="-4.23494">
        <ele>93.98</ele>
        <time>2022-07-11T08:11:00.000Z</time>
      </trkpt>
      <trkpt lat="48.27048" lon="-4.23487">
        <ele>94.81</ele>
        <time>2022-07-11T08:11:09.367Z</time>
      </trkpt>
      <trkpt lat="48.27049" lon="-4.23481">
        <ele>94.79</ele>
        <time>2022-07-11T08:11:19.000Z</time>
      </trkpt>
      <trkpt lat="48.27049" lon="-4.2348">
        <ele>95.84</ele>
        <time>2022-07-11T08:11:45.000Z</time>
      </trkpt>
      <trkpt lat="48.27042" lon="-4.23473">
        <ele>95.79</ele>
        <time>2022-07-11T08:11:54.283Z</time>
      </trkpt>
      <trkpt lat="48.27033" lon="-4.23469">
        <ele>96.79</ele>
        <time>2022-07-11T08:12:03.693Z</time>
      </trkpt>
      <trkpt lat="48.27022" lon="-4.23471">
        <ele>96.79</ele>
        <time>2022-07-11T08:12:13.012Z</time>
      </trkpt>
      <trkpt lat="48.27013" lon="-4.23476">
        <ele>96.79</ele>
        <time>2022-07-11T08:12:22.491Z</time>
      </trkpt>
      <trkpt lat="48.27008" lon="-4.23473">
        <ele>96.79</ele>
        <time>2022-07-11T08:12:32.650Z</time>
      </trkpt>
      <trkpt lat="48.26998" lon="-4.23471">
        <ele>96.79</ele>
        <time>2022-07-11T08:12:42.553Z</time>
      </trkpt>
      <trkpt lat="48.26989" lon="-4.23472">
        <ele>96.79</ele>
        <time>2022-07-11T08:12:52.708Z</time>
      </trkpt>
      <trkpt lat="48.26979" lon="-4.23473">
        <ele>95.79</ele>
        <time>2022-07-11T08:13:02.453Z</time>
      </trkpt>
      <trkpt lat="48.26975" lon="-4.23472">
        <ele>96.79</ele>
        <time>2022-07-11T08:13:11.508Z</time>
      </trkpt>
      <trkpt lat="48.26964" lon="-4.23471">
        <ele>95.79</ele>
        <time>2022-07-11T08:13:21.226Z</time>
      </trkpt>
      <trkpt lat="48.26956" lon="-4.23471">
        <ele>95.79</ele>
        <time>2022-07-11T08:13:30.571Z</time>
      </trkpt>
      <trkpt lat="48.26947" lon="-4.23471">
        <ele>97.79</ele>
        <time>2022-07-11T08:13:40.168Z</time>
      </trkpt>
      <trkpt lat="48.26937" lon="-4.23472">
        <ele>97.79</ele>
        <time>2022-07-11T08:13:50.315Z</time>
      </trkpt>
      <trkpt lat="48.26931" lon="-4.23473">
        <ele>98.79</ele>
        <time>2022-07-11T08:13:59.447Z</time>
      </trkpt>
      <trkpt lat="48.26926" lon="-4.23474">
        <ele>97.81</ele>
        <time>2022-07-11T08:14:09.127Z</time>
      </trkpt>
      <trkpt lat="48.26917" lon="-4.23473">
        <ele>98.79</ele>
        <time>2022-07-11T08:14:19.290Z</time>
      </trkpt>
      <trkpt lat="48.2691" lon="-4.23474">
        <ele>98.79</ele>
        <time>2022-07-11T08:14:28.550Z</time>
      </trkpt>
      <trkpt lat="48.26902" lon="-4.23477">
        <ele>99.79</ele>
        <time>2022-07-11T08:14:37.552Z</time>
      </trkpt>
      <trkpt lat="48.26896" lon="-4.23479">
        <ele>98.79</ele>
        <time>2022-07-11T08:14:47.277Z</time>
      </trkpt>
      <trkpt lat="48.26887" lon="-4.2348">
        <ele>98.79</ele>
        <time>2022-07-11T08:14:56.514Z</time>
      </trkpt>
      <trkpt lat="48.2688" lon="-4.23479">
        <ele>98.79</ele>
        <time>2022-07-11T08:15:06.048Z</time>
      </trkpt>
      <trkpt lat="48.26873" lon="-4.23478">
        <ele>99.79</ele>
        <time>2022-07-11T08:15:15.650Z</time>
      </trkpt>
      <trkpt lat="48.26863" lon="-4.23477">
        <ele>99.79</ele>
        <time>2022-07-11T08:15:25.347Z</time>
      </trkpt>
      <trkpt lat="48.26852" lon="-4.23479">
        <ele>100.79</ele>
        <time>2022-07-11T08:15:35.000Z</time>
      </trkpt>
      <trkpt lat="48.26846" lon="-4.23477">
        <ele>101.54</ele>
        <time>2022-07-11T08:15:44.412Z</time>
      </trkpt>
      <trkpt lat="48.26836" lon="-4.23476">
        <ele>101.79</ele>
        <time>2022-07-11T08:15:54.491Z</time>
      </trkpt>
      <trkpt lat="48.26827" lon="-4.23479">
        <ele>101.79</ele>
        <time>2022-07-11T08:16:03.668Z</time>
      </trkpt>
      <trkpt lat="48.26819" lon="-4.2348">
        <ele>102.79</ele>
        <time>2022-07-11T08:16:13.491Z</time>
      </trkpt>
      <trkpt lat="48.26808" lon="-4.23479">
        <ele>102.79</ele>
        <time>2022-07-11T08:16:23.610Z</time>
      </trkpt>
      <trkpt lat="48.26798" lon="-4.23478">
        <ele>104.79</ele>
        <time>2022-07-11T08:16:33.410Z</time>
      </trkpt>
      <trkpt lat="48.2679" lon="-4.2348">
        <ele>104.85</ele>
        <time>2022-07-11T08:16:42.450Z</time>
      </trkpt>
      <trkpt lat="48.2678" lon="-4.2348">
        <ele>106.73</ele>
        <time>2022-07-11T08:16:52.369Z</time>
      </trkpt>
      <trkpt lat="48.26771" lon="-4.23483">
        <ele>106.79</ele>
        <time>2022-07-11T08:17:01.669Z</time>
      </trkpt>
      <trkpt lat="48.26763" lon="-4.23481">
        <ele>107.79</ele>
        <time>2022-07-11T08:17:10.995Z</time>
      </trkpt>
      <trkpt lat="48.26756" lon="-4.2347">
        <ele>108.79</ele>
        <time>2022-07-11T08:17:20.409Z</time>
      </trkpt>
      <trkpt lat="48.26752" lon="-4.23459">
        <ele>108.79</ele>
        <time>2022-07-11T08:17:29.429Z</time>
      </trkpt>
      <trkpt lat="48.26748" lon="-4.23448">
        <ele>109.79</ele>
        <time>2022-07-11T08:17:38.714Z</time>
      </trkpt>
      <trkpt lat="48.26744" lon="-4.23435">
        <ele>110.79</ele>
        <time>2022-07-11T08:17:48.509Z</time>
      </trkpt>
      <trkpt lat="48.26741" lon="-4.23423">
        <ele>110.79</ele>
        <time>2022-07-11T08:17:57.564Z</time>
      </trkpt>
      <trkpt lat="48.26736" lon="-4.23411">
        <ele>111.79</ele>
        <time>2022-07-11T08:18:07.253Z</time>
      </trkpt>
      <trkpt lat="48.26732" lon="-4.23398">
        <ele>111.79</ele>
        <time>2022-07-11T08:18:16.669Z</time>
      </trkpt>
      <trkpt lat="48.26727" lon="-4.23388">
        <ele>112.79</ele>
        <time>2022-07-11T08:18:26.031Z</time>
      </trkpt>
      <trkpt lat="48.26723" lon="-4.23377">
        <ele>112.81</ele>
        <time>2022-07-11T08:18:35.285Z</time>
      </trkpt>
      <trkpt lat="48.26716" lon="-4.23371">
        <ele>114.03</ele>
        <time>2022-07-11T08:18:44.450Z</time>
      </trkpt>
      <trkpt lat="48.26713" lon="-4.23357">
        <ele>113.79</ele>
        <time>2022-07-11T08:18:54.190Z</time>
      </trkpt>
      <trkpt lat="48.26708" lon="-4.23343">
        <ele>114.54</ele>
        <time>2022-07-11T08:19:03.352Z</time>
      </trkpt>
      <trkpt lat="48.26705" lon="-4.23331">
        <ele>115.73</ele>
        <time>2022-07-11T08:19:12.409Z</time>
      </trkpt>
      <trkpt lat="48.26701" lon="-4.2332">
        <ele>115.85</ele>
        <time>2022-07-11T08:19:21.509Z</time>
      </trkpt>
      <trkpt lat="48.26697" lon="-4.23308">
        <ele>116.8</ele>
        <time>2022-07-11T08:19:30.589Z</time>
      </trkpt>
      <trkpt lat="48.26691" lon="-4.23301">
        <ele>116.8</ele>
        <time>2022-07-11T08:19:39.706Z</time>
      </trkpt>
      <trkpt lat="48.26683" lon="-4.23309">
        <ele>118.79</ele>
        <time>2022-07-11T08:19:49.053Z</time>
      </trkpt>
      <trkpt lat="48.26681" lon="-4.23321">
        <ele>118.79</ele>
        <time>2022-07-11T08:19:58.469Z</time>
      </trkpt>
      <trkpt lat="48.26676" lon="-4.23328">
        <ele>118.04</ele>
        <time>2022-07-11T08:20:08.372Z</time>
      </trkpt>
      <trkpt lat="48.26671" lon="-4.23343">
        <ele>118.79</ele>
        <time>2022-07-11T08:20:17.655Z</time>
      </trkpt>
      <trkpt lat="48.26665" lon="-4.23354">
        <ele>117.79</ele>
        <time>2022-07-11T08:20:27.708Z</time>
      </trkpt>
      <trkpt lat="48.26657" lon="-4.23367">
        <ele>115.79</ele>
        <time>2022-07-11T08:20:37.267Z</time>
      </trkpt>
      <trkpt lat="48.26652" lon="-4.23379">
        <ele>115.78</ele>
        <time>2022-07-11T08:20:46.631Z</time>
      </trkpt>
      <trkpt lat="48.26649" lon="-4.23389">
        <ele>115.79</ele>
        <time>2022-07-11T08:20:56.527Z</time>
      </trkpt>
      <trkpt lat="48.26645" lon="-4.23403">
        <ele>115.79</ele>
        <time>2022-07-11T08:21:06.487Z</time>
      </trkpt>
      <trkpt lat="48.26644" lon="-4.23412">
        <ele>116.54</ele>
        <time>2022-07-11T08:21:16.466Z</time>
      </trkpt>
      <trkpt lat="48.26643" lon="-4.23427">
        <ele>116.79</ele>
        <time>2022-07-11T08:21:25.627Z</time>
      </trkpt>
      <trkpt lat="48.26637" lon="-4.23438">
        <ele>116.79</ele>
        <time>2022-07-11T08:21:34.724Z</time>
      </trkpt>
      <trkpt lat="48.26629" lon="-4.2345">
        <ele>116.79</ele>
        <time>2022-07-11T08:21:44.552Z</time>
      </trkpt>
      <trkpt lat="48.26624" lon="-4.23464">
        <ele>117.79</ele>
        <time>2022-07-11T08:21:54.000Z</time>
      </trkpt>
      <trkpt lat="48.2662" lon="-4.23474">
        <ele>116.85</ele>
        <time>2022-07-11T08:22:03.008Z</time>
      </trkpt>
      <trkpt lat="48.26614" lon="-4.23485">
        <ele>116.79</ele>
        <time>2022-07-11T08:22:12.247Z</time>
      </trkpt>
      <trkpt lat="48.26606" lon="-4.23496">
        <ele>115.85</ele>
        <time>2022-07-11T08:22:22.487Z</time>
      </trkpt>
      <trkpt lat="48.26599" lon="-4.23511">
        <ele>116.73</ele>
        <time>2022-07-11T08:22:32.087Z</time>
      </trkpt>
      <trkpt lat="48.26594" lon="-4.23522">
        <ele>114.79</ele>
        <time>2022-07-11T08:22:41.211Z</time>
      </trkpt>
      <trkpt lat="48.26589" lon="-4.23532">
        <ele>115.79</ele>
        <time>2022-07-11T08:22:50.229Z</time>
      </trkpt>
      <trkpt lat="48.26587" lon="-4.23539">
        <ele>115.79</ele>
        <time>2022-07-11T08:22:59.426Z</time>
      </trkpt>
      <trkpt lat="48.26582" lon="-4.23552">
        <ele>115.79</ele>
        <time>2022-07-11T08:23:09.468Z</time>
      </trkpt>
      <trkpt lat="48.26574" lon="-4.23567">
        <ele>116.04</ele>
        <time>2022-07-11T08:23:19.027Z</time>
      </trkpt>
      <trkpt lat="48.26568" lon="-4.23579">
        <ele>115.79</ele>
        <time>2022-07-11T08:23:28.071Z</time>
      </trkpt>
      <trkpt lat="48.26562" lon="-4.23591">
        <ele>115.79</ele>
        <time>2022-07-11T08:23:37.367Z</time>
      </trkpt>
      <trkpt lat="48.26556" lon="-4.23604">
        <ele>115.79</ele>
        <time>2022-07-11T08:23:47.409Z</time>
      </trkpt>
      <trkpt lat="48.26556" lon="-4.23622">
        <ele>115.79</ele>
        <time>2022-07-11T08:23:57.491Z</time>
      </trkpt>
      <trkpt lat="48.26563" lon="-4.23633">
        <ele>115.79</ele>
        <time>2022-07-11T08:24:07.091Z</time>
      </trkpt>
      <trkpt lat="48.26569" lon="-4.23638">
        <ele>115.79</ele>
        <time>2022-07-11T08:24:16.189Z</time>
      </trkpt>
      <trkpt lat="48.26574" lon="-4.23646">
        <ele>114.79</ele>
        <time>2022-07-11T08:24:25.466Z</time>
      </trkpt>
      <trkpt lat="48.26582" lon="-4.23656">
        <ele>114.79</ele>
        <time>2022-07-11T08:24:35.535Z</time>
      </trkpt>
      <trkpt lat="48.26589" lon="-4.23665">
        <ele>114.83</ele>
        <time>2022-07-11T08:24:45.000Z</time>
      </trkpt>
      <trkpt lat="48.26595" lon="-4.23672">
        <ele>114.79</ele>
        <time>2022-07-11T08:24:54.352Z</time>
      </trkpt>
      <trkpt lat="48.26605" lon="-4.23681">
        <ele>114.79</ele>
        <time>2022-07-11T08:25:04.350Z</time>
      </trkpt>
      <trkpt lat="48.26612" lon="-4.2369">
        <ele>114.79</ele>
        <time>2022-07-11T08:25:13.553Z</time>
      </trkpt>
      <trkpt lat="48.26618" lon="-4.23698">
        <ele>115.79</ele>
        <time>2022-07-11T08:25:22.626Z</time>
      </trkpt>
      <trkpt lat="48.26624" lon="-4.23707">
        <ele>115.79</ele>
        <time>2022-07-11T08:25:32.674Z</time>
      </trkpt>
      <trkpt lat="48.2663" lon="-4.23716">
        <ele>114.8</ele>
        <time>2022-07-11T08:25:42.253Z</time>
      </trkpt>
      <trkpt lat="48.26639" lon="-4.23726">
        <ele>115.79</ele>
        <time>2022-07-11T08:25:52.309Z</time>
      </trkpt>
      <trkpt lat="48.26648" lon="-4.23735">
        <ele>114.8</ele>
        <time>2022-07-11T08:26:01.393Z</time>
      </trkpt>
      <trkpt lat="48.26656" lon="-4.23746">
        <ele>113.79</ele>
        <time>2022-07-11T08:26:10.508Z</time>
      </trkpt>
      <trkpt lat="48.26663" lon="-4.23755">
        <ele>114.74</ele>
        <time>2022-07-11T08:26:19.607Z</time>
      </trkpt>
      <trkpt lat="48.26663" lon="-4.23771">
        <ele>113.79</ele>
        <time>2022-07-11T08:26:29.235Z</time>
      </trkpt>
      <trkpt lat="48.26661" lon="-4.23785">
        <ele>112.79</ele>
        <time>2022-07-11T08:26:39.291Z</time>
      </trkpt>
      <trkpt lat="48.26658" lon="-4.23801">
        <ele>111.79</ele>
        <time>2022-07-11T08:26:48.472Z</time>
      </trkpt>
      <trkpt lat="48.26653" lon="-4.23815">
        <ele>111.04</ele>
        <time>2022-07-11T08:26:58.000Z</time>
      </trkpt>
      <trkpt lat="48.26649" lon="-4.23828">
        <ele>110.79</ele>
        <time>2022-07-11T08:27:07.433Z</time>
      </trkpt>
      <trkpt lat="48.26646" lon="-4.23843">
        <ele>110.54</ele>
        <time>2022-07-11T08:27:17.000Z</time>
      </trkpt>
      <trkpt lat="48.2664" lon="-4.23855">
        <ele>109.79</ele>
        <time>2022-07-11T08:27:26.291Z</time>
      </trkpt>
      <trkpt lat="48.26634" lon="-4.23869">
        <ele>108.79</ele>
        <time>2022-07-11T08:27:35.730Z</time>
      </trkpt>
      <trkpt lat="48.26629" lon="-4.23884">
        <ele>108.79</ele>
        <time>2022-07-11T08:27:45.530Z</time>
      </trkpt>
      <trkpt lat="48.26627" lon="-4.23897">
        <ele>106.8</ele>
        <time>2022-07-11T08:27:54.689Z</time>
      </trkpt>
      <trkpt lat="48.26628" lon="-4.23909">
        <ele>106.54</ele>
        <time>2022-07-11T08:28:04.000Z</time>
      </trkpt>
      <trkpt lat="48.26628" lon="-4.23912">
        <ele>106.04</ele>
        <time>2022-07-11T08:28:25.247Z</time>
      </trkpt>
      <trkpt lat="48.26625" lon="-4.2393">
        <ele>105.73</ele>
        <time>2022-07-11T08:28:35.288Z</time>
      </trkpt>
      <trkpt lat="48.26625" lon="-4.23943">
        <ele>104.79</ele>
        <time>2022-07-11T08:28:44.410Z</time>
      </trkpt>
      <trkpt lat="48.26625" lon="-4.23958">
        <ele>100.85</ele>
        <time>2022-07-11T08:28:54.293Z</time>
      </trkpt>
      <trkpt lat="48.26625" lon="-4.23973">
        <ele>99.85</ele>
        <time>2022-07-11T08:29:03.451Z</time>
      </trkpt>
      <trkpt lat="48.26628" lon="-4.23987">
        <ele>98.79</ele>
        <time>2022-07-11T08:29:13.369Z</time>
      </trkpt>
      <trkpt lat="48.2663" lon="-4.24001">
        <ele>98.72</ele>
        <time>2022-07-11T08:29:22.537Z</time>
      </trkpt>
      <trkpt lat="48.26632" lon="-4.24013">
        <ele>99.72</ele>
        <time>2022-07-11T08:29:32.125Z</time>
      </trkpt>
      <trkpt lat="48.26633" lon="-4.24027">
        <ele>99.79</ele>
        <time>2022-07-11T08:29:41.634Z</time>
      </trkpt>
      <trkpt lat="48.26636" lon="-4.24044">
        <ele>99.8</ele>
        <time>2022-07-11T08:29:51.250Z</time>
      </trkpt>
      <trkpt lat="48.26641" lon="-4.2406">
        <ele>98.6</ele>
        <time>2022-07-11T08:30:01.000Z</time>
      </trkpt>
      <trkpt lat="48.26643" lon="-4.24072">
        <ele>97.8</ele>
        <time>2022-07-11T08:30:10.507Z</time>
      </trkpt>
      <trkpt lat="48.26645" lon="-4.24087">
        <ele>96.79</ele>
        <time>2022-07-11T08:30:20.188Z</time>
      </trkpt>
      <trkpt lat="48.26648" lon="-4.241">
        <ele>96.79</ele>
        <time>2022-07-11T08:30:29.233Z</time>
      </trkpt>
      <trkpt lat="48.26648" lon="-4.24102">
        <ele>96.79</ele>
        <time>2022-07-11T08:30:39.000Z</time>
      </trkpt>
      <trkpt lat="48.2665" lon="-4.24102">
        <ele>95.85</ele>
        <time>2022-07-11T08:30:54.000Z</time>
      </trkpt>
      <trkpt lat="48.2665" lon="-4.24104">
        <ele>94.79</ele>
        <time>2022-07-11T08:31:04.288Z</time>
      </trkpt>
      <trkpt lat="48.2665" lon="-4.24117">
        <ele>94.79</ele>
        <time>2022-07-11T08:31:14.000Z</time>
      </trkpt>
      <trkpt lat="48.26651" lon="-4.24129">
        <ele>93.79</ele>
        <time>2022-07-11T08:31:23.311Z</time>
      </trkpt>
      <trkpt lat="48.26653" lon="-4.24143">
        <ele>92.8</ele>
        <time>2022-07-11T08:31:32.609Z</time>
      </trkpt>
      <trkpt lat="48.26652" lon="-4.24157">
        <ele>92.79</ele>
        <time>2022-07-11T08:31:42.429Z</time>
      </trkpt>
      <trkpt lat="48.26651" lon="-4.24172">
        <ele>91.79</ele>
        <time>2022-07-11T08:31:52.432Z</time>
      </trkpt>
      <trkpt lat="48.26652" lon="-4.24185">
        <ele>89.79</ele>
        <time>2022-07-11T08:32:02.292Z</time>
      </trkpt>
      <trkpt lat="48.26652" lon="-4.24198">
        <ele>89.02</ele>
        <time>2022-07-11T08:32:11.686Z</time>
      </trkpt>
      <trkpt lat="48.26654" lon="-4.24204">
        <ele>87.79</ele>
        <time>2022-07-11T08:32:21.130Z</time>
      </trkpt>
      <trkpt lat="48.26656" lon="-4.24213">
        <ele>86.04</ele>
        <time>2022-07-11T08:32:30.611Z</time>
      </trkpt>
      <trkpt lat="48.26657" lon="-4.2423">
        <ele>84.79</ele>
        <time>2022-07-11T08:32:40.000Z</time>
      </trkpt>
      <trkpt lat="48.26658" lon="-4.24245">
        <ele>83.79</ele>
        <time>2022-07-11T08:32:49.527Z</time>
      </trkpt>
      <trkpt lat="48.26656" lon="-4.24256">
        <ele>82.8</ele>
        <time>2022-07-11T08:32:59.000Z</time>
      </trkpt>
      <trkpt lat="48.26655" lon="-4.24265">
        <ele>81.85</ele>
        <time>2022-07-11T08:33:08.150Z</time>
      </trkpt>
      <trkpt lat="48.26654" lon="-4.24278">
        <ele>80.8</ele>
        <time>2022-07-11T08:33:17.507Z</time>
      </trkpt>
      <trkpt lat="48.26653" lon="-4.24292">
        <ele>80.78</ele>
        <time>2022-07-11T08:33:26.934Z</time>
      </trkpt>
      <trkpt lat="48.26654" lon="-4.24304">
        <ele>79.03</ele>
        <time>2022-07-11T08:33:36.313Z</time>
      </trkpt>
      <trkpt lat="48.26657" lon="-4.24318">
        <ele>77.78</ele>
        <time>2022-07-11T08:33:45.367Z</time>
      </trkpt>
      <trkpt lat="48.26657" lon="-4.24333">
        <ele>73.85</ele>
        <time>2022-07-11T08:33:54.611Z</time>
      </trkpt>
      <trkpt lat="48.26655" lon="-4.24345">
        <ele>71.03</ele>
        <time>2022-07-11T08:34:04.190Z</time>
      </trkpt>
      <trkpt lat="48.26655" lon="-4.24364">
        <ele>69.78</ele>
        <time>2022-07-11T08:34:14.000Z</time>
      </trkpt>
      <trkpt lat="48.26654" lon="-4.24377">
        <ele>69.78</ele>
        <time>2022-07-11T08:34:23.335Z</time>
      </trkpt>
      <trkpt lat="48.26653" lon="-4.24393">
        <ele>70.78</ele>
        <time>2022-07-11T08:34:33.030Z</time>
      </trkpt>
      <trkpt lat="48.26655" lon="-4.24409">
        <ele>69.78</ele>
        <time>2022-07-11T08:34:42.689Z</time>
      </trkpt>
      <trkpt lat="48.26655" lon="-4.24419">
        <ele>68.79</ele>
        <time>2022-07-11T08:34:52.546Z</time>
      </trkpt>
      <trkpt lat="48.26655" lon="-4.24437">
        <ele>66.8</ele>
        <time>2022-07-11T08:35:02.305Z</time>
      </trkpt>
      <trkpt lat="48.26657" lon="-4.24452">
        <ele>64.79</ele>
        <time>2022-07-11T08:35:11.308Z</time>
      </trkpt>
      <trkpt lat="48.26659" lon="-4.24472">
        <ele>63.78</ele>
        <time>2022-07-11T08:35:21.285Z</time>
      </trkpt>
      <trkpt lat="48.2666" lon="-4.24484">
        <ele>62.74</ele>
        <time>2022-07-11T08:35:31.000Z</time>
      </trkpt>
      <trkpt lat="48.2666" lon="-4.24495">
        <ele>62.77</ele>
        <time>2022-07-11T08:35:40.573Z</time>
      </trkpt>
      <trkpt lat="48.26661" lon="-4.2451">
        <ele>61.83</ele>
        <time>2022-07-11T08:35:50.000Z</time>
      </trkpt>
      <trkpt lat="48.2666" lon="-4.24523">
        <ele>60.78</ele>
        <time>2022-07-11T08:36:00.000Z</time>
      </trkpt>
      <trkpt lat="48.26659" lon="-4.24533">
        <ele>59.78</ele>
        <time>2022-07-11T08:36:09.514Z</time>
      </trkpt>
      <trkpt lat="48.26661" lon="-4.24538">
        <ele>57.8</ele>
        <time>2022-07-11T08:36:19.000Z</time>
      </trkpt>
      <trkpt lat="48.26665" lon="-4.24537">
        <ele>58.72</ele>
        <time>2022-07-11T08:36:28.211Z</time>
      </trkpt>
      <trkpt lat="48.26671" lon="-4.24543">
        <ele>57.78</ele>
        <time>2022-07-11T08:36:38.295Z</time>
      </trkpt>
      <trkpt lat="48.26673" lon="-4.24551">
        <ele>57.78</ele>
        <time>2022-07-11T08:36:47.630Z</time>
      </trkpt>
      <trkpt lat="48.26675" lon="-4.24561">
        <ele>56.78</ele>
        <time>2022-07-11T08:36:57.091Z</time>
      </trkpt>
      <trkpt lat="48.26678" lon="-4.24574">
        <ele>55.78</ele>
        <time>2022-07-11T08:37:07.169Z</time>
      </trkpt>
      <trkpt lat="48.26681" lon="-4.24581">
        <ele>54.78</ele>
        <time>2022-07-11T08:37:16.509Z</time>
      </trkpt>
      <trkpt lat="48.26683" lon="-4.24588">
        <ele>53.84</ele>
        <time>2022-07-11T08:37:26.470Z</time>
      </trkpt>
      <trkpt lat="48.26685" lon="-4.246">
        <ele>52.78</ele>
        <time>2022-07-11T08:37:36.287Z</time>
      </trkpt>
      <trkpt lat="48.26684" lon="-4.24609">
        <ele>51.78</ele>
        <time>2022-07-11T08:37:46.333Z</time>
      </trkpt>
      <trkpt lat="48.26682" lon="-4.24621">
        <ele>49.8</ele>
        <time>2022-07-11T08:37:55.647Z</time>
      </trkpt>
      <trkpt lat="48.26679" lon="-4.24633">
        <ele>47.84</ele>
        <time>2022-07-11T08:38:05.431Z</time>
      </trkpt>
      <trkpt lat="48.26669" lon="-4.24645">
        <ele>45.78</ele>
        <time>2022-07-11T08:38:15.247Z</time>
      </trkpt>
      <trkpt lat="48.26663" lon="-4.24659">
        <ele>44.78</ele>
        <time>2022-07-11T08:38:25.288Z</time>
      </trkpt>
      <trkpt lat="48.26658" lon="-4.24665">
        <ele>42.78</ele>
        <time>2022-07-11T08:38:34.408Z</time>
      </trkpt>
      <trkpt lat="48.26653" lon="-4.24672">
        <ele>40.84</ele>
        <time>2022-07-11T08:38:44.247Z</time>
      </trkpt>
      <trkpt lat="48.26647" lon="-4.24681">
        <ele>40.78</ele>
        <time>2022-07-11T08:38:53.329Z</time>
      </trkpt>
      <trkpt lat="48.26642" lon="-4.24691">
        <ele>39.78</ele>
        <time>2022-07-11T08:39:02.490Z</time>
      </trkpt>
      <trkpt lat="48.26636" lon="-4.24706">
        <ele>39.78</ele>
        <time>2022-07-11T08:39:12.349Z</time>
      </trkpt>
      <trkpt lat="48.26634" lon="-4.24722">
        <ele>38.84</ele>
        <time>2022-07-11T08:39:21.454Z</time>
      </trkpt>
      <trkpt lat="48.26635" lon="-4.24738">
        <ele>37.78</ele>
        <time>2022-07-11T08:39:30.691Z</time>
      </trkpt>
      <trkpt lat="48.26633" lon="-4.2475">
        <ele>38.72</ele>
        <time>2022-07-11T08:39:39.848Z</time>
      </trkpt>
      <trkpt lat="48.26632" lon="-4.24764">
        <ele>38.78</ele>
        <time>2022-07-11T08:39:49.000Z</time>
      </trkpt>
      <trkpt lat="48.2663" lon="-4.24774">
        <ele>37.78</ele>
        <time>2022-07-11T08:39:58.107Z</time>
      </trkpt>
      <trkpt lat="48.2663" lon="-4.24785">
        <ele>38.72</ele>
        <time>2022-07-11T08:40:07.468Z</time>
      </trkpt>
      <trkpt lat="48.26629" lon="-4.24795">
        <ele>38.72</ele>
        <time>2022-07-11T08:40:16.492Z</time>
      </trkpt>
      <trkpt lat="48.26631" lon="-4.24806">
        <ele>38.78</ele>
        <time>2022-07-11T08:40:25.972Z</time>
      </trkpt>
      <trkpt lat="48.26632" lon="-4.24812">
        <ele>36.78</ele>
        <time>2022-07-11T08:40:35.000Z</time>
      </trkpt>
      <trkpt lat="48.26633" lon="-4.24815">
        <ele>36.78</ele>
        <time>2022-07-11T08:40:45.000Z</time>
      </trkpt>
      <trkpt lat="48.26634" lon="-4.2482">
        <ele>34.78</ele>
        <time>2022-07-11T08:40:54.314Z</time>
      </trkpt>
      <trkpt lat="48.26636" lon="-4.2483">
        <ele>36.78</ele>
        <time>2022-07-11T08:41:03.635Z</time>
      </trkpt>
      <trkpt lat="48.26638" lon="-4.24846">
        <ele>37.78</ele>
        <time>2022-07-11T08:41:13.280Z</time>
      </trkpt>
      <trkpt lat="48.26641" lon="-4.24851">
        <ele>37.78</ele>
        <time>2022-07-11T08:41:23.000Z</time>
      </trkpt>
      <trkpt lat="48.26641" lon="-4.24853">
        <ele>37.78</ele>
        <time>2022-07-11T08:41:33.000Z</time>
      </trkpt>
      <trkpt lat="48.26642" lon="-4.24858">
        <ele>36.78</ele>
        <time>2022-07-11T08:41:42.131Z</time>
      </trkpt>
      <trkpt lat="48.26645" lon="-4.24868">
        <ele>37.78</ele>
        <time>2022-07-11T08:41:51.709Z</time>
      </trkpt>
      <trkpt lat="48.26647" lon="-4.24881">
        <ele>37.78</ele>
        <time>2022-07-11T08:42:01.053Z</time>
      </trkpt>
      <trkpt lat="48.26651" lon="-4.24895">
        <ele>37.78</ele>
        <time>2022-07-11T08:42:10.429Z</time>
      </trkpt>
      <trkpt lat="48.26653" lon="-4.24901">
        <ele>36.78</ele>
        <time>2022-07-11T08:42:20.510Z</time>
      </trkpt>
      <trkpt lat="48.2666" lon="-4.24913">
        <ele>37.78</ele>
        <time>2022-07-11T08:42:30.605Z</time>
      </trkpt>
      <trkpt lat="48.26662" lon="-4.2492">
        <ele>37.78</ele>
        <time>2022-07-11T08:42:40.352Z</time>
      </trkpt>
      <trkpt lat="48.26666" lon="-4.24929">
        <ele>37.03</ele>
        <time>2022-07-11T08:42:49.489Z</time>
      </trkpt>
      <trkpt lat="48.2667" lon="-4.24937">
        <ele>38.78</ele>
        <time>2022-07-11T08:42:58.550Z</time>
      </trkpt>
      <trkpt lat="48.26678" lon="-4.24951">
        <ele>38.78</ele>
        <time>2022-07-11T08:43:08.507Z</time>
      </trkpt>
      <trkpt lat="48.2668" lon="-4.24957">
        <ele>39.78</ele>
        <time>2022-07-11T08:43:17.612Z</time>
      </trkpt>
      <trkpt lat="48.26684" lon="-4.24966">
        <ele>39.78</ele>
        <time>2022-07-11T08:43:27.455Z</time>
      </trkpt>
      <trkpt lat="48.26691" lon="-4.24975">
        <ele>39.78</ele>
        <time>2022-07-11T08:43:36.487Z</time>
      </trkpt>
      <trkpt lat="48.26695" lon="-4.24986">
        <ele>39.78</ele>
        <time>2022-07-11T08:43:45.527Z</time>
      </trkpt>
      <trkpt lat="48.26701" lon="-4.24995">
        <ele>39.78</ele>
        <time>2022-07-11T08:43:54.651Z</time>
      </trkpt>
      <trkpt lat="48.26707" lon="-4.25005">
        <ele>40.59</ele>
        <time>2022-07-11T08:44:04.074Z</time>
      </trkpt>
      <trkpt lat="48.26712" lon="-4.25017">
        <ele>40.78</ele>
        <time>2022-07-11T08:44:13.713Z</time>
      </trkpt>
      <trkpt lat="48.26718" lon="-4.25024">
        <ele>40.78</ele>
        <time>2022-07-11T08:44:23.496Z</time>
      </trkpt>
      <trkpt lat="48.26724" lon="-4.25035">
        <ele>39.79</ele>
        <time>2022-07-11T08:44:33.432Z</time>
      </trkpt>
      <trkpt lat="48.26731" lon="-4.25044">
        <ele>38.78</ele>
        <time>2022-07-11T08:44:42.732Z</time>
      </trkpt>
      <trkpt lat="48.2674" lon="-4.25054">
        <ele>38.78</ele>
        <time>2022-07-11T08:44:52.307Z</time>
      </trkpt>
      <trkpt lat="48.26747" lon="-4.25062">
        <ele>38.78</ele>
        <time>2022-07-11T08:45:01.386Z</time>
      </trkpt>
      <trkpt lat="48.26752" lon="-4.25074">
        <ele>38.78</ele>
        <time>2022-07-11T08:45:10.509Z</time>
      </trkpt>
      <trkpt lat="48.26757" lon="-4.25086">
        <ele>38.78</ele>
        <time>2022-07-11T08:45:20.345Z</time>
      </trkpt>
      <trkpt lat="48.26758" lon="-4.25088">
        <ele>38.78</ele>
        <time>2022-07-11T08:45:30.000Z</time>
      </trkpt>
      <trkpt lat="48.26761" lon="-4.25089">
        <ele>40.83</ele>
        <time>2022-07-11T08:45:40.000Z</time>
      </trkpt>
      <trkpt lat="48.26763" lon="-4.2509">
        <ele>40.78</ele>
        <time>2022-07-11T08:45:50.000Z</time>
      </trkpt>
      <trkpt lat="48.26765" lon="-4.25095">
        <ele>42.78</ele>
        <time>2022-07-11T08:46:00.000Z</time>
      </trkpt>
      <trkpt lat="48.26766" lon="-4.25096">
        <ele>42.78</ele>
        <time>2022-07-11T08:46:10.000Z</time>
      </trkpt>
      <trkpt lat="48.26767" lon="-4.25097">
        <ele>42.78</ele>
        <time>2022-07-11T08:46:20.000Z</time>
      </trkpt>
      <trkpt lat="48.26769" lon="-4.251">
        <ele>41.78</ele>
        <time>2022-07-11T08:46:30.000Z</time>
      </trkpt>
      <trkpt lat="48.2677" lon="-4.25101">
        <ele>39.34</ele>
        <time>2022-07-11T08:46:51.000Z</time>
      </trkpt>
      <trkpt lat="48.26772" lon="-4.25102">
        <ele>38.03</ele>
        <time>2022-07-11T08:47:51.000Z</time>
      </trkpt>
      <trkpt lat="48.26772" lon="-4.25104">
        <ele>37.78</ele>
        <time>2022-07-11T08:48:01.000Z</time>
      </trkpt>
      <trkpt lat="48.26772" lon="-4.25106">
        <ele>37.78</ele>
        <time>2022-07-11T08:48:11.000Z</time>
      </trkpt>
      <trkpt lat="48.26772" lon="-4.25112">
        <ele>36.84</ele>
        <time>2022-07-11T08:48:21.000Z</time>
      </trkpt>
      <trkpt lat="48.26773" lon="-4.25117">
        <ele>35.78</ele>
        <time>2022-07-11T08:48:31.000Z</time>
      </trkpt>
      <trkpt lat="48.26774" lon="-4.25116">
        <ele>35.78</ele>
        <time>2022-07-11T08:48:41.000Z</time>
      </trkpt>
      <trkpt lat="48.26775" lon="-4.25116">
        <ele>35.78</ele>
        <time>2022-07-11T08:48:51.000Z</time>
      </trkpt>
      <trkpt lat="48.26776" lon="-4.25115">
        <ele>34.28</ele>
        <time>2022-07-11T08:49:23.000Z</time>
      </trkpt>
      <trkpt lat="48.26777" lon="-4.25116">
        <ele>34.78</ele>
        <time>2022-07-11T08:49:34.000Z</time>
      </trkpt>
      <trkpt lat="48.26779" lon="-4.25111">
        <ele>32.78</ele>
        <time>2022-07-11T08:49:44.000Z</time>
      </trkpt>
      <trkpt lat="48.26778" lon="-4.25108">
        <ele>33.78</ele>
        <time>2022-07-11T08:49:54.000Z</time>
      </trkpt>
      <trkpt lat="48.26779" lon="-4.25107">
        <ele>33.78</ele>
        <time>2022-07-11T08:50:14.000Z</time>
      </trkpt>
      <trkpt lat="48.26778" lon="-4.25103">
        <ele>33.77</ele>
        <time>2022-07-11T08:50:24.000Z</time>
      </trkpt>
      <trkpt lat="48.26778" lon="-4.25101">
        <ele>35.76</ele>
        <time>2022-07-11T08:51:11.000Z</time>
      </trkpt>
      <trkpt lat="48.26776" lon="-4.25103">
        <ele>35.78</ele>
        <time>2022-07-11T08:51:42.000Z</time>
      </trkpt>
      <trkpt lat="48.26775" lon="-4.25104">
        <ele>36.28</ele>
        <time>2022-07-11T08:52:45.000Z</time>
      </trkpt>
      <trkpt lat="48.26774" lon="-4.25104">
        <ele>36.78</ele>
        <time>2022-07-11T08:55:11.000Z</time>
      </trkpt>
      <trkpt lat="48.26775" lon="-4.25106">
        <ele>38.78</ele>
        <time>2022-07-11T08:57:12.000Z</time>
      </trkpt>
      <trkpt lat="48.26776" lon="-4.25106">
        <ele>38.78</ele>
        <time>2022-07-11T08:57:23.000Z</time>
      </trkpt>
      <trkpt lat="48.26782" lon="-4.25112">
        <ele>38.73</ele>
        <time>2022-07-11T08:57:33.000Z</time>
      </trkpt>
      <trkpt lat="48.26786" lon="-4.25123">
        <ele>37.78</ele>
        <time>2022-07-11T08:57:43.000Z</time>
      </trkpt>
      <trkpt lat="48.26792" lon="-4.25132">
        <ele>35.78</ele>
        <time>2022-07-11T08:57:53.000Z</time>
      </trkpt>
      <trkpt lat="48.26793" lon="-4.25143">
        <ele>36.78</ele>
        <time>2022-07-11T08:58:02.110Z</time>
      </trkpt>
      <trkpt lat="48.26797" lon="-4.2515">
        <ele>36.78</ele>
        <time>2022-07-11T08:58:12.367Z</time>
      </trkpt>
      <trkpt lat="48.268" lon="-4.25157">
        <ele>37.78</ele>
        <time>2022-07-11T08:58:21.672Z</time>
      </trkpt>
      <trkpt lat="48.26803" lon="-4.25168">
        <ele>38.78</ele>
        <time>2022-07-11T08:58:31.406Z</time>
      </trkpt>
      <trkpt lat="48.26807" lon="-4.25179">
        <ele>38.03</ele>
        <time>2022-07-11T08:58:41.150Z</time>
      </trkpt>
      <trkpt lat="48.2681" lon="-4.25186">
        <ele>37.78</ele>
        <time>2022-07-11T08:58:50.513Z</time>
      </trkpt>
      <trkpt lat="48.26817" lon="-4.25197">
        <ele>37.78</ele>
        <time>2022-07-11T08:59:00.473Z</time>
      </trkpt>
      <trkpt lat="48.2682" lon="-4.25213">
        <ele>36.78</ele>
        <time>2022-07-11T08:59:10.470Z</time>
      </trkpt>
      <trkpt lat="48.26822" lon="-4.25224">
        <ele>36.03</ele>
        <time>2022-07-11T08:59:19.706Z</time>
      </trkpt>
      <trkpt lat="48.26827" lon="-4.25239">
        <ele>35.78</ele>
        <time>2022-07-11T08:59:29.051Z</time>
      </trkpt>
      <trkpt lat="48.26832" lon="-4.25248">
        <ele>35.78</ele>
        <time>2022-07-11T08:59:38.253Z</time>
      </trkpt>
      <trkpt lat="48.26837" lon="-4.25256">
        <ele>35.78</ele>
        <time>2022-07-11T08:59:47.372Z</time>
      </trkpt>
      <trkpt lat="48.2684" lon="-4.25264">
        <ele>35.78</ele>
        <time>2022-07-11T08:59:56.430Z</time>
      </trkpt>
      <trkpt lat="48.26844" lon="-4.25276">
        <ele>35.78</ele>
        <time>2022-07-11T09:00:05.446Z</time>
      </trkpt>
      <trkpt lat="48.26847" lon="-4.25288">
        <ele>34.78</ele>
        <time>2022-07-11T09:00:15.531Z</time>
      </trkpt>
      <trkpt lat="48.26851" lon="-4.25302">
        <ele>34.53</ele>
        <time>2022-07-11T09:00:24.925Z</time>
      </trkpt>
      <trkpt lat="48.26859" lon="-4.25313">
        <ele>34.78</ele>
        <time>2022-07-11T09:00:34.449Z</time>
      </trkpt>
      <trkpt lat="48.26863" lon="-4.25324">
        <ele>34.78</ele>
        <time>2022-07-11T09:00:44.552Z</time>
      </trkpt>
      <trkpt lat="48.26867" lon="-4.2534">
        <ele>33.78</ele>
        <time>2022-07-11T09:00:54.471Z</time>
      </trkpt>
      <trkpt lat="48.26872" lon="-4.2535">
        <ele>34.78</ele>
        <time>2022-07-11T09:01:03.889Z</time>
      </trkpt>
      <trkpt lat="48.2688" lon="-4.25357">
        <ele>27.04</ele>
        <time>2022-07-11T09:01:13.352Z</time>
      </trkpt>
      <trkpt lat="48.2689" lon="-4.25365">
        <ele>25.78</ele>
        <time>2022-07-11T09:01:23.194Z</time>
      </trkpt>
      <trkpt lat="48.26893" lon="-4.25391">
        <ele>24.84</ele>
        <time>2022-07-11T09:01:32.506Z</time>
      </trkpt>
      <trkpt lat="48.26892" lon="-4.25418">
        <ele>27.77</ele>
        <time>2022-07-11T09:01:42.000Z</time>
      </trkpt>
      <trkpt lat="48.26895" lon="-4.25434">
        <ele>29.76</ele>
        <time>2022-07-11T09:01:52.186Z</time>
      </trkpt>
      <trkpt lat="48.269" lon="-4.25446">
        <ele>30.78</ele>
        <time>2022-07-11T09:02:01.668Z</time>
      </trkpt>
      <trkpt lat="48.26903" lon="-4.25464">
        <ele>29.78</ele>
        <time>2022-07-11T09:02:11.546Z</time>
      </trkpt>
      <trkpt lat="48.26907" lon="-4.25478">
        <ele>28.03</ele>
        <time>2022-07-11T09:02:21.448Z</time>
      </trkpt>
      <trkpt lat="48.26914" lon="-4.25485">
        <ele>20.79</ele>
        <time>2022-07-11T09:02:31.229Z</time>
      </trkpt>
      <trkpt lat="48.26917" lon="-4.25501">
        <ele>21.77</ele>
        <time>2022-07-11T09:02:41.000Z</time>
      </trkpt>
      <trkpt lat="48.26917" lon="-4.2552">
        <ele>20.78</ele>
        <time>2022-07-11T09:02:50.106Z</time>
      </trkpt>
      <trkpt lat="48.26919" lon="-4.25531">
        <ele>21.78</ele>
        <time>2022-07-11T09:03:00.000Z</time>
      </trkpt>
      <trkpt lat="48.2692" lon="-4.25545">
        <ele>22.71</ele>
        <time>2022-07-11T09:03:10.000Z</time>
      </trkpt>
      <trkpt lat="48.2692" lon="-4.25562">
        <ele>21.79</ele>
        <time>2022-07-11T09:03:19.490Z</time>
      </trkpt>
      <trkpt lat="48.26924" lon="-4.25578">
        <ele>21.77</ele>
        <time>2022-07-11T09:03:29.410Z</time>
      </trkpt>
      <trkpt lat="48.2693" lon="-4.25587">
        <ele>21.76</ele>
        <time>2022-07-11T09:03:39.389Z</time>
      </trkpt>
      <trkpt lat="48.26935" lon="-4.25595">
        <ele>21.77</ele>
        <time>2022-07-11T09:03:49.193Z</time>
      </trkpt>
      <trkpt lat="48.26938" lon="-4.25609">
        <ele>21.76</ele>
        <time>2022-07-11T09:03:58.467Z</time>
      </trkpt>
      <trkpt lat="48.2694" lon="-4.25623">
        <ele>22.77</ele>
        <time>2022-07-11T09:04:07.590Z</time>
      </trkpt>
      <trkpt lat="48.26943" lon="-4.25632">
        <ele>21.77</ele>
        <time>2022-07-11T09:04:16.929Z</time>
      </trkpt>
      <trkpt lat="48.26945" lon="-4.25645">
        <ele>21.54</ele>
        <time>2022-07-11T09:04:26.000Z</time>
      </trkpt>
      <trkpt lat="48.2695" lon="-4.25655">
        <ele>21.77</ele>
        <time>2022-07-11T09:04:35.032Z</time>
      </trkpt>
      <trkpt lat="48.26953" lon="-4.25671">
        <ele>22.77</ele>
        <time>2022-07-11T09:04:44.308Z</time>
      </trkpt>
      <trkpt lat="48.26954" lon="-4.25689">
        <ele>23.77</ele>
        <time>2022-07-11T09:04:53.449Z</time>
      </trkpt>
      <trkpt lat="48.26957" lon="-4.25704">
        <ele>23.78</ele>
        <time>2022-07-11T09:05:03.280Z</time>
      </trkpt>
      <trkpt lat="48.26963" lon="-4.25715">
        <ele>22.79</ele>
        <time>2022-07-11T09:05:12.611Z</time>
      </trkpt>
      <trkpt lat="48.26966" lon="-4.25726">
        <ele>23.02</ele>
        <time>2022-07-11T09:05:22.447Z</time>
      </trkpt>
      <trkpt lat="48.26967" lon="-4.2574">
        <ele>22.83</ele>
        <time>2022-07-11T09:05:32.289Z</time>
      </trkpt>
      <trkpt lat="48.26969" lon="-4.25762">
        <ele>22.77</ele>
        <time>2022-07-11T09:05:42.533Z</time>
      </trkpt>
      <trkpt lat="48.2697" lon="-4.25776">
        <ele>23.52</ele>
        <time>2022-07-11T09:05:51.745Z</time>
      </trkpt>
      <trkpt lat="48.2697" lon="-4.25791">
        <ele>25.77</ele>
        <time>2022-07-11T09:06:01.591Z</time>
      </trkpt>
      <trkpt lat="48.2697" lon="-4.25814">
        <ele>27.77</ele>
        <time>2022-07-11T09:06:11.285Z</time>
      </trkpt>
      <trkpt lat="48.2697" lon="-4.25831">
        <ele>27.77</ele>
        <time>2022-07-11T09:06:21.470Z</time>
      </trkpt>
      <trkpt lat="48.26972" lon="-4.2585">
        <ele>29.76</ele>
        <time>2022-07-11T09:06:31.388Z</time>
      </trkpt>
      <trkpt lat="48.26976" lon="-4.25867">
        <ele>31.77</ele>
        <time>2022-07-11T09:06:41.367Z</time>
      </trkpt>
      <trkpt lat="48.2698" lon="-4.25881">
        <ele>33.52</ele>
        <time>2022-07-11T09:06:51.000Z</time>
      </trkpt>
      <trkpt lat="48.26984" lon="-4.25891">
        <ele>33.77</ele>
        <time>2022-07-11T09:07:00.307Z</time>
      </trkpt>
      <trkpt lat="48.2699" lon="-4.25906">
        <ele>35.83</ele>
        <time>2022-07-11T09:07:10.449Z</time>
      </trkpt>
      <trkpt lat="48.2699" lon="-4.25915">
        <ele>36.77</ele>
        <time>2022-07-11T09:07:19.466Z</time>
      </trkpt>
      <trkpt lat="48.26993" lon="-4.25925">
        <ele>36.77</ele>
        <time>2022-07-11T09:07:29.590Z</time>
      </trkpt>
      <trkpt lat="48.26996" lon="-4.25943">
        <ele>36.77</ele>
        <time>2022-07-11T09:07:38.671Z</time>
      </trkpt>
      <trkpt lat="48.26999" lon="-4.25954">
        <ele>36.77</ele>
        <time>2022-07-11T09:07:47.709Z</time>
      </trkpt>
      <trkpt lat="48.27002" lon="-4.25967">
        <ele>37.77</ele>
        <time>2022-07-11T09:07:57.287Z</time>
      </trkpt>
      <trkpt lat="48.27006" lon="-4.25981">
        <ele>37.77</ele>
        <time>2022-07-11T09:08:06.668Z</time>
      </trkpt>
      <trkpt lat="48.27009" lon="-4.25993">
        <ele>39.71</ele>
        <time>2022-07-11T09:08:16.548Z</time>
      </trkpt>
      <trkpt lat="48.27015" lon="-4.26005">
        <ele>43.76</ele>
        <time>2022-07-11T09:08:25.607Z</time>
      </trkpt>
      <trkpt lat="48.27022" lon="-4.26012">
        <ele>44.77</ele>
        <time>2022-07-11T09:08:35.709Z</time>
      </trkpt>
      <trkpt lat="48.27026" lon="-4.26018">
        <ele>46.76</ele>
        <time>2022-07-11T09:08:45.325Z</time>
      </trkpt>
      <trkpt lat="48.27028" lon="-4.26026">
        <ele>47.77</ele>
        <time>2022-07-11T09:08:55.000Z</time>
      </trkpt>
      <trkpt lat="48.27028" lon="-4.26027">
        <ele>47.77</ele>
        <time>2022-07-11T09:09:05.370Z</time>
      </trkpt>
      <trkpt lat="48.27032" lon="-4.26032">
        <ele>46.77</ele>
        <time>2022-07-11T09:09:14.430Z</time>
      </trkpt>
      <trkpt lat="48.27036" lon="-4.26039">
        <ele>47.77</ele>
        <time>2022-07-11T09:09:24.000Z</time>
      </trkpt>
      <trkpt lat="48.27039" lon="-4.26043">
        <ele>49.76</ele>
        <time>2022-07-11T09:09:34.692Z</time>
      </trkpt>
      <trkpt lat="48.27043" lon="-4.26048">
        <ele>51.77</ele>
        <time>2022-07-11T09:09:44.000Z</time>
      </trkpt>
      <trkpt lat="48.27045" lon="-4.26052">
        <ele>52.77</ele>
        <time>2022-07-11T09:09:53.011Z</time>
      </trkpt>
      <trkpt lat="48.27049" lon="-4.26057">
        <ele>52.76</ele>
        <time>2022-07-11T09:10:02.714Z</time>
      </trkpt>
      <trkpt lat="48.27053" lon="-4.26062">
        <ele>53.77</ele>
        <time>2022-07-11T09:10:12.287Z</time>
      </trkpt>
      <trkpt lat="48.27057" lon="-4.26068">
        <ele>51.83</ele>
        <time>2022-07-11T09:10:21.714Z</time>
      </trkpt>
      <trkpt lat="48.27064" lon="-4.26074">
        <ele>50.78</ele>
        <time>2022-07-11T09:10:31.387Z</time>
      </trkpt>
      <trkpt lat="48.27068" lon="-4.2608">
        <ele>52.77</ele>
        <time>2022-07-11T09:10:41.000Z</time>
      </trkpt>
      <trkpt lat="48.27073" lon="-4.26083">
        <ele>53.77</ele>
        <time>2022-07-11T09:10:51.713Z</time>
      </trkpt>
      <trkpt lat="48.27079" lon="-4.26088">
        <ele>54.77</ele>
        <time>2022-07-11T09:11:01.000Z</time>
      </trkpt>
      <trkpt lat="48.27082" lon="-4.26092">
        <ele>56.77</ele>
        <time>2022-07-11T09:11:11.000Z</time>
      </trkpt>
      <trkpt lat="48.27082" lon="-4.26093">
        <ele>56.02</ele>
        <time>2022-07-11T09:11:21.168Z</time>
      </trkpt>
      <trkpt lat="48.27086" lon="-4.26097">
        <ele>56.71</ele>
        <time>2022-07-11T09:11:31.707Z</time>
      </trkpt>
      <trkpt lat="48.27091" lon="-4.26103">
        <ele>56.77</ele>
        <time>2022-07-11T09:11:41.290Z</time>
      </trkpt>
      <trkpt lat="48.27094" lon="-4.26105">
        <ele>58.77</ele>
        <time>2022-07-11T09:11:51.491Z</time>
      </trkpt>
      <trkpt lat="48.27102" lon="-4.26106">
        <ele>60.77</ele>
        <time>2022-07-11T09:12:00.712Z</time>
      </trkpt>
      <trkpt lat="48.27112" lon="-4.26106">
        <ele>61.77</ele>
        <time>2022-07-11T09:12:10.328Z</time>
      </trkpt>
      <trkpt lat="48.27118" lon="-4.26109">
        <ele>61.77</ele>
        <time>2022-07-11T09:12:20.312Z</time>
      </trkpt>
      <trkpt lat="48.27122" lon="-4.26115">
        <ele>62.77</ele>
        <time>2022-07-11T09:12:29.723Z</time>
      </trkpt>
      <trkpt lat="48.27126" lon="-4.26126">
        <ele>61.02</ele>
        <time>2022-07-11T09:12:39.000Z</time>
      </trkpt>
      <trkpt lat="48.2713" lon="-4.26136">
        <ele>58.83</ele>
        <time>2022-07-11T09:12:48.111Z</time>
      </trkpt>
      <trkpt lat="48.27133" lon="-4.26144">
        <ele>57.77</ele>
        <time>2022-07-11T09:12:58.257Z</time>
      </trkpt>
      <trkpt lat="48.27138" lon="-4.26155">
        <ele>57.77</ele>
        <time>2022-07-11T09:13:08.228Z</time>
      </trkpt>
      <trkpt lat="48.27142" lon="-4.26165">
        <ele>56.83</ele>
        <time>2022-07-11T09:13:17.278Z</time>
      </trkpt>
      <trkpt lat="48.27145" lon="-4.26173">
        <ele>56.77</ele>
        <time>2022-07-11T09:13:26.350Z</time>
      </trkpt>
      <trkpt lat="48.27147" lon="-4.26184">
        <ele>55.82</ele>
        <time>2022-07-11T09:13:35.671Z</time>
      </trkpt>
      <trkpt lat="48.27148" lon="-4.26192">
        <ele>54.77</ele>
        <time>2022-07-11T09:13:45.134Z</time>
      </trkpt>
      <trkpt lat="48.27149" lon="-4.26197">
        <ele>51.77</ele>
        <time>2022-07-11T09:13:55.569Z</time>
      </trkpt>
      <trkpt lat="48.2715" lon="-4.262">
        <ele>49.78</ele>
        <time>2022-07-11T09:14:05.000Z</time>
      </trkpt>
      <trkpt lat="48.27151" lon="-4.26203">
        <ele>49.77</ele>
        <time>2022-07-11T09:14:15.000Z</time>
      </trkpt>
      <trkpt lat="48.27152" lon="-4.26204">
        <ele>46.83</ele>
        <time>2022-07-11T09:14:32.391Z</time>
      </trkpt>
      <trkpt lat="48.27156" lon="-4.2621">
        <ele>50.69</ele>
        <time>2022-07-11T09:14:42.250Z</time>
      </trkpt>
      <trkpt lat="48.27157" lon="-4.26221">
        <ele>48.77</ele>
        <time>2022-07-11T09:14:51.688Z</time>
      </trkpt>
      <trkpt lat="48.2716" lon="-4.26232">
        <ele>44.3</ele>
        <time>2022-07-11T09:15:01.688Z</time>
      </trkpt>
      <trkpt lat="48.27165" lon="-4.26237">
        <ele>42.02</ele>
        <time>2022-07-11T09:15:10.911Z</time>
      </trkpt>
      <trkpt lat="48.27164" lon="-4.26243">
        <ele>41.77</ele>
        <time>2022-07-11T09:15:20.000Z</time>
      </trkpt>
      <trkpt lat="48.27163" lon="-4.26245">
        <ele>39.77</ele>
        <time>2022-07-11T09:15:30.000Z</time>
      </trkpt>
      <trkpt lat="48.27163" lon="-4.26247">
        <ele>39.77</ele>
        <time>2022-07-11T09:15:44.000Z</time>
      </trkpt>
      <trkpt lat="48.27157" lon="-4.26246">
        <ele>38.77</ele>
        <time>2022-07-11T09:15:53.206Z</time>
      </trkpt>
      <trkpt lat="48.27147" lon="-4.26253">
        <ele>39.75</ele>
        <time>2022-07-11T09:16:02.470Z</time>
      </trkpt>
      <trkpt lat="48.27139" lon="-4.26256">
        <ele>40.71</ele>
        <time>2022-07-11T09:16:11.771Z</time>
      </trkpt>
      <trkpt lat="48.27131" lon="-4.26253">
        <ele>41.77</ele>
        <time>2022-07-11T09:16:21.648Z</time>
      </trkpt>
      <trkpt lat="48.27124" lon="-4.26251">
        <ele>40.77</ele>
        <time>2022-07-11T09:16:31.509Z</time>
      </trkpt>
      <trkpt lat="48.27115" lon="-4.2625">
        <ele>40.77</ele>
        <time>2022-07-11T09:16:41.348Z</time>
      </trkpt>
      <trkpt lat="48.2711" lon="-4.26249">
        <ele>40.77</ele>
        <time>2022-07-11T09:16:50.630Z</time>
      </trkpt>
      <trkpt lat="48.27102" lon="-4.26248">
        <ele>39.77</ele>
        <time>2022-07-11T09:17:00.590Z</time>
      </trkpt>
      <trkpt lat="48.27092" lon="-4.26247">
        <ele>40.71</ele>
        <time>2022-07-11T09:17:10.289Z</time>
      </trkpt>
      <trkpt lat="48.27084" lon="-4.26249">
        <ele>41.75</ele>
        <time>2022-07-11T09:17:19.690Z</time>
      </trkpt>
      <trkpt lat="48.27076" lon="-4.26248">
        <ele>41.77</ele>
        <time>2022-07-11T09:17:29.026Z</time>
      </trkpt>
      <trkpt lat="48.27069" lon="-4.26251">
        <ele>39.77</ele>
        <time>2022-07-11T09:17:38.085Z</time>
      </trkpt>
      <trkpt lat="48.27061" lon="-4.26252">
        <ele>41.71</ele>
        <time>2022-07-11T09:17:48.330Z</time>
      </trkpt>
      <trkpt lat="48.2705" lon="-4.26254">
        <ele>41.83</ele>
        <time>2022-07-11T09:17:57.467Z</time>
      </trkpt>
      <trkpt lat="48.27042" lon="-4.26258">
        <ele>42.77</ele>
        <time>2022-07-11T09:18:06.469Z</time>
      </trkpt>
      <trkpt lat="48.27031" lon="-4.26263">
        <ele>43.77</ele>
        <time>2022-07-11T09:18:16.426Z</time>
      </trkpt>
      <trkpt lat="48.27022" lon="-4.26266">
        <ele>44.77</ele>
        <time>2022-07-11T09:18:25.690Z</time>
      </trkpt>
      <trkpt lat="48.27015" lon="-4.26267">
        <ele>38.83</ele>
        <time>2022-07-11T09:18:35.000Z</time>
      </trkpt>
      <trkpt lat="48.27015" lon="-4.26268">
        <ele>39.77</ele>
        <time>2022-07-11T09:18:52.166Z</time>
      </trkpt>
      <trkpt lat="48.27007" lon="-4.26274">
        <ele>40.77</ele>
        <time>2022-07-11T09:19:01.472Z</time>
      </trkpt>
      <trkpt lat="48.26996" lon="-4.26278">
        <ele>42.77</ele>
        <time>2022-07-11T09:19:11.447Z</time>
      </trkpt>
      <trkpt lat="48.26986" lon="-4.26284">
        <ele>41.83</ele>
        <time>2022-07-11T09:19:20.730Z</time>
      </trkpt>
      <trkpt lat="48.26979" lon="-4.2629">
        <ele>43.77</ele>
        <time>2022-07-11T09:19:30.530Z</time>
      </trkpt>
      <trkpt lat="48.2697" lon="-4.26294">
        <ele>44.71</ele>
        <time>2022-07-11T09:19:40.251Z</time>
      </trkpt>
      <trkpt lat="48.26959" lon="-4.26299">
        <ele>43.71</ele>
        <time>2022-07-11T09:19:50.733Z</time>
      </trkpt>
      <trkpt lat="48.26949" lon="-4.26304">
        <ele>41.83</ele>
        <time>2022-07-11T09:20:00.189Z</time>
      </trkpt>
      <trkpt lat="48.26941" lon="-4.2631">
        <ele>42.77</ele>
        <time>2022-07-11T09:20:09.201Z</time>
      </trkpt>
      <trkpt lat="48.26934" lon="-4.26314">
        <ele>42.52</ele>
        <time>2022-07-11T09:20:18.308Z</time>
      </trkpt>
      <trkpt lat="48.26924" lon="-4.26321">
        <ele>42.77</ele>
        <time>2022-07-11T09:20:27.629Z</time>
      </trkpt>
      <trkpt lat="48.26915" lon="-4.26326">
        <ele>43.77</ele>
        <time>2022-07-11T09:20:36.993Z</time>
      </trkpt>
      <trkpt lat="48.26907" lon="-4.26332">
        <ele>41.77</ele>
        <time>2022-07-11T09:20:46.489Z</time>
      </trkpt>
      <trkpt lat="48.26898" lon="-4.26338">
        <ele>40.77</ele>
        <time>2022-07-11T09:20:56.010Z</time>
      </trkpt>
      <trkpt lat="48.26892" lon="-4.26345">
        <ele>39.79</ele>
        <time>2022-07-11T09:21:05.227Z</time>
      </trkpt>
      <trkpt lat="48.26882" lon="-4.26351">
        <ele>40.77</ele>
        <time>2022-07-11T09:21:14.508Z</time>
      </trkpt>
      <trkpt lat="48.26876" lon="-4.26357">
        <ele>41.77</ele>
        <time>2022-07-11T09:21:23.609Z</time>
      </trkpt>
      <trkpt lat="48.26868" lon="-4.26366">
        <ele>40.79</ele>
        <time>2022-07-11T09:21:33.389Z</time>
      </trkpt>
      <trkpt lat="48.26862" lon="-4.2637">
        <ele>40.71</ele>
        <time>2022-07-11T09:21:43.148Z</time>
      </trkpt>
      <trkpt lat="48.26851" lon="-4.26379">
        <ele>41.77</ele>
        <time>2022-07-11T09:21:52.470Z</time>
      </trkpt>
      <trkpt lat="48.26842" lon="-4.26386">
        <ele>41.77</ele>
        <time>2022-07-11T09:22:02.573Z</time>
      </trkpt>
      <trkpt lat="48.26832" lon="-4.26396">
        <ele>41.77</ele>
        <time>2022-07-11T09:22:12.252Z</time>
      </trkpt>
      <trkpt lat="48.26824" lon="-4.26404">
        <ele>41.71</ele>
        <time>2022-07-11T09:22:21.488Z</time>
      </trkpt>
      <trkpt lat="48.26818" lon="-4.26413">
        <ele>42.77</ele>
        <time>2022-07-11T09:22:30.993Z</time>
      </trkpt>
      <trkpt lat="48.2681" lon="-4.2642">
        <ele>42.77</ele>
        <time>2022-07-11T09:22:40.000Z</time>
      </trkpt>
      <trkpt lat="48.26804" lon="-4.26427">
        <ele>42.77</ele>
        <time>2022-07-11T09:22:49.249Z</time>
      </trkpt>
      <trkpt lat="48.26796" lon="-4.26438">
        <ele>43.77</ele>
        <time>2022-07-11T09:22:59.353Z</time>
      </trkpt>
      <trkpt lat="48.2679" lon="-4.26442">
        <ele>42.77</ele>
        <time>2022-07-11T09:23:09.711Z</time>
      </trkpt>
      <trkpt lat="48.26783" lon="-4.2645">
        <ele>42.77</ele>
        <time>2022-07-11T09:23:19.412Z</time>
      </trkpt>
      <trkpt lat="48.26775" lon="-4.26458">
        <ele>41.77</ele>
        <time>2022-07-11T09:23:28.444Z</time>
      </trkpt>
      <trkpt lat="48.26757" lon="-4.26334">
        <ele>30.77</ele>
        <time>2022-07-11T09:32:59.000Z</time>
      </trkpt>
      <trkpt lat="48.26756" lon="-4.26334">
        <ele>30.77</ele>
        <time>2022-07-11T09:33:09.000Z</time>
      </trkpt>
      <trkpt lat="48.26753" lon="-4.26335">
        <ele>29.78</ele>
        <time>2022-07-11T09:33:19.000Z</time>
      </trkpt>
      <trkpt lat="48.26752" lon="-4.26334">
        <ele>25.05</ele>
        <time>2022-07-11T09:33:29.000Z</time>
      </trkpt>
      <trkpt lat="48.26755" lon="-4.26343">
        <ele>23.77</ele>
        <time>2022-07-11T09:33:38.531Z</time>
      </trkpt>
      <trkpt lat="48.26757" lon="-4.26351">
        <ele>23.77</ele>
        <time>2022-07-11T09:33:47.780Z</time>
      </trkpt>
      <trkpt lat="48.26762" lon="-4.26369">
        <ele>21.83</ele>
        <time>2022-07-11T09:33:57.673Z</time>
      </trkpt>
      <trkpt lat="48.26763" lon="-4.26383">
        <ele>21.77</ele>
        <time>2022-07-11T09:34:07.097Z</time>
      </trkpt>
      <trkpt lat="48.26763" lon="-4.26384">
        <ele>21.77</ele>
        <time>2022-07-11T09:34:16.697Z</time>
      </trkpt>
      <trkpt lat="48.26766" lon="-4.26394">
        <ele>23.77</ele>
        <time>2022-07-11T09:34:25.954Z</time>
      </trkpt>
      <trkpt lat="48.26767" lon="-4.26422">
        <ele>21.83</ele>
        <time>2022-07-11T09:34:35.274Z</time>
      </trkpt>
      <trkpt lat="48.26769" lon="-4.26441">
        <ele>18.77</ele>
        <time>2022-07-11T09:34:44.395Z</time>
      </trkpt>
      <trkpt lat="48.26773" lon="-4.26456">
        <ele>16.78</ele>
        <time>2022-07-11T09:34:53.573Z</time>
      </trkpt>
      <trkpt lat="48.26778" lon="-4.26473">
        <ele>16.77</ele>
        <time>2022-07-11T09:35:02.733Z</time>
      </trkpt>
      <trkpt lat="48.2678" lon="-4.2649">
        <ele>13.78</ele>
        <time>2022-07-11T09:35:11.935Z</time>
      </trkpt>
      <trkpt lat="48.26781" lon="-4.265">
        <ele>13.77</ele>
        <time>2022-07-11T09:35:21.095Z</time>
      </trkpt>
      <trkpt lat="48.26783" lon="-4.26511">
        <ele>13.83</ele>
        <time>2022-07-11T09:35:30.496Z</time>
      </trkpt>
      <trkpt lat="48.26785" lon="-4.26519">
        <ele>13.75</ele>
        <time>2022-07-11T09:35:39.540Z</time>
      </trkpt>
      <trkpt lat="48.26789" lon="-4.26525">
        <ele>12.77</ele>
        <time>2022-07-11T09:35:49.360Z</time>
      </trkpt>
      <trkpt lat="48.26792" lon="-4.26536">
        <ele>12.58</ele>
        <time>2022-07-11T09:35:58.720Z</time>
      </trkpt>
      <trkpt lat="48.26793" lon="-4.26549">
        <ele>12.77</ele>
        <time>2022-07-11T09:36:08.656Z</time>
      </trkpt>
      <trkpt lat="48.26797" lon="-4.26564">
        <ele>13.77</ele>
        <time>2022-07-11T09:36:18.474Z</time>
      </trkpt>
      <trkpt lat="48.26801" lon="-4.26576">
        <ele>13.71</ele>
        <time>2022-07-11T09:36:27.659Z</time>
      </trkpt>
      <trkpt lat="48.26803" lon="-4.2659">
        <ele>12.77</ele>
        <time>2022-07-11T09:36:37.000Z</time>
      </trkpt>
      <trkpt lat="48.26806" lon="-4.26604">
        <ele>13.77</ele>
        <time>2022-07-11T09:36:47.000Z</time>
      </trkpt>
      <trkpt lat="48.26809" lon="-4.26614">
        <ele>15.71</ele>
        <time>2022-07-11T09:36:56.355Z</time>
      </trkpt>
      <trkpt lat="48.26812" lon="-4.26629">
        <ele>15.77</ele>
        <time>2022-07-11T09:37:06.000Z</time>
      </trkpt>
      <trkpt lat="48.26814" lon="-4.26641">
        <ele>17.77</ele>
        <time>2022-07-11T09:37:15.894Z</time>
      </trkpt>
      <trkpt lat="48.26816" lon="-4.26651">
        <ele>17.77</ele>
        <time>2022-07-11T09:37:24.934Z</time>
      </trkpt>
      <trkpt lat="48.2682" lon="-4.26662">
        <ele>18.76</ele>
        <time>2022-07-11T09:37:34.435Z</time>
      </trkpt>
      <trkpt lat="48.26825" lon="-4.26672">
        <ele>18.77</ele>
        <time>2022-07-11T09:37:43.576Z</time>
      </trkpt>
      <trkpt lat="48.26829" lon="-4.26683">
        <ele>17.78</ele>
        <time>2022-07-11T09:37:52.658Z</time>
      </trkpt>
      <trkpt lat="48.26833" lon="-4.26694">
        <ele>19.76</ele>
        <time>2022-07-11T09:38:02.136Z</time>
      </trkpt>
      <trkpt lat="48.26837" lon="-4.26704">
        <ele>20.01</ele>
        <time>2022-07-11T09:38:11.458Z</time>
      </trkpt>
      <trkpt lat="48.26841" lon="-4.26714">
        <ele>20.77</ele>
        <time>2022-07-11T09:38:21.455Z</time>
      </trkpt>
      <trkpt lat="48.26845" lon="-4.26727">
        <ele>20.83</ele>
        <time>2022-07-11T09:38:30.515Z</time>
      </trkpt>
      <trkpt lat="48.26848" lon="-4.26737">
        <ele>20.77</ele>
        <time>2022-07-11T09:38:39.634Z</time>
      </trkpt>
      <trkpt lat="48.26851" lon="-4.26752">
        <ele>20.77</ele>
        <time>2022-07-11T09:38:49.296Z</time>
      </trkpt>
      <trkpt lat="48.26854" lon="-4.26767">
        <ele>20.77</ele>
        <time>2022-07-11T09:38:58.376Z</time>
      </trkpt>
      <trkpt lat="48.26857" lon="-4.26778">
        <ele>19.77</ele>
        <time>2022-07-11T09:39:07.456Z</time>
      </trkpt>
      <trkpt lat="48.2686" lon="-4.26792">
        <ele>20.77</ele>
        <time>2022-07-11T09:39:17.037Z</time>
      </trkpt>
      <trkpt lat="48.26861" lon="-4.26804">
        <ele>19.52</ele>
        <time>2022-07-11T09:39:26.176Z</time>
      </trkpt>
      <trkpt lat="48.26863" lon="-4.2682">
        <ele>18.78</ele>
        <time>2022-07-11T09:39:36.252Z</time>
      </trkpt>
      <trkpt lat="48.26864" lon="-4.26832">
        <ele>18.77</ele>
        <time>2022-07-11T09:39:46.492Z</time>
      </trkpt>
      <trkpt lat="48.2686" lon="-4.26849">
        <ele>17.76</ele>
        <time>2022-07-11T09:39:56.358Z</time>
      </trkpt>
      <trkpt lat="48.26862" lon="-4.26862">
        <ele>17.77</ele>
        <time>2022-07-11T09:40:06.372Z</time>
      </trkpt>
      <trkpt lat="48.26864" lon="-4.26866">
        <ele>20.7</ele>
        <time>2022-07-11T09:40:16.514Z</time>
      </trkpt>
      <trkpt lat="48.26863" lon="-4.26875">
        <ele>22.75</ele>
        <time>2022-07-11T09:40:26.594Z</time>
      </trkpt>
      <trkpt lat="48.26863" lon="-4.26884">
        <ele>23.76</ele>
        <time>2022-07-11T09:40:35.597Z</time>
      </trkpt>
      <trkpt lat="48.2687" lon="-4.26894">
        <ele>23.77</ele>
        <time>2022-07-11T09:40:45.294Z</time>
      </trkpt>
      <trkpt lat="48.26878" lon="-4.26903">
        <ele>24.76</ele>
        <time>2022-07-11T09:40:54.479Z</time>
      </trkpt>
      <trkpt lat="48.26886" lon="-4.26906">
        <ele>23.77</ele>
        <time>2022-07-11T09:41:03.937Z</time>
      </trkpt>
      <trkpt lat="48.26892" lon="-4.26906">
        <ele>22.77</ele>
        <time>2022-07-11T09:41:13.193Z</time>
      </trkpt>
      <trkpt lat="48.26899" lon="-4.26909">
        <ele>23.76</ele>
        <time>2022-07-11T09:41:22.395Z</time>
      </trkpt>
      <trkpt lat="48.26903" lon="-4.26916">
        <ele>25.7</ele>
        <time>2022-07-11T09:41:31.577Z</time>
      </trkpt>
      <trkpt lat="48.26907" lon="-4.26926">
        <ele>24.77</ele>
        <time>2022-07-11T09:41:41.394Z</time>
      </trkpt>
      <trkpt lat="48.26915" lon="-4.26942">
        <ele>26.7</ele>
        <time>2022-07-11T09:41:51.315Z</time>
      </trkpt>
      <trkpt lat="48.26919" lon="-4.26952">
        <ele>25.77</ele>
        <time>2022-07-11T09:42:00.532Z</time>
      </trkpt>
      <trkpt lat="48.26921" lon="-4.26967">
        <ele>25.77</ele>
        <time>2022-07-11T09:42:09.672Z</time>
      </trkpt>
      <trkpt lat="48.26921" lon="-4.26987">
        <ele>23.76</ele>
        <time>2022-07-11T09:42:19.558Z</time>
      </trkpt>
      <trkpt lat="48.26921" lon="-4.27">
        <ele>23.53</ele>
        <time>2022-07-11T09:42:29.511Z</time>
      </trkpt>
      <trkpt lat="48.26925" lon="-4.27002">
        <ele>23.76</ele>
        <time>2022-07-11T09:42:38.678Z</time>
      </trkpt>
      <trkpt lat="48.26936" lon="-4.27001">
        <ele>25.76</ele>
        <time>2022-07-11T09:42:48.000Z</time>
      </trkpt>
      <trkpt lat="48.26945" lon="-4.27003">
        <ele>26.75</ele>
        <time>2022-07-11T09:42:57.176Z</time>
      </trkpt>
      <trkpt lat="48.26953" lon="-4.27012">
        <ele>26.76</ele>
        <time>2022-07-11T09:43:06.473Z</time>
      </trkpt>
      <trkpt lat="48.26962" lon="-4.27025">
        <ele>25.82</ele>
        <time>2022-07-11T09:43:16.595Z</time>
      </trkpt>
      <trkpt lat="48.26971" lon="-4.27037">
        <ele>26.78</ele>
        <time>2022-07-11T09:43:26.331Z</time>
      </trkpt>
      <trkpt lat="48.26977" lon="-4.27044">
        <ele>25.76</ele>
        <time>2022-07-11T09:43:35.636Z</time>
      </trkpt>
      <trkpt lat="48.26983" lon="-4.2706">
        <ele>22.75</ele>
        <time>2022-07-11T09:43:44.701Z</time>
      </trkpt>
      <trkpt lat="48.26988" lon="-4.27071">
        <ele>21.76</ele>
        <time>2022-07-11T09:43:53.720Z</time>
      </trkpt>
      <trkpt lat="48.26992" lon="-4.27081">
        <ele>21.76</ele>
        <time>2022-07-11T09:44:03.417Z</time>
      </trkpt>
      <trkpt lat="48.26999" lon="-4.27094">
        <ele>22.76</ele>
        <time>2022-07-11T09:44:12.538Z</time>
      </trkpt>
      <trkpt lat="48.27008" lon="-4.27102">
        <ele>22.76</ele>
        <time>2022-07-11T09:44:22.000Z</time>
      </trkpt>
      <trkpt lat="48.27016" lon="-4.27112">
        <ele>23.76</ele>
        <time>2022-07-11T09:44:31.078Z</time>
      </trkpt>
      <trkpt lat="48.27023" lon="-4.27122">
        <ele>23.76</ele>
        <time>2022-07-11T09:44:40.352Z</time>
      </trkpt>
      <trkpt lat="48.27032" lon="-4.27131">
        <ele>23.76</ele>
        <time>2022-07-11T09:44:49.436Z</time>
      </trkpt>
      <trkpt lat="48.27041" lon="-4.27136">
        <ele>24.76</ele>
        <time>2022-07-11T09:44:58.493Z</time>
      </trkpt>
      <trkpt lat="48.27047" lon="-4.27142">
        <ele>24.76</ele>
        <time>2022-07-11T09:45:08.496Z</time>
      </trkpt>
      <trkpt lat="48.27054" lon="-4.27154">
        <ele>23.76</ele>
        <time>2022-07-11T09:45:18.459Z</time>
      </trkpt>
      <trkpt lat="48.27061" lon="-4.27168">
        <ele>21.77</ele>
        <time>2022-07-11T09:45:28.633Z</time>
      </trkpt>
      <trkpt lat="48.27065" lon="-4.27183">
        <ele>21.76</ele>
        <time>2022-07-11T09:45:38.000Z</time>
      </trkpt>
      <trkpt lat="48.27071" lon="-4.27192">
        <ele>20.76</ele>
        <time>2022-07-11T09:45:47.560Z</time>
      </trkpt>
      <trkpt lat="48.27077" lon="-4.27211">
        <ele>21.76</ele>
        <time>2022-07-11T09:45:56.914Z</time>
      </trkpt>
      <trkpt lat="48.27079" lon="-4.27224">
        <ele>22.01</ele>
        <time>2022-07-11T09:46:06.274Z</time>
      </trkpt>
      <trkpt lat="48.27082" lon="-4.27237">
        <ele>22.7</ele>
        <time>2022-07-11T09:46:16.196Z</time>
      </trkpt>
      <trkpt lat="48.27086" lon="-4.27248">
        <ele>22.76</ele>
        <time>2022-07-11T09:46:25.336Z</time>
      </trkpt>
      <trkpt lat="48.27094" lon="-4.27264">
        <ele>23.76</ele>
        <time>2022-07-11T09:46:35.000Z</time>
      </trkpt>
      <trkpt lat="48.27097" lon="-4.27275">
        <ele>23.7</ele>
        <time>2022-07-11T09:46:44.651Z</time>
      </trkpt>
      <trkpt lat="48.27101" lon="-4.27291">
        <ele>23.76</ele>
        <time>2022-07-11T09:46:53.857Z</time>
      </trkpt>
      <trkpt lat="48.27104" lon="-4.27306">
        <ele>24.76</ele>
        <time>2022-07-11T09:47:03.534Z</time>
      </trkpt>
      <trkpt lat="48.27111" lon="-4.27316">
        <ele>24.01</ele>
        <time>2022-07-11T09:47:13.000Z</time>
      </trkpt>
      <trkpt lat="48.27115" lon="-4.27332">
        <ele>23.76</ele>
        <time>2022-07-11T09:47:22.355Z</time>
      </trkpt>
      <trkpt lat="48.27118" lon="-4.27344">
        <ele>24.76</ele>
        <time>2022-07-11T09:47:31.600Z</time>
      </trkpt>
      <trkpt lat="48.27123" lon="-4.2736">
        <ele>24.7</ele>
        <time>2022-07-11T09:47:41.000Z</time>
      </trkpt>
      <trkpt lat="48.27126" lon="-4.27376">
        <ele>22.83</ele>
        <time>2022-07-11T09:47:50.359Z</time>
      </trkpt>
      <trkpt lat="48.27129" lon="-4.27387">
        <ele>23.01</ele>
        <time>2022-07-11T09:47:59.513Z</time>
      </trkpt>
      <trkpt lat="48.27134" lon="-4.274">
        <ele>23.82</ele>
        <time>2022-07-11T09:48:09.000Z</time>
      </trkpt>
      <trkpt lat="48.27137" lon="-4.27412">
        <ele>23.76</ele>
        <time>2022-07-11T09:48:18.514Z</time>
      </trkpt>
      <trkpt lat="48.27141" lon="-4.27428">
        <ele>21.83</ele>
        <time>2022-07-11T09:48:28.574Z</time>
      </trkpt>
      <trkpt lat="48.27147" lon="-4.27447">
        <ele>20.76</ele>
        <time>2022-07-11T09:48:38.259Z</time>
      </trkpt>
      <trkpt lat="48.27149" lon="-4.27457">
        <ele>20.76</ele>
        <time>2022-07-11T09:48:47.500Z</time>
      </trkpt>
      <trkpt lat="48.27153" lon="-4.2747">
        <ele>21.76</ele>
        <time>2022-07-11T09:48:56.575Z</time>
      </trkpt>
      <trkpt lat="48.27157" lon="-4.27486">
        <ele>22.76</ele>
        <time>2022-07-11T09:49:06.000Z</time>
      </trkpt>
      <trkpt lat="48.2716" lon="-4.27502">
        <ele>22.76</ele>
        <time>2022-07-11T09:49:15.471Z</time>
      </trkpt>
      <trkpt lat="48.27163" lon="-4.27517">
        <ele>21.76</ele>
        <time>2022-07-11T09:49:25.474Z</time>
      </trkpt>
      <trkpt lat="48.27165" lon="-4.27533">
        <ele>20.76</ele>
        <time>2022-07-11T09:49:35.218Z</time>
      </trkpt>
      <trkpt lat="48.27168" lon="-4.27548">
        <ele>19.76</ele>
        <time>2022-07-11T09:49:44.635Z</time>
      </trkpt>
      <trkpt lat="48.27169" lon="-4.27562">
        <ele>20.76</ele>
        <time>2022-07-11T09:49:54.357Z</time>
      </trkpt>
      <trkpt lat="48.2717" lon="-4.27582">
        <ele>20.76</ele>
        <time>2022-07-11T09:50:03.658Z</time>
      </trkpt>
      <trkpt lat="48.27174" lon="-4.27598">
        <ele>21.7</ele>
        <time>2022-07-11T09:50:13.299Z</time>
      </trkpt>
      <trkpt lat="48.27177" lon="-4.27608">
        <ele>20.01</ele>
        <time>2022-07-11T09:50:22.514Z</time>
      </trkpt>
      <trkpt lat="48.27179" lon="-4.27623">
        <ele>18.78</ele>
        <time>2022-07-11T09:50:32.000Z</time>
      </trkpt>
      <trkpt lat="48.27181" lon="-4.27639">
        <ele>17.76</ele>
        <time>2022-07-11T09:50:41.599Z</time>
      </trkpt>
      <trkpt lat="48.27182" lon="-4.27651">
        <ele>16.82</ele>
        <time>2022-07-11T09:50:51.094Z</time>
      </trkpt>
      <trkpt lat="48.27183" lon="-4.27671">
        <ele>16.7</ele>
        <time>2022-07-11T09:51:00.578Z</time>
      </trkpt>
      <trkpt lat="48.27182" lon="-4.27686">
        <ele>15.76</ele>
        <time>2022-07-11T09:51:10.100Z</time>
      </trkpt>
      <trkpt lat="48.27182" lon="-4.27698">
        <ele>15.76</ele>
        <time>2022-07-11T09:51:19.598Z</time>
      </trkpt>
      <trkpt lat="48.27181" lon="-4.27716">
        <ele>14.76</ele>
        <time>2022-07-11T09:51:29.701Z</time>
      </trkpt>
      <trkpt lat="48.27182" lon="-4.27731">
        <ele>14.76</ele>
        <time>2022-07-11T09:51:39.216Z</time>
      </trkpt>
      <trkpt lat="48.27183" lon="-4.27742">
        <ele>13.76</ele>
        <time>2022-07-11T09:51:48.393Z</time>
      </trkpt>
      <trkpt lat="48.27183" lon="-4.27763">
        <ele>12.76</ele>
        <time>2022-07-11T09:51:58.338Z</time>
      </trkpt>
      <trkpt lat="48.27182" lon="-4.27777">
        <ele>11.77</ele>
        <time>2022-07-11T09:52:07.452Z</time>
      </trkpt>
      <trkpt lat="48.27182" lon="-4.27795">
        <ele>11.76</ele>
        <time>2022-07-11T09:52:17.478Z</time>
      </trkpt>
      <trkpt lat="48.27181" lon="-4.27814">
        <ele>10.76</ele>
        <time>2022-07-11T09:52:27.495Z</time>
      </trkpt>
      <trkpt lat="48.2718" lon="-4.2783">
        <ele>9.76</ele>
        <time>2022-07-11T09:52:37.392Z</time>
      </trkpt>
      <trkpt lat="48.27177" lon="-4.27845">
        <ele>8.76</ele>
        <time>2022-07-11T09:52:47.437Z</time>
      </trkpt>
      <trkpt lat="48.27173" lon="-4.27857">
        <ele>7.76</ele>
        <time>2022-07-11T09:52:56.696Z</time>
      </trkpt>
      <trkpt lat="48.27169" lon="-4.27873">
        <ele>7.82</ele>
        <time>2022-07-11T09:53:06.452Z</time>
      </trkpt>
      <trkpt lat="48.27164" lon="-4.27891">
        <ele>6.76</ele>
        <time>2022-07-11T09:53:16.519Z</time>
      </trkpt>
      <trkpt lat="48.27162" lon="-4.27898">
        <ele>8.76</ele>
        <time>2022-07-11T09:53:26.458Z</time>
      </trkpt>
      <trkpt lat="48.27159" lon="-4.27909">
        <ele>9.76</ele>
        <time>2022-07-11T09:53:35.479Z</time>
      </trkpt>
      <trkpt lat="48.27155" lon="-4.27914">
        <ele>3.82</ele>
        <time>2022-07-11T09:53:45.000Z</time>
      </trkpt>
      <trkpt lat="48.27151" lon="-4.27915">
        <ele>1.76</ele>
        <time>2022-07-11T09:53:55.000Z</time>
      </trkpt>
      <trkpt lat="48.27151" lon="-4.27913">
        <ele>1.76</ele>
        <time>2022-07-11T09:54:14.000Z</time>
      </trkpt>
      <trkpt lat="48.27154" lon="-4.27921">
        <ele>-1.25</ele>
        <time>2022-07-11T09:54:23.096Z</time>
      </trkpt>
      <trkpt lat="48.27156" lon="-4.27932">
        <ele>3.63</ele>
        <time>2022-07-11T09:54:33.338Z</time>
      </trkpt>
      <trkpt lat="48.27155" lon="-4.27938">
        <ele>4.7</ele>
        <time>2022-07-11T09:54:42.651Z</time>
      </trkpt>
      <trkpt lat="48.27156" lon="-4.27944">
        <ele>7.7</ele>
        <time>2022-07-11T09:54:52.693Z</time>
      </trkpt>
      <trkpt lat="48.27157" lon="-4.2795">
        <ele>8.76</ele>
        <time>2022-07-11T09:55:02.317Z</time>
      </trkpt>
      <trkpt lat="48.27158" lon="-4.27957">
        <ele>12.74</ele>
        <time>2022-07-11T09:55:12.000Z</time>
      </trkpt>
      <trkpt lat="48.2716" lon="-4.27962">
        <ele>14.75</ele>
        <time>2022-07-11T09:55:21.235Z</time>
      </trkpt>
      <trkpt lat="48.27162" lon="-4.27967">
        <ele>17.76</ele>
        <time>2022-07-11T09:55:30.255Z</time>
      </trkpt>
      <trkpt lat="48.27164" lon="-4.27975">
        <ele>20.75</ele>
        <time>2022-07-11T09:55:39.459Z</time>
      </trkpt>
      <trkpt lat="48.27163" lon="-4.27984">
        <ele>22.75</ele>
        <time>2022-07-11T09:55:49.000Z</time>
      </trkpt>
      <trkpt lat="48.27163" lon="-4.27992">
        <ele>25.51</ele>
        <time>2022-07-11T09:55:58.217Z</time>
      </trkpt>
      <trkpt lat="48.27165" lon="-4.28001">
        <ele>28.74</ele>
        <time>2022-07-11T09:56:08.000Z</time>
      </trkpt>
      <trkpt lat="48.27165" lon="-4.28005">
        <ele>26.76</ele>
        <time>2022-07-11T09:56:18.518Z</time>
      </trkpt>
      <trkpt lat="48.27166" lon="-4.28012">
        <ele>27.76</ele>
        <time>2022-07-11T09:56:28.577Z</time>
      </trkpt>
      <trkpt lat="48.27168" lon="-4.2802">
        <ele>29.01</ele>
        <time>2022-07-11T09:56:38.219Z</time>
      </trkpt>
      <trkpt lat="48.2717" lon="-4.28028">
        <ele>28.51</ele>
        <time>2022-07-11T09:56:48.174Z</time>
      </trkpt>
      <trkpt lat="48.27172" lon="-4.28037">
        <ele>30.69</ele>
        <time>2022-07-11T09:56:58.000Z</time>
      </trkpt>
      <trkpt lat="48.27174" lon="-4.28043">
        <ele>32.74</ele>
        <time>2022-07-11T09:57:07.595Z</time>
      </trkpt>
      <trkpt lat="48.27175" lon="-4.28052">
        <ele>34.76</ele>
        <time>2022-07-11T09:57:17.639Z</time>
      </trkpt>
      <trkpt lat="48.27177" lon="-4.28058">
        <ele>36.75</ele>
        <time>2022-07-11T09:57:27.216Z</time>
      </trkpt>
      <trkpt lat="48.27179" lon="-4.28062">
        <ele>36.76</ele>
        <time>2022-07-11T09:57:36.714Z</time>
      </trkpt>
      <trkpt lat="48.27183" lon="-4.28059">
        <ele>35.76</ele>
        <time>2022-07-11T09:57:46.454Z</time>
      </trkpt>
      <trkpt lat="48.27187" lon="-4.28053">
        <ele>37.75</ele>
        <time>2022-07-11T09:57:56.293Z</time>
      </trkpt>
      <trkpt lat="48.27194" lon="-4.28046">
        <ele>37.76</ele>
        <time>2022-07-11T09:58:06.400Z</time>
      </trkpt>
      <trkpt lat="48.272" lon="-4.28041">
        <ele>36.76</ele>
        <time>2022-07-11T09:58:15.579Z</time>
      </trkpt>
      <trkpt lat="48.27205" lon="-4.28032">
        <ele>34.76</ele>
        <time>2022-07-11T09:58:24.682Z</time>
      </trkpt>
      <trkpt lat="48.27207" lon="-4.28027">
        <ele>34.01</ele>
        <time>2022-07-11T09:58:34.619Z</time>
      </trkpt>
      <trkpt lat="48.27214" lon="-4.28012">
        <ele>32.77</ele>
        <time>2022-07-11T09:58:44.372Z</time>
      </trkpt>
      <trkpt lat="48.27218" lon="-4.28004">
        <ele>32.76</ele>
        <time>2022-07-11T09:58:53.435Z</time>
      </trkpt>
      <trkpt lat="48.27221" lon="-4.27996">
        <ele>32.76</ele>
        <time>2022-07-11T09:59:02.519Z</time>
      </trkpt>
      <trkpt lat="48.27225" lon="-4.27986">
        <ele>31.76</ele>
        <time>2022-07-11T09:59:12.538Z</time>
      </trkpt>
      <trkpt lat="48.27235" lon="-4.27971">
        <ele>30.76</ele>
        <time>2022-07-11T09:59:22.453Z</time>
      </trkpt>
      <trkpt lat="48.2724" lon="-4.27963">
        <ele>28.76</ele>
        <time>2022-07-11T09:59:32.257Z</time>
      </trkpt>
      <trkpt lat="48.27246" lon="-4.27951">
        <ele>26.82</ele>
        <time>2022-07-11T09:59:42.233Z</time>
      </trkpt>
      <trkpt lat="48.2725" lon="-4.27939">
        <ele>26.82</ele>
        <time>2022-07-11T09:59:51.340Z</time>
      </trkpt>
      <trkpt lat="48.27256" lon="-4.27926">
        <ele>26.76</ele>
        <time>2022-07-11T10:00:01.000Z</time>
      </trkpt>
      <trkpt lat="48.27263" lon="-4.27916">
        <ele>24.76</ele>
        <time>2022-07-11T10:00:10.618Z</time>
      </trkpt>
      <trkpt lat="48.2727" lon="-4.27906">
        <ele>20.82</ele>
        <time>2022-07-11T10:00:20.559Z</time>
      </trkpt>
      <trkpt lat="48.27279" lon="-4.27891">
        <ele>19.76</ele>
        <time>2022-07-11T10:00:29.750Z</time>
      </trkpt>
      <trkpt lat="48.2729" lon="-4.27882">
        <ele>18.76</ele>
        <time>2022-07-11T10:00:39.355Z</time>
      </trkpt>
      <trkpt lat="48.273" lon="-4.27878">
        <ele>17.76</ele>
        <time>2022-07-11T10:00:49.559Z</time>
      </trkpt>
      <trkpt lat="48.27311" lon="-4.27874">
        <ele>17.01</ele>
        <time>2022-07-11T10:00:59.578Z</time>
      </trkpt>
      <trkpt lat="48.2732" lon="-4.27875">
        <ele>17.76</ele>
        <time>2022-07-11T10:01:09.139Z</time>
      </trkpt>
      <trkpt lat="48.2733" lon="-4.2788">
        <ele>17.76</ele>
        <time>2022-07-11T10:01:18.617Z</time>
      </trkpt>
      <trkpt lat="48.27337" lon="-4.27883">
        <ele>18.76</ele>
        <time>2022-07-11T10:01:27.677Z</time>
      </trkpt>
      <trkpt lat="48.27347" lon="-4.27888">
        <ele>19.76</ele>
        <time>2022-07-11T10:01:37.074Z</time>
      </trkpt>
      <trkpt lat="48.27354" lon="-4.27893">
        <ele>19.76</ele>
        <time>2022-07-11T10:01:46.491Z</time>
      </trkpt>
      <trkpt lat="48.27363" lon="-4.27902">
        <ele>20.76</ele>
        <time>2022-07-11T10:01:55.519Z</time>
      </trkpt>
      <trkpt lat="48.27371" lon="-4.27913">
        <ele>22.76</ele>
        <time>2022-07-11T10:02:05.434Z</time>
      </trkpt>
      <trkpt lat="48.27382" lon="-4.27922">
        <ele>21.76</ele>
        <time>2022-07-11T10:02:15.333Z</time>
      </trkpt>
      <trkpt lat="48.27387" lon="-4.27933">
        <ele>21.8</ele>
        <time>2022-07-11T10:02:24.473Z</time>
      </trkpt>
      <trkpt lat="48.27395" lon="-4.27943">
        <ele>23.51</ele>
        <time>2022-07-11T10:02:33.794Z</time>
      </trkpt>
      <trkpt lat="48.274" lon="-4.2795">
        <ele>23.76</ele>
        <time>2022-07-11T10:02:43.199Z</time>
      </trkpt>
      <trkpt lat="48.27404" lon="-4.27959">
        <ele>24.7</ele>
        <time>2022-07-11T10:02:52.618Z</time>
      </trkpt>
      <trkpt lat="48.27408" lon="-4.27967">
        <ele>25.75</ele>
        <time>2022-07-11T10:03:01.695Z</time>
      </trkpt>
      <trkpt lat="48.27415" lon="-4.27979">
        <ele>27.51</ele>
        <time>2022-07-11T10:03:11.633Z</time>
      </trkpt>
      <trkpt lat="48.27423" lon="-4.27993">
        <ele>27.75</ele>
        <time>2022-07-11T10:03:21.074Z</time>
      </trkpt>
      <trkpt lat="48.27428" lon="-4.28001">
        <ele>28.75</ele>
        <time>2022-07-11T10:03:30.539Z</time>
      </trkpt>
      <trkpt lat="48.27437" lon="-4.28012">
        <ele>29.76</ele>
        <time>2022-07-11T10:03:39.613Z</time>
      </trkpt>
      <trkpt lat="48.27445" lon="-4.28022">
        <ele>30.76</ele>
        <time>2022-07-11T10:03:48.631Z</time>
      </trkpt>
      <trkpt lat="48.27455" lon="-4.28031">
        <ele>30.76</ele>
        <time>2022-07-11T10:03:58.592Z</time>
      </trkpt>
      <trkpt lat="48.27463" lon="-4.28041">
        <ele>27.77</ele>
        <time>2022-07-11T10:04:07.597Z</time>
      </trkpt>
      <trkpt lat="48.27469" lon="-4.28054">
        <ele>27.76</ele>
        <time>2022-07-11T10:04:17.518Z</time>
      </trkpt>
      <trkpt lat="48.27471" lon="-4.28064">
        <ele>27.76</ele>
        <time>2022-07-11T10:04:27.456Z</time>
      </trkpt>
      <trkpt lat="48.27478" lon="-4.28084">
        <ele>26.82</ele>
        <time>2022-07-11T10:04:37.000Z</time>
      </trkpt>
      <trkpt lat="48.27483" lon="-4.28098">
        <ele>25.76</ele>
        <time>2022-07-11T10:04:46.638Z</time>
      </trkpt>
      <trkpt lat="48.27487" lon="-4.2811">
        <ele>25.76</ele>
        <time>2022-07-11T10:04:55.718Z</time>
      </trkpt>
      <trkpt lat="48.2749" lon="-4.2812">
        <ele>25.99</ele>
        <time>2022-07-11T10:05:05.177Z</time>
      </trkpt>
      <trkpt lat="48.27493" lon="-4.28132">
        <ele>25.76</ele>
        <time>2022-07-11T10:05:14.593Z</time>
      </trkpt>
      <trkpt lat="48.27497" lon="-4.28151">
        <ele>25.76</ele>
        <time>2022-07-11T10:05:24.697Z</time>
      </trkpt>
      <trkpt lat="48.27498" lon="-4.28167">
        <ele>25.71</ele>
        <time>2022-07-11T10:05:34.220Z</time>
      </trkpt>
      <trkpt lat="48.27498" lon="-4.28179">
        <ele>24.76</ele>
        <time>2022-07-11T10:05:43.635Z</time>
      </trkpt>
      <trkpt lat="48.27498" lon="-4.28192">
        <ele>23.76</ele>
        <time>2022-07-11T10:05:53.372Z</time>
      </trkpt>
      <trkpt lat="48.27503" lon="-4.28208">
        <ele>22.76</ele>
        <time>2022-07-11T10:06:02.960Z</time>
      </trkpt>
      <trkpt lat="48.275" lon="-4.28223">
        <ele>21.76</ele>
        <time>2022-07-11T10:06:12.233Z</time>
      </trkpt>
      <trkpt lat="48.27499" lon="-4.28238">
        <ele>21.76</ele>
        <time>2022-07-11T10:06:21.652Z</time>
      </trkpt>
      <trkpt lat="48.27498" lon="-4.28251">
        <ele>20.76</ele>
        <time>2022-07-11T10:06:31.095Z</time>
      </trkpt>
      <trkpt lat="48.27497" lon="-4.28259">
        <ele>19.76</ele>
        <time>2022-07-11T10:06:40.419Z</time>
      </trkpt>
      <trkpt lat="48.27493" lon="-4.2827">
        <ele>17.82</ele>
        <time>2022-07-11T10:06:49.692Z</time>
      </trkpt>
      <trkpt lat="48.27487" lon="-4.28282">
        <ele>16.76</ele>
        <time>2022-07-11T10:06:59.376Z</time>
      </trkpt>
      <trkpt lat="48.27479" lon="-4.28293">
        <ele>15.01</ele>
        <time>2022-07-11T10:07:09.052Z</time>
      </trkpt>
      <trkpt lat="48.27474" lon="-4.28306">
        <ele>13.76</ele>
        <time>2022-07-11T10:07:18.714Z</time>
      </trkpt>
      <trkpt lat="48.2747" lon="-4.28321">
        <ele>14.75</ele>
        <time>2022-07-11T10:07:28.394Z</time>
      </trkpt>
      <trkpt lat="48.27465" lon="-4.28337">
        <ele>14.75</ele>
        <time>2022-07-11T10:07:37.401Z</time>
      </trkpt>
      <trkpt lat="48.2746" lon="-4.28346">
        <ele>16.75</ele>
        <time>2022-07-11T10:07:46.658Z</time>
      </trkpt>
      <trkpt lat="48.27455" lon="-4.28359">
        <ele>14.77</ele>
        <time>2022-07-11T10:07:56.000Z</time>
      </trkpt>
      <trkpt lat="48.2745" lon="-4.28373">
        <ele>16.69</ele>
        <time>2022-07-11T10:08:05.453Z</time>
      </trkpt>
      <trkpt lat="48.27446" lon="-4.28385">
        <ele>15.75</ele>
        <time>2022-07-11T10:08:15.355Z</time>
      </trkpt>
      <trkpt lat="48.27444" lon="-4.28402">
        <ele>15.75</ele>
        <time>2022-07-11T10:08:24.717Z</time>
      </trkpt>
      <trkpt lat="48.27441" lon="-4.28421">
        <ele>15.75</ele>
        <time>2022-07-11T10:08:34.357Z</time>
      </trkpt>
      <trkpt lat="48.27438" lon="-4.28438">
        <ele>14.81</ele>
        <time>2022-07-11T10:08:44.043Z</time>
      </trkpt>
      <trkpt lat="48.27433" lon="-4.28453">
        <ele>14.75</ele>
        <time>2022-07-11T10:08:53.132Z</time>
      </trkpt>
      <trkpt lat="48.2743" lon="-4.2847">
        <ele>14.75</ele>
        <time>2022-07-11T10:09:02.355Z</time>
      </trkpt>
      <trkpt lat="48.27426" lon="-4.28484">
        <ele>16.75</ele>
        <time>2022-07-11T10:09:11.453Z</time>
      </trkpt>
      <trkpt lat="48.27421" lon="-4.28498">
        <ele>16.69</ele>
        <time>2022-07-11T10:09:20.658Z</time>
      </trkpt>
      <trkpt lat="48.27415" lon="-4.28516">
        <ele>16.5</ele>
        <time>2022-07-11T10:09:30.000Z</time>
      </trkpt>
      <trkpt lat="48.27412" lon="-4.28519">
        <ele>16.75</ele>
        <time>2022-07-11T10:09:40.000Z</time>
      </trkpt>
      <trkpt lat="48.27412" lon="-4.2852">
        <ele>16.75</ele>
        <time>2022-07-11T10:09:50.000Z</time>
      </trkpt>
      <trkpt lat="48.2741" lon="-4.28523">
        <ele>15.75</ele>
        <time>2022-07-11T10:09:59.258Z</time>
      </trkpt>
      <trkpt lat="48.27408" lon="-4.28534">
        <ele>15</ele>
        <time>2022-07-11T10:10:08.316Z</time>
      </trkpt>
      <trkpt lat="48.27404" lon="-4.28545">
        <ele>15.71</ele>
        <time>2022-07-11T10:10:18.396Z</time>
      </trkpt>
      <trkpt lat="48.27399" lon="-4.28555">
        <ele>14.75</ele>
        <time>2022-07-11T10:10:28.438Z</time>
      </trkpt>
      <trkpt lat="48.27395" lon="-4.28568">
        <ele>15.69</ele>
        <time>2022-07-11T10:10:37.680Z</time>
      </trkpt>
      <trkpt lat="48.2739" lon="-4.28579">
        <ele>13.82</ele>
        <time>2022-07-11T10:10:47.499Z</time>
      </trkpt>
      <trkpt lat="48.27382" lon="-4.28592">
        <ele>13.75</ele>
        <time>2022-07-11T10:10:56.580Z</time>
      </trkpt>
      <trkpt lat="48.27377" lon="-4.286">
        <ele>13.75</ele>
        <time>2022-07-11T10:11:06.118Z</time>
      </trkpt>
      <trkpt lat="48.27369" lon="-4.28609">
        <ele>12.99</ele>
        <time>2022-07-11T10:11:15.218Z</time>
      </trkpt>
      <trkpt lat="48.27362" lon="-4.28614">
        <ele>12.75</ele>
        <time>2022-07-11T10:11:24.534Z</time>
      </trkpt>
      <trkpt lat="48.2736" lon="-4.28617">
        <ele>10.77</ele>
        <time>2022-07-11T10:11:34.295Z</time>
      </trkpt>
      <trkpt lat="48.27353" lon="-4.2863">
        <ele>9.82</ele>
        <time>2022-07-11T10:11:43.318Z</time>
      </trkpt>
      <trkpt lat="48.27348" lon="-4.28644">
        <ele>11.75</ele>
        <time>2022-07-11T10:11:53.320Z</time>
      </trkpt>
      <trkpt lat="48.27345" lon="-4.28654">
        <ele>11.75</ele>
        <time>2022-07-11T10:12:03.417Z</time>
      </trkpt>
      <trkpt lat="48.27342" lon="-4.28668">
        <ele>10.75</ele>
        <time>2022-07-11T10:12:13.376Z</time>
      </trkpt>
      <trkpt lat="48.27338" lon="-4.2868">
        <ele>11.75</ele>
        <time>2022-07-11T10:12:23.417Z</time>
      </trkpt>
      <trkpt lat="48.27336" lon="-4.28688">
        <ele>10.75</ele>
        <time>2022-07-11T10:12:32.711Z</time>
      </trkpt>
      <trkpt lat="48.27328" lon="-4.28704">
        <ele>9.75</ele>
        <time>2022-07-11T10:12:42.707Z</time>
      </trkpt>
      <trkpt lat="48.27322" lon="-4.2872">
        <ele>9.69</ele>
        <time>2022-07-11T10:12:52.637Z</time>
      </trkpt>
      <trkpt lat="48.27318" lon="-4.28735">
        <ele>9.75</ele>
        <time>2022-07-11T10:13:02.619Z</time>
      </trkpt>
      <trkpt lat="48.27312" lon="-4.28749">
        <ele>9.75</ele>
        <time>2022-07-11T10:13:12.515Z</time>
      </trkpt>
      <trkpt lat="48.2731" lon="-4.28763">
        <ele>9.81</ele>
        <time>2022-07-11T10:13:22.418Z</time>
      </trkpt>
      <trkpt lat="48.27312" lon="-4.28777">
        <ele>9.75</ele>
        <time>2022-07-11T10:13:32.455Z</time>
      </trkpt>
      <trkpt lat="48.27314" lon="-4.2879">
        <ele>10.5</ele>
        <time>2022-07-11T10:13:42.339Z</time>
      </trkpt>
      <trkpt lat="48.27316" lon="-4.28805">
        <ele>10.75</ele>
        <time>2022-07-11T10:13:52.213Z</time>
      </trkpt>
      <trkpt lat="48.27318" lon="-4.28815">
        <ele>10.75</ele>
        <time>2022-07-11T10:14:01.458Z</time>
      </trkpt>
      <trkpt lat="48.27318" lon="-4.28829">
        <ele>8.81</ele>
        <time>2022-07-11T10:14:10.718Z</time>
      </trkpt>
      <trkpt lat="48.27321" lon="-4.28845">
        <ele>9.75</ele>
        <time>2022-07-11T10:14:20.419Z</time>
      </trkpt>
      <trkpt lat="48.27324" lon="-4.2886">
        <ele>10.69</ele>
        <time>2022-07-11T10:14:29.555Z</time>
      </trkpt>
      <trkpt lat="48.27327" lon="-4.28875">
        <ele>11.75</ele>
        <time>2022-07-11T10:14:39.456Z</time>
      </trkpt>
      <trkpt lat="48.2733" lon="-4.28889">
        <ele>10.77</ele>
        <time>2022-07-11T10:14:48.975Z</time>
      </trkpt>
      <trkpt lat="48.27336" lon="-4.28903">
        <ele>10.75</ele>
        <time>2022-07-11T10:14:58.000Z</time>
      </trkpt>
      <trkpt lat="48.27338" lon="-4.28919">
        <ele>9.77</ele>
        <time>2022-07-11T10:15:07.477Z</time>
      </trkpt>
      <trkpt lat="48.2734" lon="-4.28931">
        <ele>9.69</ele>
        <time>2022-07-11T10:15:16.518Z</time>
      </trkpt>
      <trkpt lat="48.27342" lon="-4.28944">
        <ele>10.75</ele>
        <time>2022-07-11T10:15:26.314Z</time>
      </trkpt>
      <trkpt lat="48.27342" lon="-4.28958">
        <ele>9.75</ele>
        <time>2022-07-11T10:15:36.439Z</time>
      </trkpt>
      <trkpt lat="48.27343" lon="-4.28973">
        <ele>9.75</ele>
        <time>2022-07-11T10:15:46.320Z</time>
      </trkpt>
      <trkpt lat="48.27344" lon="-4.28985">
        <ele>9.75</ele>
        <time>2022-07-11T10:15:56.000Z</time>
      </trkpt>
      <trkpt lat="48.27343" lon="-4.28991">
        <ele>7.81</ele>
        <time>2022-07-11T10:16:06.161Z</time>
      </trkpt>
      <trkpt lat="48.27345" lon="-4.29007">
        <ele>6.75</ele>
        <time>2022-07-11T10:16:16.113Z</time>
      </trkpt>
      <trkpt lat="48.27347" lon="-4.2902">
        <ele>6.73</ele>
        <time>2022-07-11T10:16:25.396Z</time>
      </trkpt>
      <trkpt lat="48.27349" lon="-4.29035">
        <ele>6.75</ele>
        <time>2022-07-11T10:16:35.461Z</time>
      </trkpt>
      <trkpt lat="48.27351" lon="-4.29049">
        <ele>5.81</ele>
        <time>2022-07-11T10:16:45.338Z</time>
      </trkpt>
      <trkpt lat="48.27354" lon="-4.2906">
        <ele>6.81</ele>
        <time>2022-07-11T10:16:54.675Z</time>
      </trkpt>
      <trkpt lat="48.27354" lon="-4.29074">
        <ele>7.75</ele>
        <time>2022-07-11T10:17:04.335Z</time>
      </trkpt>
      <trkpt lat="48.27354" lon="-4.2909">
        <ele>6.75</ele>
        <time>2022-07-11T10:17:13.619Z</time>
      </trkpt>
      <trkpt lat="48.27354" lon="-4.29103">
        <ele>7.75</ele>
        <time>2022-07-11T10:17:23.675Z</time>
      </trkpt>
      <trkpt lat="48.27354" lon="-4.29105">
        <ele>7.75</ele>
        <time>2022-07-11T10:17:33.000Z</time>
      </trkpt>
      <trkpt lat="48.27353" lon="-4.29105">
        <ele>6.75</ele>
        <time>2022-07-11T10:17:56.637Z</time>
      </trkpt>
      <trkpt lat="48.27354" lon="-4.29118">
        <ele>7.73</ele>
        <time>2022-07-11T10:18:06.238Z</time>
      </trkpt>
      <trkpt lat="48.27357" lon="-4.29132">
        <ele>8.75</ele>
        <time>2022-07-11T10:18:15.713Z</time>
      </trkpt>
      <trkpt lat="48.27359" lon="-4.29146">
        <ele>8.5</ele>
        <time>2022-07-11T10:18:24.994Z</time>
      </trkpt>
      <trkpt lat="48.27361" lon="-4.29159">
        <ele>8.75</ele>
        <time>2022-07-11T10:18:34.476Z</time>
      </trkpt>
      <trkpt lat="48.2736" lon="-4.29174">
        <ele>9.51</ele>
        <time>2022-07-11T10:18:44.380Z</time>
      </trkpt>
      <trkpt lat="48.27358" lon="-4.29187">
        <ele>10.75</ele>
        <time>2022-07-11T10:18:53.515Z</time>
      </trkpt>
      <trkpt lat="48.27357" lon="-4.29202">
        <ele>10.75</ele>
        <time>2022-07-11T10:19:03.194Z</time>
      </trkpt>
      <trkpt lat="48.27356" lon="-4.29217">
        <ele>10.75</ele>
        <time>2022-07-11T10:19:12.518Z</time>
      </trkpt>
      <trkpt lat="48.27353" lon="-4.29234">
        <ele>9.75</ele>
        <time>2022-07-11T10:19:22.172Z</time>
      </trkpt>
      <trkpt lat="48.27355" lon="-4.29249">
        <ele>8.95</ele>
        <time>2022-07-11T10:19:31.677Z</time>
      </trkpt>
      <trkpt lat="48.27357" lon="-4.29265">
        <ele>7.75</ele>
        <time>2022-07-11T10:19:41.318Z</time>
      </trkpt>
      <trkpt lat="48.2736" lon="-4.29281">
        <ele>8.73</ele>
        <time>2022-07-11T10:19:51.000Z</time>
      </trkpt>
      <trkpt lat="48.27361" lon="-4.29288">
        <ele>9.74</ele>
        <time>2022-07-11T10:20:00.660Z</time>
      </trkpt>
      <trkpt lat="48.27364" lon="-4.29299">
        <ele>9.5</ele>
        <time>2022-07-11T10:20:10.291Z</time>
      </trkpt>
      <trkpt lat="48.27368" lon="-4.29316">
        <ele>9.75</ele>
        <time>2022-07-11T10:20:20.000Z</time>
      </trkpt>
      <trkpt lat="48.2737" lon="-4.2933">
        <ele>8.75</ele>
        <time>2022-07-11T10:20:29.617Z</time>
      </trkpt>
      <trkpt lat="48.27373" lon="-4.29342">
        <ele>9.73</ele>
        <time>2022-07-11T10:20:38.912Z</time>
      </trkpt>
      <trkpt lat="48.27379" lon="-4.29355">
        <ele>9.75</ele>
        <time>2022-07-11T10:20:47.973Z</time>
      </trkpt>
      <trkpt lat="48.27386" lon="-4.29361">
        <ele>9.75</ele>
        <time>2022-07-11T10:20:57.000Z</time>
      </trkpt>
      <trkpt lat="48.27387" lon="-4.29359">
        <ele>8.75</ele>
        <time>2022-07-11T10:21:06.473Z</time>
      </trkpt>
      <trkpt lat="48.27386" lon="-4.29364">
        <ele>7.75</ele>
        <time>2022-07-11T10:21:15.556Z</time>
      </trkpt>
      <trkpt lat="48.27377" lon="-4.29366">
        <ele>6.75</ele>
        <time>2022-07-11T10:21:25.000Z</time>
      </trkpt>
      <trkpt lat="48.27371" lon="-4.29356">
        <ele>7.75</ele>
        <time>2022-07-11T10:21:35.000Z</time>
      </trkpt>
      <trkpt lat="48.27376" lon="-4.29343">
        <ele>5.81</ele>
        <time>2022-07-11T10:21:45.153Z</time>
      </trkpt>
      <trkpt lat="48.27379" lon="-4.29338">
        <ele>3.77</ele>
        <time>2022-07-11T10:21:54.235Z</time>
      </trkpt>
      <trkpt lat="48.27381" lon="-4.2933">
        <ele>3.75</ele>
        <time>2022-07-11T10:22:04.000Z</time>
      </trkpt>
      <trkpt lat="48.27382" lon="-4.29329">
        <ele>3.75</ele>
        <time>2022-07-11T10:22:15.717Z</time>
      </trkpt>
      <trkpt lat="48.27382" lon="-4.29327">
        <ele>3.75</ele>
        <time>2022-07-11T10:22:25.000Z</time>
      </trkpt>
      <trkpt lat="48.27383" lon="-4.29328">
        <ele>2.76</ele>
        <time>2022-07-11T10:22:42.219Z</time>
      </trkpt>
      <trkpt lat="48.27385" lon="-4.29325">
        <ele>2.75</ele>
        <time>2022-07-11T10:22:52.000Z</time>
      </trkpt>
      <trkpt lat="48.27384" lon="-4.29326">
        <ele>3.75</ele>
        <time>2022-07-11T10:23:12.671Z</time>
      </trkpt>
      <trkpt lat="48.27383" lon="-4.29324">
        <ele>3.75</ele>
        <time>2022-07-11T10:23:22.000Z</time>
      </trkpt>
      <trkpt lat="48.27383" lon="-4.29322">
        <ele>3.75</ele>
        <time>2022-07-11T10:23:44.540Z</time>
      </trkpt>
      <trkpt lat="48.27384" lon="-4.29322">
        <ele>2.75</ele>
        <time>2022-07-11T10:24:00.000Z</time>
      </trkpt>
      <trkpt lat="48.27385" lon="-4.29322">
        <ele>0.75</ele>
        <time>2022-07-11T10:24:10.377Z</time>
      </trkpt>
      <trkpt lat="48.27386" lon="-4.29321">
        <ele>0.81</ele>
        <time>2022-07-11T10:24:39.277Z</time>
      </trkpt>
      <trkpt lat="48.27385" lon="-4.29319">
        <ele>1.75</ele>
        <time>2022-07-11T10:24:49.173Z</time>
      </trkpt>
      <trkpt lat="48.27383" lon="-4.29319">
        <ele>0.75</ele>
        <time>2022-07-11T10:24:59.000Z</time>
      </trkpt>
      <trkpt lat="48.27383" lon="-4.29321">
        <ele>0.75</ele>
        <time>2022-07-11T10:25:09.000Z</time>
      </trkpt>
      <trkpt lat="48.27384" lon="-4.2932">
        <ele>1.5</ele>
        <time>2022-07-11T10:25:44.000Z</time>
      </trkpt>
      <trkpt lat="48.27385" lon="-4.2932">
        <ele>1.81</ele>
        <time>2022-07-11T10:26:30.000Z</time>
      </trkpt>
      <trkpt lat="48.27385" lon="-4.29321">
        <ele>1</ele>
        <time>2022-07-11T10:26:43.000Z</time>
      </trkpt>
      <trkpt lat="48.27386" lon="-4.29322">
        <ele>0.75</ele>
        <time>2022-07-11T10:26:53.000Z</time>
      </trkpt>
      <trkpt lat="48.27387" lon="-4.29322">
        <ele>-1.25</ele>
        <time>2022-07-11T10:27:03.000Z</time>
      </trkpt>
      <trkpt lat="48.27387" lon="-4.29319">
        <ele>-1.25</ele>
        <time>2022-07-11T10:28:25.000Z</time>
      </trkpt>
      <trkpt lat="48.27387" lon="-4.29316">
        <ele>-3.25</ele>
        <time>2022-07-11T10:28:35.000Z</time>
      </trkpt>
      <trkpt lat="48.27386" lon="-4.29317">
        <ele>-3.25</ele>
        <time>2022-07-11T10:28:55.000Z</time>
      </trkpt>
      <trkpt lat="48.27386" lon="-4.29318">
        <ele>-1.24</ele>
        <time>2022-07-11T10:39:39.000Z</time>
      </trkpt>
      <trkpt lat="48.27387" lon="-4.29323">
        <ele>-3.25</ele>
        <time>2022-07-11T10:39:49.000Z</time>
      </trkpt>
      <trkpt lat="48.27387" lon="-4.29321">
        <ele>-3.02</ele>
        <time>2022-07-11T10:39:59.000Z</time>
      </trkpt>
      <trkpt lat="48.27386" lon="-4.29321">
        <ele>-3.19</ele>
        <time>2022-07-11T10:42:02.000Z</time>
      </trkpt>
      <trkpt lat="48.27388" lon="-4.29325">
        <ele>-3.25</ele>
        <time>2022-07-11T10:42:12.000Z</time>
      </trkpt>
      <trkpt lat="48.27387" lon="-4.29323">
        <ele>-6.19</ele>
        <time>2022-07-11T10:42:22.000Z</time>
      </trkpt>
      <trkpt lat="48.27388" lon="-4.29323">
        <ele>-4.25</ele>
        <time>2022-07-11T10:42:32.000Z</time>
      </trkpt>
      <trkpt lat="48.27389" lon="-4.29323">
        <ele>-3</ele>
        <time>2022-07-11T10:45:32.000Z</time>
      </trkpt>
      <trkpt lat="48.2739" lon="-4.29323">
        <ele>-0.27</ele>
        <time>2022-07-11T10:45:59.000Z</time>
      </trkpt>
      <trkpt lat="48.2739" lon="-4.29324">
        <ele>-1.19</ele>
        <time>2022-07-11T10:46:13.000Z</time>
      </trkpt>
      <trkpt lat="48.27391" lon="-4.29325">
        <ele>-0.25</ele>
        <time>2022-07-11T10:46:23.000Z</time>
      </trkpt>
      <trkpt lat="48.27389" lon="-4.29325">
        <ele>-1.19</ele>
        <time>2022-07-11T10:46:55.000Z</time>
      </trkpt>
      <trkpt lat="48.27386" lon="-4.29321">
        <ele>-1.25</ele>
        <time>2022-07-11T10:47:05.000Z</time>
      </trkpt>
      <trkpt lat="48.27386" lon="-4.29317">
        <ele>-1.25</ele>
        <time>2022-07-11T10:47:15.000Z</time>
      </trkpt>
      <trkpt lat="48.27385" lon="-4.29318">
        <ele>-1.25</ele>
        <time>2022-07-11T10:48:37.000Z</time>
      </trkpt>
      <trkpt lat="48.27384" lon="-4.29318">
        <ele>-1.25</ele>
        <time>2022-07-11T10:48:47.000Z</time>
      </trkpt>
      <trkpt lat="48.27385" lon="-4.29319">
        <ele>-0.31</ele>
        <time>2022-07-11T10:50:32.000Z</time>
      </trkpt>
      <trkpt lat="48.27385" lon="-4.29321">
        <ele>-1</ele>
        <time>2022-07-11T10:50:56.000Z</time>
      </trkpt>
      <trkpt lat="48.27384" lon="-4.2932">
        <ele>-1.26</ele>
        <time>2022-07-11T10:53:26.000Z</time>
      </trkpt>
      <trkpt lat="48.27383" lon="-4.29325">
        <ele>10.25</ele>
        <time>2022-07-11T10:58:35.762Z</time>
      </trkpt>
      <trkpt lat="48.27381" lon="-4.29322">
        <ele>22.75</ele>
        <time>2022-07-11T10:58:46.173Z</time>
      </trkpt>
      <trkpt lat="48.27382" lon="-4.29314">
        <ele>9.76</ele>
        <time>2022-07-11T10:58:56.225Z</time>
      </trkpt>
      <trkpt lat="48.27383" lon="-4.29317">
        <ele>9.75</ele>
        <time>2022-07-11T10:59:06.325Z</time>
      </trkpt>
      <trkpt lat="48.27385" lon="-4.29314">
        <ele>1.75</ele>
        <time>2022-07-11T10:59:16.000Z</time>
      </trkpt>
      <trkpt lat="48.27385" lon="-4.29316">
        <ele>2.5</ele>
        <time>2022-07-11T11:01:21.000Z</time>
      </trkpt>
      <trkpt lat="48.27385" lon="-4.29318">
        <ele>-0.25</ele>
        <time>2022-07-11T11:01:31.000Z</time>
      </trkpt>
      <trkpt lat="48.27386" lon="-4.2932">
        <ele>-0.21</ele>
        <time>2022-07-11T11:01:53.000Z</time>
      </trkpt>
      <trkpt lat="48.27387" lon="-4.29321">
        <ele>0.75</ele>
        <time>2022-07-11T11:02:02.233Z</time>
      </trkpt>
      <trkpt lat="48.27386" lon="-4.29322">
        <ele>0.75</ele>
        <time>2022-07-11T11:02:30.000Z</time>
      </trkpt>
      <trkpt lat="48.27387" lon="-4.29324">
        <ele>-0.25</ele>
        <time>2022-07-11T11:03:28.635Z</time>
      </trkpt>
      <trkpt lat="48.27385" lon="-4.29339">
        <ele>-0.25</ele>
        <time>2022-07-11T11:03:38.431Z</time>
      </trkpt>
      <trkpt lat="48.27384" lon="-4.29349">
        <ele>-0.25</ele>
        <time>2022-07-11T11:03:47.533Z</time>
      </trkpt>
      <trkpt lat="48.27377" lon="-4.29357">
        <ele>0.75</ele>
        <time>2022-07-11T11:03:57.000Z</time>
      </trkpt>
      <trkpt lat="48.27379" lon="-4.29365">
        <ele>2.75</ele>
        <time>2022-07-11T11:04:07.416Z</time>
      </trkpt>
      <trkpt lat="48.27383" lon="-4.29368">
        <ele>3.79</ele>
        <time>2022-07-11T11:04:16.673Z</time>
      </trkpt>
      <trkpt lat="48.27387" lon="-4.29368">
        <ele>4.75</ele>
        <time>2022-07-11T11:04:26.438Z</time>
      </trkpt>
      <trkpt lat="48.27387" lon="-4.29367">
        <ele>4.75</ele>
        <time>2022-07-11T11:04:36.000Z</time>
      </trkpt>
      <trkpt lat="48.27389" lon="-4.29362">
        <ele>3.75</ele>
        <time>2022-07-11T11:04:45.476Z</time>
      </trkpt>
      <trkpt lat="48.27393" lon="-4.29358">
        <ele>4.75</ele>
        <time>2022-07-11T11:04:55.140Z</time>
      </trkpt>
      <trkpt lat="48.27396" lon="-4.29354">
        <ele>6.74</ele>
        <time>2022-07-11T11:05:05.000Z</time>
      </trkpt>
      <trkpt lat="48.27399" lon="-4.2935">
        <ele>9.44</ele>
        <time>2022-07-11T11:05:15.000Z</time>
      </trkpt>
      <trkpt lat="48.27402" lon="-4.2935">
        <ele>9.75</ele>
        <time>2022-07-11T11:05:24.237Z</time>
      </trkpt>
      <trkpt lat="48.27403" lon="-4.29351">
        <ele>9.75</ele>
        <time>2022-07-11T11:05:34.556Z</time>
      </trkpt>
      <trkpt lat="48.27406" lon="-4.2935">
        <ele>10.75</ele>
        <time>2022-07-11T11:05:44.000Z</time>
      </trkpt>
      <trkpt lat="48.27409" lon="-4.2935">
        <ele>10.75</ele>
        <time>2022-07-11T11:05:53.534Z</time>
      </trkpt>
      <trkpt lat="48.27411" lon="-4.29352">
        <ele>11.74</ele>
        <time>2022-07-11T11:06:02.535Z</time>
      </trkpt>
      <trkpt lat="48.27412" lon="-4.29353">
        <ele>12.73</ele>
        <time>2022-07-11T11:06:12.715Z</time>
      </trkpt>
      <trkpt lat="48.27413" lon="-4.29355">
        <ele>13.69</ele>
        <time>2022-07-11T11:06:22.315Z</time>
      </trkpt>
      <trkpt lat="48.27418" lon="-4.29359">
        <ele>15.68</ele>
        <time>2022-07-11T11:06:32.000Z</time>
      </trkpt>
      <trkpt lat="48.27419" lon="-4.29361">
        <ele>15.75</ele>
        <time>2022-07-11T11:06:43.334Z</time>
      </trkpt>
      <trkpt lat="48.27422" lon="-4.29361">
        <ele>18.75</ele>
        <time>2022-07-11T11:06:53.000Z</time>
      </trkpt>
      <trkpt lat="48.27427" lon="-4.29365">
        <ele>17.81</ele>
        <time>2022-07-11T11:07:02.113Z</time>
      </trkpt>
      <trkpt lat="48.27429" lon="-4.2937">
        <ele>20.75</ele>
        <time>2022-07-11T11:07:11.712Z</time>
      </trkpt>
      <trkpt lat="48.27432" lon="-4.2937">
        <ele>21.75</ele>
        <time>2022-07-11T11:07:21.000Z</time>
      </trkpt>
      <trkpt lat="48.27435" lon="-4.2937">
        <ele>22.75</ele>
        <time>2022-07-11T11:07:31.478Z</time>
      </trkpt>
      <trkpt lat="48.27438" lon="-4.2937">
        <ele>25.75</ele>
        <time>2022-07-11T11:07:41.173Z</time>
      </trkpt>
      <trkpt lat="48.2744" lon="-4.2937">
        <ele>24.75</ele>
        <time>2022-07-11T11:07:50.436Z</time>
      </trkpt>
      <trkpt lat="48.27442" lon="-4.29369">
        <ele>26.75</ele>
        <time>2022-07-11T11:07:59.493Z</time>
      </trkpt>
      <trkpt lat="48.27445" lon="-4.29367">
        <ele>26.68</ele>
        <time>2022-07-11T11:08:09.000Z</time>
      </trkpt>
      <trkpt lat="48.27449" lon="-4.29363">
        <ele>26.75</ele>
        <time>2022-07-11T11:08:18.316Z</time>
      </trkpt>
      <trkpt lat="48.27453" lon="-4.29361">
        <ele>26.75</ele>
        <time>2022-07-11T11:08:27.557Z</time>
      </trkpt>
      <trkpt lat="48.27457" lon="-4.29363">
        <ele>30.74</ele>
        <time>2022-07-11T11:08:37.000Z</time>
      </trkpt>
      <trkpt lat="48.27463" lon="-4.29364">
        <ele>31.5</ele>
        <time>2022-07-11T11:08:46.319Z</time>
      </trkpt>
      <trkpt lat="48.27467" lon="-4.29364">
        <ele>32.81</ele>
        <time>2022-07-11T11:08:55.352Z</time>
      </trkpt>
      <trkpt lat="48.2747" lon="-4.29362">
        <ele>35.48</ele>
        <time>2022-07-11T11:09:05.000Z</time>
      </trkpt>
      <trkpt lat="48.27474" lon="-4.29361">
        <ele>35.75</ele>
        <time>2022-07-11T11:09:14.460Z</time>
      </trkpt>
      <trkpt lat="48.2748" lon="-4.2936">
        <ele>35.75</ele>
        <time>2022-07-11T11:09:24.298Z</time>
      </trkpt>
      <trkpt lat="48.27483" lon="-4.29357">
        <ele>37.75</ele>
        <time>2022-07-11T11:09:33.673Z</time>
      </trkpt>
      <trkpt lat="48.27485" lon="-4.29356">
        <ele>40.72</ele>
        <time>2022-07-11T11:09:43.678Z</time>
      </trkpt>
      <trkpt lat="48.27489" lon="-4.29351">
        <ele>39.75</ele>
        <time>2022-07-11T11:09:53.331Z</time>
      </trkpt>
      <trkpt lat="48.27491" lon="-4.29344">
        <ele>40.69</ele>
        <time>2022-07-11T11:10:03.436Z</time>
      </trkpt>
      <trkpt lat="48.27492" lon="-4.29336">
        <ele>40</ele>
        <time>2022-07-11T11:10:12.980Z</time>
      </trkpt>
      <trkpt lat="48.27495" lon="-4.29326">
        <ele>40.75</ele>
        <time>2022-07-11T11:10:22.220Z</time>
      </trkpt>
      <trkpt lat="48.27499" lon="-4.29314">
        <ele>40.75</ele>
        <time>2022-07-11T11:10:31.540Z</time>
      </trkpt>
      <trkpt lat="48.27504" lon="-4.29298">
        <ele>39.81</ele>
        <time>2022-07-11T11:10:41.514Z</time>
      </trkpt>
      <trkpt lat="48.27504" lon="-4.29286">
        <ele>41.69</ele>
        <time>2022-07-11T11:10:51.271Z</time>
      </trkpt>
      <trkpt lat="48.27507" lon="-4.29279">
        <ele>41.75</ele>
        <time>2022-07-11T11:11:00.316Z</time>
      </trkpt>
      <trkpt lat="48.27509" lon="-4.29269">
        <ele>41.75</ele>
        <time>2022-07-11T11:11:10.577Z</time>
      </trkpt>
      <trkpt lat="48.27511" lon="-4.29255">
        <ele>40.75</ele>
        <time>2022-07-11T11:11:19.701Z</time>
      </trkpt>
      <trkpt lat="48.27513" lon="-4.29245">
        <ele>39.8</ele>
        <time>2022-07-11T11:11:29.498Z</time>
      </trkpt>
      <trkpt lat="48.27517" lon="-4.29232">
        <ele>36.75</ele>
        <time>2022-07-11T11:11:38.738Z</time>
      </trkpt>
      <trkpt lat="48.27521" lon="-4.29221">
        <ele>37.75</ele>
        <time>2022-07-11T11:11:48.432Z</time>
      </trkpt>
      <trkpt lat="48.27525" lon="-4.29208">
        <ele>37.75</ele>
        <time>2022-07-11T11:11:57.538Z</time>
      </trkpt>
      <trkpt lat="48.27529" lon="-4.292">
        <ele>37.69</ele>
        <time>2022-07-11T11:12:07.334Z</time>
      </trkpt>
      <trkpt lat="48.27532" lon="-4.29188">
        <ele>37.81</ele>
        <time>2022-07-11T11:12:16.650Z</time>
      </trkpt>
      <trkpt lat="48.27532" lon="-4.29174">
        <ele>38.75</ele>
        <time>2022-07-11T11:12:26.115Z</time>
      </trkpt>
      <trkpt lat="48.27536" lon="-4.29163">
        <ele>38.75</ele>
        <time>2022-07-11T11:12:35.675Z</time>
      </trkpt>
      <trkpt lat="48.2754" lon="-4.29156">
        <ele>38.75</ele>
        <time>2022-07-11T11:12:45.277Z</time>
      </trkpt>
      <trkpt lat="48.27544" lon="-4.29144">
        <ele>39.75</ele>
        <time>2022-07-11T11:12:54.683Z</time>
      </trkpt>
      <trkpt lat="48.27546" lon="-4.29136">
        <ele>38.75</ele>
        <time>2022-07-11T11:13:04.117Z</time>
      </trkpt>
      <trkpt lat="48.27548" lon="-4.29122">
        <ele>37.75</ele>
        <time>2022-07-11T11:13:13.296Z</time>
      </trkpt>
      <trkpt lat="48.27548" lon="-4.29117">
        <ele>38.5</ele>
        <time>2022-07-11T11:13:23.071Z</time>
      </trkpt>
      <trkpt lat="48.27554" lon="-4.29099">
        <ele>37.69</ele>
        <time>2022-07-11T11:13:33.413Z</time>
      </trkpt>
      <trkpt lat="48.27555" lon="-4.29087">
        <ele>38.75</ele>
        <time>2022-07-11T11:13:42.693Z</time>
      </trkpt>
      <trkpt lat="48.27555" lon="-4.29073">
        <ele>38.52</ele>
        <time>2022-07-11T11:13:52.701Z</time>
      </trkpt>
      <trkpt lat="48.27557" lon="-4.2906">
        <ele>37.75</ele>
        <time>2022-07-11T11:14:02.378Z</time>
      </trkpt>
      <trkpt lat="48.27559" lon="-4.29049">
        <ele>36.81</ele>
        <time>2022-07-11T11:14:11.498Z</time>
      </trkpt>
      <trkpt lat="48.27558" lon="-4.29034">
        <ele>37.73</ele>
        <time>2022-07-11T11:14:21.113Z</time>
      </trkpt>
      <trkpt lat="48.27557" lon="-4.2902">
        <ele>38.75</ele>
        <time>2022-07-11T11:14:30.658Z</time>
      </trkpt>
      <trkpt lat="48.27559" lon="-4.29006">
        <ele>37.75</ele>
        <time>2022-07-11T11:14:40.657Z</time>
      </trkpt>
      <trkpt lat="48.27558" lon="-4.2899">
        <ele>35.75</ele>
        <time>2022-07-11T11:14:50.000Z</time>
      </trkpt>
      <trkpt lat="48.27561" lon="-4.2898">
        <ele>35.75</ele>
        <time>2022-07-11T11:14:59.096Z</time>
      </trkpt>
      <trkpt lat="48.27562" lon="-4.28974">
        <ele>35.75</ele>
        <time>2022-07-11T11:15:08.257Z</time>
      </trkpt>
      <trkpt lat="48.27565" lon="-4.28961">
        <ele>34.75</ele>
        <time>2022-07-11T11:15:17.898Z</time>
      </trkpt>
      <trkpt lat="48.27567" lon="-4.28951">
        <ele>36.75</ele>
        <time>2022-07-11T11:15:27.217Z</time>
      </trkpt>
      <trkpt lat="48.2757" lon="-4.28942">
        <ele>37.75</ele>
        <time>2022-07-11T11:15:36.313Z</time>
      </trkpt>
      <trkpt lat="48.27574" lon="-4.28928">
        <ele>36.75</ele>
        <time>2022-07-11T11:15:45.512Z</time>
      </trkpt>
      <trkpt lat="48.27576" lon="-4.28918">
        <ele>37.69</ele>
        <time>2022-07-11T11:15:54.673Z</time>
      </trkpt>
      <trkpt lat="48.27579" lon="-4.28908">
        <ele>35.75</ele>
        <time>2022-07-11T11:16:04.551Z</time>
      </trkpt>
      <trkpt lat="48.27583" lon="-4.28896">
        <ele>33.75</ele>
        <time>2022-07-11T11:16:13.714Z</time>
      </trkpt>
      <trkpt lat="48.27587" lon="-4.28882">
        <ele>31.77</ele>
        <time>2022-07-11T11:16:23.614Z</time>
      </trkpt>
      <trkpt lat="48.27592" lon="-4.28873">
        <ele>32.5</ele>
        <time>2022-07-11T11:16:33.651Z</time>
      </trkpt>
      <trkpt lat="48.27595" lon="-4.28862">
        <ele>32.75</ele>
        <time>2022-07-11T11:16:43.235Z</time>
      </trkpt>
      <trkpt lat="48.27595" lon="-4.28853">
        <ele>31.75</ele>
        <time>2022-07-11T11:16:52.458Z</time>
      </trkpt>
      <trkpt lat="48.27596" lon="-4.28842">
        <ele>31.75</ele>
        <time>2022-07-11T11:17:01.673Z</time>
      </trkpt>
      <trkpt lat="48.27599" lon="-4.28828">
        <ele>29.75</ele>
        <time>2022-07-11T11:17:11.314Z</time>
      </trkpt>
      <trkpt lat="48.27606" lon="-4.28812">
        <ele>28.75</ele>
        <time>2022-07-11T11:17:20.342Z</time>
      </trkpt>
      <trkpt lat="48.2761" lon="-4.28799">
        <ele>29.75</ele>
        <time>2022-07-11T11:17:29.455Z</time>
      </trkpt>
      <trkpt lat="48.27612" lon="-4.2879">
        <ele>29.75</ele>
        <time>2022-07-11T11:17:38.537Z</time>
      </trkpt>
      <trkpt lat="48.27617" lon="-4.28775">
        <ele>29.5</ele>
        <time>2022-07-11T11:17:47.660Z</time>
      </trkpt>
      <trkpt lat="48.27619" lon="-4.28764">
        <ele>29.74</ele>
        <time>2022-07-11T11:17:57.211Z</time>
      </trkpt>
      <trkpt lat="48.27622" lon="-4.2875">
        <ele>28.76</ele>
        <time>2022-07-11T11:18:06.434Z</time>
      </trkpt>
      <trkpt lat="48.27628" lon="-4.28743">
        <ele>31.67</ele>
        <time>2022-07-11T11:18:16.000Z</time>
      </trkpt>
      <trkpt lat="48.27628" lon="-4.28742">
        <ele>30.75</ele>
        <time>2022-07-11T11:18:28.454Z</time>
      </trkpt>
      <trkpt lat="48.2763" lon="-4.28734">
        <ele>32.75</ele>
        <time>2022-07-11T11:18:38.572Z</time>
      </trkpt>
      <trkpt lat="48.27632" lon="-4.2872">
        <ele>34.75</ele>
        <time>2022-07-11T11:18:48.315Z</time>
      </trkpt>
      <trkpt lat="48.27634" lon="-4.28707">
        <ele>34.75</ele>
        <time>2022-07-11T11:18:58.355Z</time>
      </trkpt>
      <trkpt lat="48.27641" lon="-4.28692">
        <ele>34.75</ele>
        <time>2022-07-11T11:19:08.392Z</time>
      </trkpt>
      <trkpt lat="48.27644" lon="-4.28678">
        <ele>33.75</ele>
        <time>2022-07-11T11:19:18.438Z</time>
      </trkpt>
      <trkpt lat="48.27646" lon="-4.28667">
        <ele>34.75</ele>
        <time>2022-07-11T11:19:28.697Z</time>
      </trkpt>
      <trkpt lat="48.27646" lon="-4.2865">
        <ele>35.75</ele>
        <time>2022-07-11T11:19:38.196Z</time>
      </trkpt>
      <trkpt lat="48.27649" lon="-4.2864">
        <ele>34.76</ele>
        <time>2022-07-11T11:19:48.000Z</time>
      </trkpt>
      <trkpt lat="48.27653" lon="-4.2863">
        <ele>31.01</ele>
        <time>2022-07-11T11:19:57.061Z</time>
      </trkpt>
      <trkpt lat="48.2766" lon="-4.2862">
        <ele>28.77</ele>
        <time>2022-07-11T11:20:06.414Z</time>
      </trkpt>
      <trkpt lat="48.27664" lon="-4.28607">
        <ele>27.75</ele>
        <time>2022-07-11T11:20:15.511Z</time>
      </trkpt>
      <trkpt lat="48.27671" lon="-4.28591">
        <ele>26.75</ele>
        <time>2022-07-11T11:20:25.493Z</time>
      </trkpt>
      <trkpt lat="48.27678" lon="-4.28578">
        <ele>26.76</ele>
        <time>2022-07-11T11:20:34.972Z</time>
      </trkpt>
      <trkpt lat="48.27683" lon="-4.28573">
        <ele>25.82</ele>
        <time>2022-07-11T11:20:44.000Z</time>
      </trkpt>
      <trkpt lat="48.27684" lon="-4.28572">
        <ele>25.75</ele>
        <time>2022-07-11T11:20:54.000Z</time>
      </trkpt>
      <trkpt lat="48.27685" lon="-4.28573">
        <ele>27.63</ele>
        <time>2022-07-11T11:21:14.358Z</time>
      </trkpt>
      <trkpt lat="48.27691" lon="-4.28572">
        <ele>28.75</ele>
        <time>2022-07-11T11:21:23.617Z</time>
      </trkpt>
      <trkpt lat="48.27699" lon="-4.28571">
        <ele>28.75</ele>
        <time>2022-07-11T11:21:33.000Z</time>
      </trkpt>
      <trkpt lat="48.277" lon="-4.2857">
        <ele>28.75</ele>
        <time>2022-07-11T11:21:48.555Z</time>
      </trkpt>
      <trkpt lat="48.27705" lon="-4.28568">
        <ele>29.69</ele>
        <time>2022-07-11T11:21:57.599Z</time>
      </trkpt>
      <trkpt lat="48.27713" lon="-4.28567">
        <ele>30.69</ele>
        <time>2022-07-11T11:22:06.652Z</time>
      </trkpt>
      <trkpt lat="48.27719" lon="-4.28566">
        <ele>30.75</ele>
        <time>2022-07-11T11:22:16.412Z</time>
      </trkpt>
      <trkpt lat="48.27724" lon="-4.28564">
        <ele>31.76</ele>
        <time>2022-07-11T11:22:25.539Z</time>
      </trkpt>
      <trkpt lat="48.27729" lon="-4.28562">
        <ele>32.75</ele>
        <time>2022-07-11T11:22:34.698Z</time>
      </trkpt>
      <trkpt lat="48.27736" lon="-4.28559">
        <ele>33.74</ele>
        <time>2022-07-11T11:22:44.000Z</time>
      </trkpt>
      <trkpt lat="48.27743" lon="-4.28555">
        <ele>35.74</ele>
        <time>2022-07-11T11:22:53.551Z</time>
      </trkpt>
      <trkpt lat="48.27744" lon="-4.28551">
        <ele>35.75</ele>
        <time>2022-07-11T11:23:02.672Z</time>
      </trkpt>
      <trkpt lat="48.2775" lon="-4.28547">
        <ele>37.5</ele>
        <time>2022-07-11T11:23:12.000Z</time>
      </trkpt>
      <trkpt lat="48.27755" lon="-4.28546">
        <ele>38.75</ele>
        <time>2022-07-11T11:23:21.175Z</time>
      </trkpt>
      <trkpt lat="48.27761" lon="-4.28543">
        <ele>38.52</ele>
        <time>2022-07-11T11:23:30.232Z</time>
      </trkpt>
      <trkpt lat="48.27768" lon="-4.28541">
        <ele>38.75</ele>
        <time>2022-07-11T11:23:40.417Z</time>
      </trkpt>
      <trkpt lat="48.27776" lon="-4.2854">
        <ele>39.75</ele>
        <time>2022-07-11T11:23:50.573Z</time>
      </trkpt>
      <trkpt lat="48.27781" lon="-4.28538">
        <ele>40.69</ele>
        <time>2022-07-11T11:24:00.554Z</time>
      </trkpt>
      <trkpt lat="48.27787" lon="-4.28534">
        <ele>41.75</ele>
        <time>2022-07-11T11:24:10.000Z</time>
      </trkpt>
      <trkpt lat="48.27791" lon="-4.2853">
        <ele>41.75</ele>
        <time>2022-07-11T11:24:20.000Z</time>
      </trkpt>
      <trkpt lat="48.27793" lon="-4.2853">
        <ele>41.75</ele>
        <time>2022-07-11T11:24:30.000Z</time>
      </trkpt>
      <trkpt lat="48.27794" lon="-4.28529">
        <ele>41.75</ele>
        <time>2022-07-11T11:24:46.000Z</time>
      </trkpt>
      <trkpt lat="48.27796" lon="-4.28528">
        <ele>41.74</ele>
        <time>2022-07-11T11:24:55.594Z</time>
      </trkpt>
      <trkpt lat="48.278" lon="-4.2853">
        <ele>42.75</ele>
        <time>2022-07-11T11:25:05.000Z</time>
      </trkpt>
      <trkpt lat="48.27805" lon="-4.2853">
        <ele>43.75</ele>
        <time>2022-07-11T11:25:15.557Z</time>
      </trkpt>
      <trkpt lat="48.27812" lon="-4.28532">
        <ele>42.8</ele>
        <time>2022-07-11T11:25:25.000Z</time>
      </trkpt>
      <trkpt lat="48.27818" lon="-4.28534">
        <ele>43.75</ele>
        <time>2022-07-11T11:25:35.332Z</time>
      </trkpt>
      <trkpt lat="48.27826" lon="-4.28537">
        <ele>44.75</ele>
        <time>2022-07-11T11:25:45.000Z</time>
      </trkpt>
      <trkpt lat="48.2783" lon="-4.28539">
        <ele>45.75</ele>
        <time>2022-07-11T11:25:54.554Z</time>
      </trkpt>
      <trkpt lat="48.27837" lon="-4.28543">
        <ele>47.75</ele>
        <time>2022-07-11T11:26:04.337Z</time>
      </trkpt>
      <trkpt lat="48.27839" lon="-4.28545">
        <ele>47.75</ele>
        <time>2022-07-11T11:26:13.715Z</time>
      </trkpt>
      <trkpt lat="48.27845" lon="-4.28544">
        <ele>47</ele>
        <time>2022-07-11T11:26:23.439Z</time>
      </trkpt>
      <trkpt lat="48.27849" lon="-4.28544">
        <ele>48.75</ele>
        <time>2022-07-11T11:26:32.458Z</time>
      </trkpt>
      <trkpt lat="48.27854" lon="-4.28548">
        <ele>48.75</ele>
        <time>2022-07-11T11:26:42.441Z</time>
      </trkpt>
      <trkpt lat="48.27863" lon="-4.28551">
        <ele>48.8</ele>
        <time>2022-07-11T11:26:52.532Z</time>
      </trkpt>
      <trkpt lat="48.27873" lon="-4.28551">
        <ele>49.5</ele>
        <time>2022-07-11T11:27:02.638Z</time>
      </trkpt>
      <trkpt lat="48.27882" lon="-4.28557">
        <ele>50.75</ele>
        <time>2022-07-11T11:27:12.478Z</time>
      </trkpt>
      <trkpt lat="48.27889" lon="-4.28563">
        <ele>52.5</ele>
        <time>2022-07-11T11:27:21.815Z</time>
      </trkpt>
      <trkpt lat="48.27895" lon="-4.28566">
        <ele>52.75</ele>
        <time>2022-07-11T11:27:31.076Z</time>
      </trkpt>
      <trkpt lat="48.27899" lon="-4.28569">
        <ele>52</ele>
        <time>2022-07-11T11:27:40.158Z</time>
      </trkpt>
      <trkpt lat="48.27905" lon="-4.28574">
        <ele>52.76</ele>
        <time>2022-07-11T11:27:49.534Z</time>
      </trkpt>
      <trkpt lat="48.2791" lon="-4.28577">
        <ele>52.75</ele>
        <time>2022-07-11T11:27:59.633Z</time>
      </trkpt>
      <trkpt lat="48.27914" lon="-4.28582">
        <ele>51.75</ele>
        <time>2022-07-11T11:28:08.955Z</time>
      </trkpt>
      <trkpt lat="48.27921" lon="-4.28588">
        <ele>49.75</ele>
        <time>2022-07-11T11:28:18.538Z</time>
      </trkpt>
      <trkpt lat="48.27924" lon="-4.28593">
        <ele>48</ele>
        <time>2022-07-11T11:28:27.693Z</time>
      </trkpt>
      <trkpt lat="48.27931" lon="-4.28602">
        <ele>46.71</ele>
        <time>2022-07-11T11:28:37.493Z</time>
      </trkpt>
      <trkpt lat="48.27934" lon="-4.28613">
        <ele>45.75</ele>
        <time>2022-07-11T11:28:46.652Z</time>
      </trkpt>
      <trkpt lat="48.27936" lon="-4.28626">
        <ele>47.5</ele>
        <time>2022-07-11T11:28:56.052Z</time>
      </trkpt>
      <trkpt lat="48.2794" lon="-4.28635">
        <ele>46.76</ele>
        <time>2022-07-11T11:29:05.217Z</time>
      </trkpt>
      <trkpt lat="48.27943" lon="-4.28651">
        <ele>45.75</ele>
        <time>2022-07-11T11:29:14.716Z</time>
      </trkpt>
      <trkpt lat="48.27946" lon="-4.28667">
        <ele>44.77</ele>
        <time>2022-07-11T11:29:24.500Z</time>
      </trkpt>
      <trkpt lat="48.27945" lon="-4.28682">
        <ele>44.75</ele>
        <time>2022-07-11T11:29:34.632Z</time>
      </trkpt>
      <trkpt lat="48.27946" lon="-4.28696">
        <ele>44</ele>
        <time>2022-07-11T11:29:44.000Z</time>
      </trkpt>
      <trkpt lat="48.27945" lon="-4.28713">
        <ele>39.76</ele>
        <time>2022-07-11T11:29:53.138Z</time>
      </trkpt>
      <trkpt lat="48.27941" lon="-4.28724">
        <ele>36.75</ele>
        <time>2022-07-11T11:30:02.272Z</time>
      </trkpt>
      <trkpt lat="48.27935" lon="-4.28736">
        <ele>36.75</ele>
        <time>2022-07-11T11:30:12.432Z</time>
      </trkpt>
      <trkpt lat="48.27936" lon="-4.28747">
        <ele>36.81</ele>
        <time>2022-07-11T11:30:22.198Z</time>
      </trkpt>
      <trkpt lat="48.27939" lon="-4.28758">
        <ele>35.81</ele>
        <time>2022-07-11T11:30:31.557Z</time>
      </trkpt>
      <trkpt lat="48.2794" lon="-4.28774">
        <ele>34.7</ele>
        <time>2022-07-11T11:30:40.934Z</time>
      </trkpt>
      <trkpt lat="48.27941" lon="-4.28788">
        <ele>33.75</ele>
        <time>2022-07-11T11:30:50.275Z</time>
      </trkpt>
      <trkpt lat="48.27943" lon="-4.28797">
        <ele>32.75</ele>
        <time>2022-07-11T11:30:59.598Z</time>
      </trkpt>
      <trkpt lat="48.27941" lon="-4.28813">
        <ele>32.7</ele>
        <time>2022-07-11T11:31:09.078Z</time>
      </trkpt>
      <trkpt lat="48.27943" lon="-4.28821">
        <ele>33.75</ele>
        <time>2022-07-11T11:31:18.398Z</time>
      </trkpt>
      <trkpt lat="48.27943" lon="-4.28829">
        <ele>33.75</ele>
        <time>2022-07-11T11:31:28.498Z</time>
      </trkpt>
      <trkpt lat="48.27948" lon="-4.28844">
        <ele>33.75</ele>
        <time>2022-07-11T11:31:38.576Z</time>
      </trkpt>
      <trkpt lat="48.27953" lon="-4.28857">
        <ele>35.74</ele>
        <time>2022-07-11T11:31:48.119Z</time>
      </trkpt>
      <trkpt lat="48.27958" lon="-4.28867">
        <ele>36.75</ele>
        <time>2022-07-11T11:31:57.521Z</time>
      </trkpt>
      <trkpt lat="48.27961" lon="-4.28877">
        <ele>35.75</ele>
        <time>2022-07-11T11:32:07.517Z</time>
      </trkpt>
      <trkpt lat="48.27964" lon="-4.28888">
        <ele>36.75</ele>
        <time>2022-07-11T11:32:17.900Z</time>
      </trkpt>
      <trkpt lat="48.27971" lon="-4.28899">
        <ele>37.75</ele>
        <time>2022-07-11T11:32:27.195Z</time>
      </trkpt>
      <trkpt lat="48.27974" lon="-4.28908">
        <ele>36.75</ele>
        <time>2022-07-11T11:32:36.713Z</time>
      </trkpt>
      <trkpt lat="48.27978" lon="-4.2892">
        <ele>37.75</ele>
        <time>2022-07-11T11:32:46.255Z</time>
      </trkpt>
      <trkpt lat="48.27986" lon="-4.28935">
        <ele>35.77</ele>
        <time>2022-07-11T11:32:56.212Z</time>
      </trkpt>
      <trkpt lat="48.27989" lon="-4.28949">
        <ele>34</ele>
        <time>2022-07-11T11:33:05.333Z</time>
      </trkpt>
      <trkpt lat="48.27993" lon="-4.28959">
        <ele>32.75</ele>
        <time>2022-07-11T11:33:14.692Z</time>
      </trkpt>
      <trkpt lat="48.27997" lon="-4.28969">
        <ele>32.52</ele>
        <time>2022-07-11T11:33:24.193Z</time>
      </trkpt>
      <trkpt lat="48.27998" lon="-4.28983">
        <ele>30.77</ele>
        <time>2022-07-11T11:33:33.657Z</time>
      </trkpt>
      <trkpt lat="48.28002" lon="-4.28996">
        <ele>27.75</ele>
        <time>2022-07-11T11:33:43.000Z</time>
      </trkpt>
      <trkpt lat="48.28004" lon="-4.29004">
        <ele>26.75</ele>
        <time>2022-07-11T11:33:52.432Z</time>
      </trkpt>
      <trkpt lat="48.28007" lon="-4.2902">
        <ele>26.8</ele>
        <time>2022-07-11T11:34:02.000Z</time>
      </trkpt>
      <trkpt lat="48.28012" lon="-4.29031">
        <ele>27.75</ele>
        <time>2022-07-11T11:34:11.218Z</time>
      </trkpt>
      <trkpt lat="48.28024" lon="-4.2904">
        <ele>29.74</ele>
        <time>2022-07-11T11:34:20.492Z</time>
      </trkpt>
      <trkpt lat="48.2803" lon="-4.2905">
        <ele>28.75</ele>
        <time>2022-07-11T11:34:30.232Z</time>
      </trkpt>
      <trkpt lat="48.28035" lon="-4.29061">
        <ele>28.75</ele>
        <time>2022-07-11T11:34:39.517Z</time>
      </trkpt>
      <trkpt lat="48.28044" lon="-4.29075">
        <ele>25</ele>
        <time>2022-07-11T11:34:49.475Z</time>
      </trkpt>
      <trkpt lat="48.28051" lon="-4.29084">
        <ele>22</ele>
        <time>2022-07-11T11:34:58.652Z</time>
      </trkpt>
      <trkpt lat="48.28055" lon="-4.29094">
        <ele>20.75</ele>
        <time>2022-07-11T11:35:07.697Z</time>
      </trkpt>
      <trkpt lat="48.28056" lon="-4.29097">
        <ele>19.75</ele>
        <time>2022-07-11T11:35:17.036Z</time>
      </trkpt>
      <trkpt lat="48.28059" lon="-4.29103">
        <ele>19.73</ele>
        <time>2022-07-11T11:35:26.319Z</time>
      </trkpt>
      <trkpt lat="48.28063" lon="-4.29109">
        <ele>21.69</ele>
        <time>2022-07-11T11:35:35.696Z</time>
      </trkpt>
      <trkpt lat="48.28069" lon="-4.29117">
        <ele>22.81</ele>
        <time>2022-07-11T11:35:45.233Z</time>
      </trkpt>
      <trkpt lat="48.28075" lon="-4.29117">
        <ele>23.75</ele>
        <time>2022-07-11T11:35:55.360Z</time>
      </trkpt>
      <trkpt lat="48.28077" lon="-4.29117">
        <ele>23.75</ele>
        <time>2022-07-11T11:36:05.000Z</time>
      </trkpt>
      <trkpt lat="48.28077" lon="-4.29118">
        <ele>23.75</ele>
        <time>2022-07-11T11:36:27.000Z</time>
      </trkpt>
      <trkpt lat="48.28084" lon="-4.29116">
        <ele>23.75</ele>
        <time>2022-07-11T11:36:36.533Z</time>
      </trkpt>
      <trkpt lat="48.28091" lon="-4.2911">
        <ele>24.75</ele>
        <time>2022-07-11T11:36:46.176Z</time>
      </trkpt>
      <trkpt lat="48.28098" lon="-4.29103">
        <ele>25.75</ele>
        <time>2022-07-11T11:36:55.634Z</time>
      </trkpt>
      <trkpt lat="48.28106" lon="-4.29096">
        <ele>26.75</ele>
        <time>2022-07-11T11:37:04.839Z</time>
      </trkpt>
      <trkpt lat="48.28114" lon="-4.29091">
        <ele>25.75</ele>
        <time>2022-07-11T11:37:14.175Z</time>
      </trkpt>
      <trkpt lat="48.28121" lon="-4.29086">
        <ele>24.75</ele>
        <time>2022-07-11T11:37:23.613Z</time>
      </trkpt>
      <trkpt lat="48.28126" lon="-4.29078">
        <ele>24.75</ele>
        <time>2022-07-11T11:37:32.999Z</time>
      </trkpt>
      <trkpt lat="48.28135" lon="-4.29068">
        <ele>24.75</ele>
        <time>2022-07-11T11:37:42.333Z</time>
      </trkpt>
      <trkpt lat="48.28142" lon="-4.29061">
        <ele>25.69</ele>
        <time>2022-07-11T11:37:51.635Z</time>
      </trkpt>
      <trkpt lat="48.28151" lon="-4.29054">
        <ele>25.75</ele>
        <time>2022-07-11T11:38:01.377Z</time>
      </trkpt>
      <trkpt lat="48.2816" lon="-4.29048">
        <ele>24.75</ele>
        <time>2022-07-11T11:38:10.632Z</time>
      </trkpt>
      <trkpt lat="48.2817" lon="-4.29041">
        <ele>23.75</ele>
        <time>2022-07-11T11:38:20.000Z</time>
      </trkpt>
      <trkpt lat="48.28177" lon="-4.29033">
        <ele>24.75</ele>
        <time>2022-07-11T11:38:29.414Z</time>
      </trkpt>
      <trkpt lat="48.28184" lon="-4.29024">
        <ele>23.75</ele>
        <time>2022-07-11T11:38:39.475Z</time>
      </trkpt>
      <trkpt lat="48.28187" lon="-4.29019">
        <ele>23.75</ele>
        <time>2022-07-11T11:38:49.519Z</time>
      </trkpt>
      <trkpt lat="48.2819" lon="-4.29014">
        <ele>24.75</ele>
        <time>2022-07-11T11:38:58.678Z</time>
      </trkpt>
      <trkpt lat="48.28195" lon="-4.29004">
        <ele>25.75</ele>
        <time>2022-07-11T11:39:08.381Z</time>
      </trkpt>
      <trkpt lat="48.28203" lon="-4.28996">
        <ele>24.75</ele>
        <time>2022-07-11T11:39:18.615Z</time>
      </trkpt>
      <trkpt lat="48.28206" lon="-4.28993">
        <ele>26.75</ele>
        <time>2022-07-11T11:39:28.475Z</time>
      </trkpt>
      <trkpt lat="48.2821" lon="-4.28987">
        <ele>27.75</ele>
        <time>2022-07-11T11:39:37.675Z</time>
      </trkpt>
      <trkpt lat="48.28216" lon="-4.28977">
        <ele>29.73</ele>
        <time>2022-07-11T11:39:47.157Z</time>
      </trkpt>
      <trkpt lat="48.28221" lon="-4.28971">
        <ele>29.75</ele>
        <time>2022-07-11T11:39:56.178Z</time>
      </trkpt>
      <trkpt lat="48.28224" lon="-4.28967">
        <ele>31.75</ele>
        <time>2022-07-11T11:40:05.312Z</time>
      </trkpt>
      <trkpt lat="48.28229" lon="-4.28957">
        <ele>31.81</ele>
        <time>2022-07-11T11:40:15.434Z</time>
      </trkpt>
      <trkpt lat="48.28236" lon="-4.2895">
        <ele>32.72</ele>
        <time>2022-07-11T11:40:25.000Z</time>
      </trkpt>
      <trkpt lat="48.28239" lon="-4.2895">
        <ele>28.77</ele>
        <time>2022-07-11T11:40:34.417Z</time>
      </trkpt>
      <trkpt lat="48.28243" lon="-4.28949">
        <ele>26.77</ele>
        <time>2022-07-11T11:40:44.000Z</time>
      </trkpt>
      <trkpt lat="48.28245" lon="-4.28948">
        <ele>26.75</ele>
        <time>2022-07-11T11:40:54.000Z</time>
      </trkpt>
      <trkpt lat="48.28245" lon="-4.28947">
        <ele>26.75</ele>
        <time>2022-07-11T11:41:48.000Z</time>
      </trkpt>
      <trkpt lat="48.28247" lon="-4.28946">
        <ele>26.75</ele>
        <time>2022-07-11T11:41:58.000Z</time>
      </trkpt>
      <trkpt lat="48.28249" lon="-4.28947">
        <ele>26.75</ele>
        <time>2022-07-11T11:43:41.000Z</time>
      </trkpt>
      <trkpt lat="48.28249" lon="-4.28946">
        <ele>26.75</ele>
        <time>2022-07-11T11:43:55.354Z</time>
      </trkpt>
      <trkpt lat="48.28251" lon="-4.2894">
        <ele>27.74</ele>
        <time>2022-07-11T11:44:04.577Z</time>
      </trkpt>
      <trkpt lat="48.28256" lon="-4.28933">
        <ele>28.75</ele>
        <time>2022-07-11T11:44:14.573Z</time>
      </trkpt>
      <trkpt lat="48.28262" lon="-4.28926">
        <ele>30.5</ele>
        <time>2022-07-11T11:44:24.139Z</time>
      </trkpt>
      <trkpt lat="48.28267" lon="-4.28916">
        <ele>30.73</ele>
        <time>2022-07-11T11:44:33.377Z</time>
      </trkpt>
      <trkpt lat="48.28272" lon="-4.2891">
        <ele>30.75</ele>
        <time>2022-07-11T11:44:42.535Z</time>
      </trkpt>
      <trkpt lat="48.28276" lon="-4.28904">
        <ele>32.73</ele>
        <time>2022-07-11T11:44:52.578Z</time>
      </trkpt>
      <trkpt lat="48.28279" lon="-4.28897">
        <ele>34.67</ele>
        <time>2022-07-11T11:45:02.453Z</time>
      </trkpt>
      <trkpt lat="48.28284" lon="-4.28892">
        <ele>34.75</ele>
        <time>2022-07-11T11:45:11.716Z</time>
      </trkpt>
      <trkpt lat="48.2829" lon="-4.28884">
        <ele>35.75</ele>
        <time>2022-07-11T11:45:21.472Z</time>
      </trkpt>
      <trkpt lat="48.28294" lon="-4.28878">
        <ele>37.75</ele>
        <time>2022-07-11T11:45:30.518Z</time>
      </trkpt>
      <trkpt lat="48.28301" lon="-4.28872">
        <ele>37.81</ele>
        <time>2022-07-11T11:45:39.579Z</time>
      </trkpt>
      <trkpt lat="48.2831" lon="-4.28863">
        <ele>38.76</ele>
        <time>2022-07-11T11:45:49.216Z</time>
      </trkpt>
      <trkpt lat="48.28315" lon="-4.28857">
        <ele>39.81</ele>
        <time>2022-07-11T11:45:58.653Z</time>
      </trkpt>
      <trkpt lat="48.28319" lon="-4.28849">
        <ele>42.74</ele>
        <time>2022-07-11T11:46:08.138Z</time>
      </trkpt>
      <trkpt lat="48.28324" lon="-4.28842">
        <ele>42.77</ele>
        <time>2022-07-11T11:46:18.481Z</time>
      </trkpt>
      <trkpt lat="48.28328" lon="-4.28836">
        <ele>43.5</ele>
        <time>2022-07-11T11:46:28.000Z</time>
      </trkpt>
      <trkpt lat="48.28333" lon="-4.2883">
        <ele>44.75</ele>
        <time>2022-07-11T11:46:37.675Z</time>
      </trkpt>
      <trkpt lat="48.28341" lon="-4.28822">
        <ele>46.75</ele>
        <time>2022-07-11T11:46:47.138Z</time>
      </trkpt>
      <trkpt lat="48.28348" lon="-4.28812">
        <ele>45.75</ele>
        <time>2022-07-11T11:46:56.392Z</time>
      </trkpt>
      <trkpt lat="48.28357" lon="-4.28802">
        <ele>45.75</ele>
        <time>2022-07-11T11:47:06.575Z</time>
      </trkpt>
      <trkpt lat="48.28364" lon="-4.28791">
        <ele>47.74</ele>
        <time>2022-07-11T11:47:16.133Z</time>
      </trkpt>
      <trkpt lat="48.28372" lon="-4.28779">
        <ele>47.75</ele>
        <time>2022-07-11T11:47:26.258Z</time>
      </trkpt>
      <trkpt lat="48.28378" lon="-4.2877">
        <ele>47.69</ele>
        <time>2022-07-11T11:47:35.707Z</time>
      </trkpt>
      <trkpt lat="48.28384" lon="-4.28761">
        <ele>48</ele>
        <time>2022-07-11T11:47:45.133Z</time>
      </trkpt>
      <trkpt lat="48.28391" lon="-4.2875">
        <ele>48.69</ele>
        <time>2022-07-11T11:47:54.433Z</time>
      </trkpt>
      <trkpt lat="48.28398" lon="-4.28743">
        <ele>47.75</ele>
        <time>2022-07-11T11:48:04.477Z</time>
      </trkpt>
      <trkpt lat="48.28407" lon="-4.28734">
        <ele>48.69</ele>
        <time>2022-07-11T11:48:14.197Z</time>
      </trkpt>
      <trkpt lat="48.28417" lon="-4.28724">
        <ele>48.75</ele>
        <time>2022-07-11T11:48:23.476Z</time>
      </trkpt>
      <trkpt lat="48.28425" lon="-4.2872">
        <ele>48.76</ele>
        <time>2022-07-11T11:48:32.892Z</time>
      </trkpt>
      <trkpt lat="48.28435" lon="-4.28714">
        <ele>49.75</ele>
        <time>2022-07-11T11:48:42.000Z</time>
      </trkpt>
      <trkpt lat="48.28445" lon="-4.28707">
        <ele>49.75</ele>
        <time>2022-07-11T11:48:51.459Z</time>
      </trkpt>
      <trkpt lat="48.28457" lon="-4.28703">
        <ele>50.75</ele>
        <time>2022-07-11T11:49:01.374Z</time>
      </trkpt>
      <trkpt lat="48.28467" lon="-4.28701">
        <ele>51.99</ele>
        <time>2022-07-11T11:49:10.700Z</time>
      </trkpt>
      <trkpt lat="48.28478" lon="-4.28699">
        <ele>52.5</ele>
        <time>2022-07-11T11:49:19.953Z</time>
      </trkpt>
      <trkpt lat="48.28487" lon="-4.28695">
        <ele>52.75</ele>
        <time>2022-07-11T11:49:29.299Z</time>
      </trkpt>
      <trkpt lat="48.28495" lon="-4.28692">
        <ele>52.75</ele>
        <time>2022-07-11T11:49:38.418Z</time>
      </trkpt>
      <trkpt lat="48.28508" lon="-4.28689">
        <ele>53.75</ele>
        <time>2022-07-11T11:49:48.615Z</time>
      </trkpt>
      <trkpt lat="48.28519" lon="-4.28685">
        <ele>53.75</ele>
        <time>2022-07-11T11:49:57.616Z</time>
      </trkpt>
      <trkpt lat="48.2853" lon="-4.28684">
        <ele>54.69</ele>
        <time>2022-07-11T11:50:07.456Z</time>
      </trkpt>
      <trkpt lat="48.2854" lon="-4.28683">
        <ele>55.75</ele>
        <time>2022-07-11T11:50:16.596Z</time>
      </trkpt>
      <trkpt lat="48.2855" lon="-4.28682">
        <ele>54.75</ele>
        <time>2022-07-11T11:50:26.115Z</time>
      </trkpt>
      <trkpt lat="48.28559" lon="-4.28683">
        <ele>54.75</ele>
        <time>2022-07-11T11:50:35.337Z</time>
      </trkpt>
      <trkpt lat="48.28569" lon="-4.28686">
        <ele>54.75</ele>
        <time>2022-07-11T11:50:44.415Z</time>
      </trkpt>
      <trkpt lat="48.28578" lon="-4.2869">
        <ele>55.75</ele>
        <time>2022-07-11T11:50:53.432Z</time>
      </trkpt>
      <trkpt lat="48.28585" lon="-4.28692">
        <ele>55.75</ele>
        <time>2022-07-11T11:51:02.536Z</time>
      </trkpt>
      <trkpt lat="48.28592" lon="-4.28691">
        <ele>56</ele>
        <time>2022-07-11T11:51:12.074Z</time>
      </trkpt>
      <trkpt lat="48.28602" lon="-4.28688">
        <ele>57.75</ele>
        <time>2022-07-11T11:51:21.253Z</time>
      </trkpt>
      <trkpt lat="48.28607" lon="-4.28685">
        <ele>58.75</ele>
        <time>2022-07-11T11:51:30.455Z</time>
      </trkpt>
      <trkpt lat="48.28612" lon="-4.2868">
        <ele>57.75</ele>
        <time>2022-07-11T11:51:40.079Z</time>
      </trkpt>
      <trkpt lat="48.28617" lon="-4.2867">
        <ele>56.81</ele>
        <time>2022-07-11T11:51:49.375Z</time>
      </trkpt>
      <trkpt lat="48.28621" lon="-4.28665">
        <ele>56.81</ele>
        <time>2022-07-11T11:51:58.377Z</time>
      </trkpt>
      <trkpt lat="48.28624" lon="-4.28659">
        <ele>55.75</ele>
        <time>2022-07-11T11:52:07.477Z</time>
      </trkpt>
      <trkpt lat="48.2863" lon="-4.28651">
        <ele>54.75</ele>
        <time>2022-07-11T11:52:17.055Z</time>
      </trkpt>
      <trkpt lat="48.2864" lon="-4.28645">
        <ele>52.75</ele>
        <time>2022-07-11T11:52:26.696Z</time>
      </trkpt>
      <trkpt lat="48.28648" lon="-4.28642">
        <ele>51.75</ele>
        <time>2022-07-11T11:52:36.000Z</time>
      </trkpt>
      <trkpt lat="48.28652" lon="-4.28638">
        <ele>50.75</ele>
        <time>2022-07-11T11:52:45.295Z</time>
      </trkpt>
      <trkpt lat="48.28662" lon="-4.28631">
        <ele>50.69</ele>
        <time>2022-07-11T11:52:54.431Z</time>
      </trkpt>
      <trkpt lat="48.28666" lon="-4.28632">
        <ele>48.75</ele>
        <time>2022-07-11T11:53:05.000Z</time>
      </trkpt>
      <trkpt lat="48.2867" lon="-4.28627">
        <ele>49.75</ele>
        <time>2022-07-11T11:53:14.303Z</time>
      </trkpt>
      <trkpt lat="48.28678" lon="-4.28618">
        <ele>50.75</ele>
        <time>2022-07-11T11:53:23.859Z</time>
      </trkpt>
      <trkpt lat="48.28689" lon="-4.28609">
        <ele>49.75</ele>
        <time>2022-07-11T11:53:33.299Z</time>
      </trkpt>
      <trkpt lat="48.28696" lon="-4.28601">
        <ele>50.75</ele>
        <time>2022-07-11T11:53:43.339Z</time>
      </trkpt>
      <trkpt lat="48.28706" lon="-4.28595">
        <ele>51.69</ele>
        <time>2022-07-11T11:53:53.332Z</time>
      </trkpt>
      <trkpt lat="48.28715" lon="-4.28588">
        <ele>51.69</ele>
        <time>2022-07-11T11:54:02.400Z</time>
      </trkpt>
      <trkpt lat="48.28721" lon="-4.28584">
        <ele>51.75</ele>
        <time>2022-07-11T11:54:11.420Z</time>
      </trkpt>
      <trkpt lat="48.28733" lon="-4.28578">
        <ele>50.75</ele>
        <time>2022-07-11T11:54:21.029Z</time>
      </trkpt>
      <trkpt lat="48.28746" lon="-4.28576">
        <ele>49.75</ele>
        <time>2022-07-11T11:54:30.474Z</time>
      </trkpt>
      <trkpt lat="48.28755" lon="-4.28579">
        <ele>49.77</ele>
        <time>2022-07-11T11:54:39.555Z</time>
      </trkpt>
      <trkpt lat="48.28761" lon="-4.28586">
        <ele>49.81</ele>
        <time>2022-07-11T11:54:48.653Z</time>
      </trkpt>
      <trkpt lat="48.28768" lon="-4.28601">
        <ele>50.75</ele>
        <time>2022-07-11T11:54:58.582Z</time>
      </trkpt>
      <trkpt lat="48.28772" lon="-4.28609">
        <ele>51.75</ele>
        <time>2022-07-11T11:55:07.676Z</time>
      </trkpt>
      <trkpt lat="48.28775" lon="-4.28618">
        <ele>50.75</ele>
        <time>2022-07-11T11:55:16.837Z</time>
      </trkpt>
      <trkpt lat="48.28782" lon="-4.28628">
        <ele>50.75</ele>
        <time>2022-07-11T11:55:26.674Z</time>
      </trkpt>
      <trkpt lat="48.28788" lon="-4.28642">
        <ele>51.75</ele>
        <time>2022-07-11T11:55:36.552Z</time>
      </trkpt>
      <trkpt lat="48.28793" lon="-4.28649">
        <ele>51.74</ele>
        <time>2022-07-11T11:55:46.032Z</time>
      </trkpt>
      <trkpt lat="48.28797" lon="-4.28658">
        <ele>49.76</ele>
        <time>2022-07-11T11:55:55.656Z</time>
      </trkpt>
      <trkpt lat="48.28801" lon="-4.28666">
        <ele>50.75</ele>
        <time>2022-07-11T11:56:05.192Z</time>
      </trkpt>
      <trkpt lat="48.28805" lon="-4.28677">
        <ele>52.75</ele>
        <time>2022-07-11T11:56:14.376Z</time>
      </trkpt>
      <trkpt lat="48.2881" lon="-4.28687">
        <ele>52.75</ele>
        <time>2022-07-11T11:56:23.418Z</time>
      </trkpt>
      <trkpt lat="48.28815" lon="-4.28692">
        <ele>53.75</ele>
        <time>2022-07-11T11:56:32.557Z</time>
      </trkpt>
      <trkpt lat="48.28822" lon="-4.28703">
        <ele>55.75</ele>
        <time>2022-07-11T11:56:42.000Z</time>
      </trkpt>
      <trkpt lat="48.28824" lon="-4.28703">
        <ele>56.77</ele>
        <time>2022-07-11T11:56:52.000Z</time>
      </trkpt>
      <trkpt lat="48.28825" lon="-4.28702">
        <ele>55.75</ele>
        <time>2022-07-11T11:57:02.000Z</time>
      </trkpt>
      <trkpt lat="48.28824" lon="-4.28704">
        <ele>55.75</ele>
        <time>2022-07-11T11:57:12.000Z</time>
      </trkpt>
      <trkpt lat="48.28824" lon="-4.28706">
        <ele>55.75</ele>
        <time>2022-07-11T11:57:22.000Z</time>
      </trkpt>
      <trkpt lat="48.2883" lon="-4.28714">
        <ele>54.75</ele>
        <time>2022-07-11T11:57:32.278Z</time>
      </trkpt>
      <trkpt lat="48.28837" lon="-4.28719">
        <ele>54.75</ele>
        <time>2022-07-11T11:57:42.537Z</time>
      </trkpt>
      <trkpt lat="48.28842" lon="-4.28724">
        <ele>55.75</ele>
        <time>2022-07-11T11:57:53.099Z</time>
      </trkpt>
      <trkpt lat="48.28842" lon="-4.28726">
        <ele>57.75</ele>
        <time>2022-07-11T11:58:02.216Z</time>
      </trkpt>
      <trkpt lat="48.28845" lon="-4.28731">
        <ele>57.81</ele>
        <time>2022-07-11T11:58:11.636Z</time>
      </trkpt>
      <trkpt lat="48.28848" lon="-4.28739">
        <ele>59.75</ele>
        <time>2022-07-11T11:58:21.000Z</time>
      </trkpt>
      <trkpt lat="48.2885" lon="-4.28747">
        <ele>60.75</ele>
        <time>2022-07-11T11:58:30.497Z</time>
      </trkpt>
      <trkpt lat="48.28852" lon="-4.28757">
        <ele>62.75</ele>
        <time>2022-07-11T11:58:40.617Z</time>
      </trkpt>
      <trkpt lat="48.28855" lon="-4.28763">
        <ele>63.69</ele>
        <time>2022-07-11T11:58:50.000Z</time>
      </trkpt>
      <trkpt lat="48.28856" lon="-4.28765">
        <ele>63.75</ele>
        <time>2022-07-11T11:59:00.477Z</time>
      </trkpt>
      <trkpt lat="48.28857" lon="-4.2877">
        <ele>61.77</ele>
        <time>2022-07-11T11:59:10.000Z</time>
      </trkpt>
      <trkpt lat="48.28857" lon="-4.28774">
        <ele>61</ele>
        <time>2022-07-11T11:59:38.000Z</time>
      </trkpt>
      <trkpt lat="48.28859" lon="-4.28778">
        <ele>60.74</ele>
        <time>2022-07-11T11:59:47.654Z</time>
      </trkpt>
      <trkpt lat="48.28861" lon="-4.28785">
        <ele>61.75</ele>
        <time>2022-07-11T11:59:57.433Z</time>
      </trkpt>
      <trkpt lat="48.28864" lon="-4.28788">
        <ele>63.69</ele>
        <time>2022-07-11T12:00:07.000Z</time>
      </trkpt>
      <trkpt lat="48.28866" lon="-4.28796">
        <ele>62.75</ele>
        <time>2022-07-11T12:00:17.000Z</time>
      </trkpt>
      <trkpt lat="48.28869" lon="-4.28803">
        <ele>63.7</ele>
        <time>2022-07-11T12:00:27.000Z</time>
      </trkpt>
      <trkpt lat="48.28868" lon="-4.28811">
        <ele>64.69</ele>
        <time>2022-07-11T12:00:37.417Z</time>
      </trkpt>
      <trkpt lat="48.28868" lon="-4.28817">
        <ele>66.75</ele>
        <time>2022-07-11T12:00:46.655Z</time>
      </trkpt>
      <trkpt lat="48.28867" lon="-4.28822">
        <ele>70.75</ele>
        <time>2022-07-11T12:00:56.436Z</time>
      </trkpt>
      <trkpt lat="48.28866" lon="-4.28833">
        <ele>72.63</ele>
        <time>2022-07-11T12:01:05.718Z</time>
      </trkpt>
      <trkpt lat="48.28869" lon="-4.2884">
        <ele>73.75</ele>
        <time>2022-07-11T12:01:15.000Z</time>
      </trkpt>
      <trkpt lat="48.28869" lon="-4.28845">
        <ele>75.69</ele>
        <time>2022-07-11T12:01:25.319Z</time>
      </trkpt>
      <trkpt lat="48.28867" lon="-4.28846">
        <ele>76.75</ele>
        <time>2022-07-11T12:01:34.572Z</time>
      </trkpt>
      <trkpt lat="48.28863" lon="-4.2885">
        <ele>79.5</ele>
        <time>2022-07-11T12:01:44.000Z</time>
      </trkpt>
      <trkpt lat="48.28862" lon="-4.28858">
        <ele>79.7</ele>
        <time>2022-07-11T12:01:53.496Z</time>
      </trkpt>
      <trkpt lat="48.28862" lon="-4.28862">
        <ele>81.5</ele>
        <time>2022-07-11T12:02:02.534Z</time>
      </trkpt>
      <trkpt lat="48.28864" lon="-4.28866">
        <ele>82</ele>
        <time>2022-07-11T12:02:12.000Z</time>
      </trkpt>
      <trkpt lat="48.28867" lon="-4.28876">
        <ele>81.75</ele>
        <time>2022-07-11T12:02:22.000Z</time>
      </trkpt>
      <trkpt lat="48.2887" lon="-4.2888">
        <ele>83.73</ele>
        <time>2022-07-11T12:02:32.000Z</time>
      </trkpt>
      <trkpt lat="48.28869" lon="-4.2888">
        <ele>85.75</ele>
        <time>2022-07-11T12:02:42.000Z</time>
      </trkpt>
      <trkpt lat="48.2887" lon="-4.28882">
        <ele>86.73</ele>
        <time>2022-07-11T12:02:53.000Z</time>
      </trkpt>
      <trkpt lat="48.28871" lon="-4.28888">
        <ele>87.75</ele>
        <time>2022-07-11T12:03:03.577Z</time>
      </trkpt>
      <trkpt lat="48.2887" lon="-4.28894">
        <ele>87.75</ele>
        <time>2022-07-11T12:03:13.479Z</time>
      </trkpt>
      <trkpt lat="48.28869" lon="-4.28898">
        <ele>90.68</ele>
        <time>2022-07-11T12:03:23.119Z</time>
      </trkpt>
      <trkpt lat="48.2887" lon="-4.28905">
        <ele>90.75</ele>
        <time>2022-07-11T12:03:32.536Z</time>
      </trkpt>
      <trkpt lat="48.28871" lon="-4.28909">
        <ele>91.75</ele>
        <time>2022-07-11T12:03:42.118Z</time>
      </trkpt>
      <trkpt lat="48.28872" lon="-4.2891">
        <ele>93.75</ele>
        <time>2022-07-11T12:03:51.655Z</time>
      </trkpt>
      <trkpt lat="48.28876" lon="-4.28911">
        <ele>95.75</ele>
        <time>2022-07-11T12:04:01.000Z</time>
      </trkpt>
      <trkpt lat="48.28877" lon="-4.28908">
        <ele>94.75</ele>
        <time>2022-07-11T12:04:10.636Z</time>
      </trkpt>
      <trkpt lat="48.28878" lon="-4.28909">
        <ele>94.75</ele>
        <time>2022-07-11T12:04:20.000Z</time>
      </trkpt>
      <trkpt lat="48.28879" lon="-4.28908">
        <ele>94.75</ele>
        <time>2022-07-11T12:04:30.097Z</time>
      </trkpt>
      <trkpt lat="48.28883" lon="-4.28904">
        <ele>96.75</ele>
        <time>2022-07-11T12:04:39.632Z</time>
      </trkpt>
      <trkpt lat="48.28888" lon="-4.28898">
        <ele>95.77</ele>
        <time>2022-07-11T12:04:48.697Z</time>
      </trkpt>
      <trkpt lat="48.28889" lon="-4.28895">
        <ele>95.75</ele>
        <time>2022-07-11T12:04:58.000Z</time>
      </trkpt>
      <trkpt lat="48.2889" lon="-4.28893">
        <ele>95.75</ele>
        <time>2022-07-11T12:05:08.000Z</time>
      </trkpt>
      <trkpt lat="48.28891" lon="-4.28889">
        <ele>95.75</ele>
        <time>2022-07-11T12:05:18.000Z</time>
      </trkpt>
      <trkpt lat="48.28894" lon="-4.2888">
        <ele>97.69</ele>
        <time>2022-07-11T12:05:28.173Z</time>
      </trkpt>
      <trkpt lat="48.28901" lon="-4.28872">
        <ele>96.77</ele>
        <time>2022-07-11T12:05:37.678Z</time>
      </trkpt>
      <trkpt lat="48.28907" lon="-4.28873">
        <ele>96.75</ele>
        <time>2022-07-11T12:05:47.380Z</time>
      </trkpt>
      <trkpt lat="48.2891" lon="-4.28873">
        <ele>96.75</ele>
        <time>2022-07-11T12:05:56.395Z</time>
      </trkpt>
      <trkpt lat="48.28917" lon="-4.28877">
        <ele>100.5</ele>
        <time>2022-07-11T12:06:06.000Z</time>
      </trkpt>
      <trkpt lat="48.28922" lon="-4.28887">
        <ele>101.75</ele>
        <time>2022-07-11T12:06:15.437Z</time>
      </trkpt>
      <trkpt lat="48.28929" lon="-4.28894">
        <ele>104.73</ele>
        <time>2022-07-11T12:06:24.540Z</time>
      </trkpt>
      <trkpt lat="48.28934" lon="-4.28899">
        <ele>104.75</ele>
        <time>2022-07-11T12:06:34.273Z</time>
      </trkpt>
      <trkpt lat="48.28936" lon="-4.28898">
        <ele>106.75</ele>
        <time>2022-07-11T12:06:44.000Z</time>
      </trkpt>
      <trkpt lat="48.28937" lon="-4.28899">
        <ele>107.75</ele>
        <time>2022-07-11T12:07:10.000Z</time>
      </trkpt>
      <trkpt lat="48.28938" lon="-4.28897">
        <ele>107.75</ele>
        <time>2022-07-11T12:07:20.396Z</time>
      </trkpt>
      <trkpt lat="48.28944" lon="-4.28888">
        <ele>106.77</ele>
        <time>2022-07-11T12:07:30.000Z</time>
      </trkpt>
      <trkpt lat="48.28949" lon="-4.28878">
        <ele>105.75</ele>
        <time>2022-07-11T12:07:39.437Z</time>
      </trkpt>
      <trkpt lat="48.28953" lon="-4.28871">
        <ele>105.75</ele>
        <time>2022-07-11T12:07:48.575Z</time>
      </trkpt>
      <trkpt lat="48.28959" lon="-4.28858">
        <ele>105</ele>
        <time>2022-07-11T12:07:58.134Z</time>
      </trkpt>
      <trkpt lat="48.28966" lon="-4.28847">
        <ele>105.75</ele>
        <time>2022-07-11T12:08:08.000Z</time>
      </trkpt>
      <trkpt lat="48.28973" lon="-4.28833">
        <ele>106.69</ele>
        <time>2022-07-11T12:08:18.000Z</time>
      </trkpt>
      <trkpt lat="48.28982" lon="-4.28823">
        <ele>105.81</ele>
        <time>2022-07-11T12:08:27.351Z</time>
      </trkpt>
      <trkpt lat="48.28988" lon="-4.28812">
        <ele>105.75</ele>
        <time>2022-07-11T12:08:37.333Z</time>
      </trkpt>
      <trkpt lat="48.28994" lon="-4.28799">
        <ele>105.75</ele>
        <time>2022-07-11T12:08:46.814Z</time>
      </trkpt>
      <trkpt lat="48.28998" lon="-4.28788">
        <ele>103.81</ele>
        <time>2022-07-11T12:08:56.620Z</time>
      </trkpt>
      <trkpt lat="48.29003" lon="-4.2878">
        <ele>104.75</ele>
        <time>2022-07-11T12:09:05.632Z</time>
      </trkpt>
      <trkpt lat="48.29008" lon="-4.28767">
        <ele>104.75</ele>
        <time>2022-07-11T12:09:15.499Z</time>
      </trkpt>
      <trkpt lat="48.29014" lon="-4.28752">
        <ele>105.75</ele>
        <time>2022-07-11T12:09:24.896Z</time>
      </trkpt>
      <trkpt lat="48.29018" lon="-4.28739">
        <ele>104.75</ele>
        <time>2022-07-11T12:09:34.493Z</time>
      </trkpt>
      <trkpt lat="48.29021" lon="-4.28729">
        <ele>106.69</ele>
        <time>2022-07-11T12:09:44.000Z</time>
      </trkpt>
      <trkpt lat="48.29023" lon="-4.28719">
        <ele>106.75</ele>
        <time>2022-07-11T12:09:53.274Z</time>
      </trkpt>
      <trkpt lat="48.29028" lon="-4.28707">
        <ele>105.75</ele>
        <time>2022-07-11T12:10:03.273Z</time>
      </trkpt>
      <trkpt lat="48.29032" lon="-4.28691">
        <ele>106.76</ele>
        <time>2022-07-11T12:10:13.252Z</time>
      </trkpt>
      <trkpt lat="48.29036" lon="-4.2868">
        <ele>106.75</ele>
        <time>2022-07-11T12:10:22.697Z</time>
      </trkpt>
      <trkpt lat="48.29039" lon="-4.28668">
        <ele>105.74</ele>
        <time>2022-07-11T12:10:32.038Z</time>
      </trkpt>
      <trkpt lat="48.29042" lon="-4.28658">
        <ele>104.75</ele>
        <time>2022-07-11T12:10:41.535Z</time>
      </trkpt>
      <trkpt lat="48.29045" lon="-4.28647">
        <ele>103.75</ele>
        <time>2022-07-11T12:10:51.555Z</time>
      </trkpt>
      <trkpt lat="48.29047" lon="-4.2863">
        <ele>103</ele>
        <time>2022-07-11T12:11:01.419Z</time>
      </trkpt>
      <trkpt lat="48.2905" lon="-4.28612">
        <ele>101.75</ele>
        <time>2022-07-11T12:11:11.294Z</time>
      </trkpt>
      <trkpt lat="48.2905" lon="-4.28598">
        <ele>102.69</ele>
        <time>2022-07-11T12:11:21.476Z</time>
      </trkpt>
      <trkpt lat="48.29049" lon="-4.28583">
        <ele>103.75</ele>
        <time>2022-07-11T12:11:31.215Z</time>
      </trkpt>
      <trkpt lat="48.29047" lon="-4.28568">
        <ele>103.75</ele>
        <time>2022-07-11T12:11:40.453Z</time>
      </trkpt>
      <trkpt lat="48.29045" lon="-4.28555">
        <ele>101.77</ele>
        <time>2022-07-11T12:11:49.480Z</time>
      </trkpt>
      <trkpt lat="48.29041" lon="-4.2854">
        <ele>100.76</ele>
        <time>2022-07-11T12:11:59.235Z</time>
      </trkpt>
      <trkpt lat="48.29037" lon="-4.28528">
        <ele>101.75</ele>
        <time>2022-07-11T12:12:08.615Z</time>
      </trkpt>
      <trkpt lat="48.29035" lon="-4.28517">
        <ele>101</ele>
        <time>2022-07-11T12:12:17.752Z</time>
      </trkpt>
      <trkpt lat="48.29032" lon="-4.28502">
        <ele>99.75</ele>
        <time>2022-07-11T12:12:27.495Z</time>
      </trkpt>
      <trkpt lat="48.29028" lon="-4.28488">
        <ele>99.75</ele>
        <time>2022-07-11T12:12:37.373Z</time>
      </trkpt>
      <trkpt lat="48.29032" lon="-4.28473">
        <ele>99.75</ele>
        <time>2022-07-11T12:12:46.673Z</time>
      </trkpt>
      <trkpt lat="48.29035" lon="-4.28458">
        <ele>100.75</ele>
        <time>2022-07-11T12:12:56.320Z</time>
      </trkpt>
      <trkpt lat="48.29035" lon="-4.28443">
        <ele>101.69</ele>
        <time>2022-07-11T12:13:06.000Z</time>
      </trkpt>
      <trkpt lat="48.29037" lon="-4.2843">
        <ele>101.75</ele>
        <time>2022-07-11T12:13:15.617Z</time>
      </trkpt>
      <trkpt lat="48.2904" lon="-4.28415">
        <ele>99.82</ele>
        <time>2022-07-11T12:13:25.174Z</time>
      </trkpt>
      <trkpt lat="48.29045" lon="-4.28399">
        <ele>99.75</ele>
        <time>2022-07-11T12:13:35.000Z</time>
      </trkpt>
      <trkpt lat="48.2905" lon="-4.28386">
        <ele>99.52</ele>
        <time>2022-07-11T12:13:44.598Z</time>
      </trkpt>
      <trkpt lat="48.29056" lon="-4.28371">
        <ele>99.75</ele>
        <time>2022-07-11T12:13:54.336Z</time>
      </trkpt>
      <trkpt lat="48.29057" lon="-4.28361">
        <ele>98.75</ele>
        <time>2022-07-11T12:14:03.656Z</time>
      </trkpt>
      <trkpt lat="48.29058" lon="-4.28347">
        <ele>98.75</ele>
        <time>2022-07-11T12:14:13.000Z</time>
      </trkpt>
      <trkpt lat="48.29058" lon="-4.28333">
        <ele>97.75</ele>
        <time>2022-07-11T12:14:22.513Z</time>
      </trkpt>
      <trkpt lat="48.29058" lon="-4.28319">
        <ele>97.02</ele>
        <time>2022-07-11T12:14:32.000Z</time>
      </trkpt>
      <trkpt lat="48.2906" lon="-4.28308">
        <ele>96.75</ele>
        <time>2022-07-11T12:14:41.054Z</time>
      </trkpt>
      <trkpt lat="48.29059" lon="-4.28294">
        <ele>96.75</ele>
        <time>2022-07-11T12:14:50.438Z</time>
      </trkpt>
      <trkpt lat="48.29061" lon="-4.28279">
        <ele>95.82</ele>
        <time>2022-07-11T12:14:59.676Z</time>
      </trkpt>
      <trkpt lat="48.29061" lon="-4.28265">
        <ele>97.5</ele>
        <time>2022-07-11T12:15:08.978Z</time>
      </trkpt>
      <trkpt lat="48.29061" lon="-4.2825">
        <ele>97.81</ele>
        <time>2022-07-11T12:15:18.138Z</time>
      </trkpt>
      <trkpt lat="48.29061" lon="-4.28235">
        <ele>97.75</ele>
        <time>2022-07-11T12:15:27.333Z</time>
      </trkpt>
      <trkpt lat="48.29064" lon="-4.28219">
        <ele>97.75</ele>
        <time>2022-07-11T12:15:36.918Z</time>
      </trkpt>
      <trkpt lat="48.29066" lon="-4.28205">
        <ele>96.01</ele>
        <time>2022-07-11T12:15:46.194Z</time>
      </trkpt>
      <trkpt lat="48.29068" lon="-4.28188">
        <ele>93.82</ele>
        <time>2022-07-11T12:15:56.331Z</time>
      </trkpt>
      <trkpt lat="48.29067" lon="-4.28172">
        <ele>90.76</ele>
        <time>2022-07-11T12:16:05.397Z</time>
      </trkpt>
      <trkpt lat="48.29067" lon="-4.28154">
        <ele>92.69</ele>
        <time>2022-07-11T12:16:14.715Z</time>
      </trkpt>
      <trkpt lat="48.29068" lon="-4.28138">
        <ele>92.76</ele>
        <time>2022-07-11T12:16:24.212Z</time>
      </trkpt>
      <trkpt lat="48.29068" lon="-4.28122">
        <ele>92.76</ele>
        <time>2022-07-11T12:16:34.000Z</time>
      </trkpt>
      <trkpt lat="48.29069" lon="-4.28109">
        <ele>92.75</ele>
        <time>2022-07-11T12:16:43.776Z</time>
      </trkpt>
      <trkpt lat="48.29067" lon="-4.28099">
        <ele>92.76</ele>
        <time>2022-07-11T12:16:53.133Z</time>
      </trkpt>
      <trkpt lat="48.29066" lon="-4.28093">
        <ele>91.82</ele>
        <time>2022-07-11T12:17:03.532Z</time>
      </trkpt>
      <trkpt lat="48.2907" lon="-4.2809">
        <ele>87.09</ele>
        <time>2022-07-11T12:17:13.000Z</time>
      </trkpt>
      <trkpt lat="48.29069" lon="-4.28087">
        <ele>89.69</ele>
        <time>2022-07-11T12:17:23.000Z</time>
      </trkpt>
      <trkpt lat="48.29068" lon="-4.28087">
        <ele>90.76</ele>
        <time>2022-07-11T12:17:35.000Z</time>
      </trkpt>
      <trkpt lat="48.29067" lon="-4.28088">
        <ele>91.51</ele>
        <time>2022-07-11T12:17:59.000Z</time>
      </trkpt>
      <trkpt lat="48.29071" lon="-4.28095">
        <ele>86.76</ele>
        <time>2022-07-11T12:18:09.000Z</time>
      </trkpt>
      <trkpt lat="48.29069" lon="-4.28093">
        <ele>85.76</ele>
        <time>2022-07-11T12:18:19.000Z</time>
      </trkpt>
      <trkpt lat="48.29068" lon="-4.28093">
        <ele>87</ele>
        <time>2022-07-11T12:18:38.000Z</time>
      </trkpt>
      <trkpt lat="48.29067" lon="-4.28093">
        <ele>89.76</ele>
        <time>2022-07-11T12:19:03.000Z</time>
      </trkpt>
      <trkpt lat="48.29066" lon="-4.28094">
        <ele>89.76</ele>
        <time>2022-07-11T12:19:13.000Z</time>
      </trkpt>
      <trkpt lat="48.29067" lon="-4.28089">
        <ele>89.76</ele>
        <time>2022-07-11T12:19:23.000Z</time>
      </trkpt>
      <trkpt lat="48.29067" lon="-4.28088">
        <ele>89.76</ele>
        <time>2022-07-11T12:19:41.295Z</time>
      </trkpt>
      <trkpt lat="48.29069" lon="-4.28082">
        <ele>90.76</ele>
        <time>2022-07-11T12:19:51.356Z</time>
      </trkpt>
      <trkpt lat="48.29072" lon="-4.2807">
        <ele>89.82</ele>
        <time>2022-07-11T12:20:00.435Z</time>
      </trkpt>
      <trkpt lat="48.29074" lon="-4.2806">
        <ele>88.76</ele>
        <time>2022-07-11T12:20:10.555Z</time>
      </trkpt>
      <trkpt lat="48.29077" lon="-4.2805">
        <ele>86.77</ele>
        <time>2022-07-11T12:20:20.353Z</time>
      </trkpt>
      <trkpt lat="48.29082" lon="-4.28038">
        <ele>85.76</ele>
        <time>2022-07-11T12:20:29.394Z</time>
      </trkpt>
      <trkpt lat="48.29086" lon="-4.28032">
        <ele>85.76</ele>
        <time>2022-07-11T12:20:38.498Z</time>
      </trkpt>
      <trkpt lat="48.29095" lon="-4.28022">
        <ele>84.76</ele>
        <time>2022-07-11T12:20:48.594Z</time>
      </trkpt>
      <trkpt lat="48.29099" lon="-4.28013">
        <ele>81.76</ele>
        <time>2022-07-11T12:20:58.211Z</time>
      </trkpt>
      <trkpt lat="48.29107" lon="-4.28001">
        <ele>79.76</ele>
        <time>2022-07-11T12:21:07.676Z</time>
      </trkpt>
      <trkpt lat="48.29112" lon="-4.2799">
        <ele>79.76</ele>
        <time>2022-07-11T12:21:17.171Z</time>
      </trkpt>
      <trkpt lat="48.2912" lon="-4.27977">
        <ele>79.76</ele>
        <time>2022-07-11T12:21:26.478Z</time>
      </trkpt>
      <trkpt lat="48.29131" lon="-4.27969">
        <ele>80.01</ele>
        <time>2022-07-11T12:21:35.938Z</time>
      </trkpt>
      <trkpt lat="48.29139" lon="-4.27962">
        <ele>79.76</ele>
        <time>2022-07-11T12:21:45.498Z</time>
      </trkpt>
      <trkpt lat="48.29141" lon="-4.2796">
        <ele>79.75</ele>
        <time>2022-07-11T12:21:55.319Z</time>
      </trkpt>
      <trkpt lat="48.29147" lon="-4.27951">
        <ele>80.74</ele>
        <time>2022-07-11T12:22:04.611Z</time>
      </trkpt>
      <trkpt lat="48.29155" lon="-4.27943">
        <ele>79.76</ele>
        <time>2022-07-11T12:22:14.178Z</time>
      </trkpt>
      <trkpt lat="48.29158" lon="-4.27937">
        <ele>77.76</ele>
        <time>2022-07-11T12:22:23.613Z</time>
      </trkpt>
      <trkpt lat="48.29162" lon="-4.27926">
        <ele>76.76</ele>
        <time>2022-07-11T12:22:33.153Z</time>
      </trkpt>
      <trkpt lat="48.29166" lon="-4.27914">
        <ele>74.76</ele>
        <time>2022-07-11T12:22:43.572Z</time>
      </trkpt>
      <trkpt lat="48.29169" lon="-4.27898">
        <ele>74.76</ele>
        <time>2022-07-11T12:22:53.260Z</time>
      </trkpt>
      <trkpt lat="48.2917" lon="-4.27883">
        <ele>75.76</ele>
        <time>2022-07-11T12:23:02.452Z</time>
      </trkpt>
      <trkpt lat="48.29173" lon="-4.27866">
        <ele>77.7</ele>
        <time>2022-07-11T12:23:12.217Z</time>
      </trkpt>
      <trkpt lat="48.29174" lon="-4.27851">
        <ele>77.01</ele>
        <time>2022-07-11T12:23:21.595Z</time>
      </trkpt>
      <trkpt lat="48.29176" lon="-4.27834">
        <ele>76.56</ele>
        <time>2022-07-11T12:23:31.312Z</time>
      </trkpt>
      <trkpt lat="48.29179" lon="-4.2782">
        <ele>76.56</ele>
        <time>2022-07-11T12:23:40.572Z</time>
      </trkpt>
      <trkpt lat="48.29181" lon="-4.27807">
        <ele>76.76</ele>
        <time>2022-07-11T12:23:50.000Z</time>
      </trkpt>
      <trkpt lat="48.29182" lon="-4.27794">
        <ele>75.77</ele>
        <time>2022-07-11T12:23:59.313Z</time>
      </trkpt>
      <trkpt lat="48.29179" lon="-4.27784">
        <ele>75.76</ele>
        <time>2022-07-11T12:24:09.000Z</time>
      </trkpt>
      <trkpt lat="48.29177" lon="-4.27775">
        <ele>75.76</ele>
        <time>2022-07-11T12:24:18.040Z</time>
      </trkpt>
      <trkpt lat="48.29176" lon="-4.27761">
        <ele>74.76</ele>
        <time>2022-07-11T12:24:27.497Z</time>
      </trkpt>
      <trkpt lat="48.29173" lon="-4.27745">
        <ele>74.81</ele>
        <time>2022-07-11T12:24:37.300Z</time>
      </trkpt>
      <trkpt lat="48.29171" lon="-4.27739">
        <ele>73.76</ele>
        <time>2022-07-11T12:24:46.313Z</time>
      </trkpt>
      <trkpt lat="48.29169" lon="-4.27723">
        <ele>73.76</ele>
        <time>2022-07-11T12:24:56.291Z</time>
      </trkpt>
      <trkpt lat="48.29168" lon="-4.27707">
        <ele>74</ele>
        <time>2022-07-11T12:25:05.578Z</time>
      </trkpt>
      <trkpt lat="48.29168" lon="-4.27691">
        <ele>73.76</ele>
        <time>2022-07-11T12:25:15.477Z</time>
      </trkpt>
      <trkpt lat="48.29167" lon="-4.27677">
        <ele>78.29</ele>
        <time>2022-07-11T12:25:25.231Z</time>
      </trkpt>
      <trkpt lat="48.29169" lon="-4.27659">
        <ele>78.54</ele>
        <time>2022-07-11T12:25:35.398Z</time>
      </trkpt>
      <trkpt lat="48.29167" lon="-4.27639">
        <ele>78.66</ele>
        <time>2022-07-11T12:25:45.318Z</time>
      </trkpt>
      <trkpt lat="48.29163" lon="-4.27621">
        <ele>78.66</ele>
        <time>2022-07-11T12:25:55.475Z</time>
      </trkpt>
      <trkpt lat="48.29161" lon="-4.27603">
        <ele>78.66</ele>
        <time>2022-07-11T12:26:05.476Z</time>
      </trkpt>
      <trkpt lat="48.29158" lon="-4.27588">
        <ele>76.63</ele>
        <time>2022-07-11T12:26:15.473Z</time>
      </trkpt>
      <trkpt lat="48.29157" lon="-4.2757">
        <ele>75.96</ele>
        <time>2022-07-11T12:26:25.378Z</time>
      </trkpt>
      <trkpt lat="48.29156" lon="-4.27554">
        <ele>75.96</ele>
        <time>2022-07-11T12:26:35.372Z</time>
      </trkpt>
      <trkpt lat="48.29154" lon="-4.27539">
        <ele>75.96</ele>
        <time>2022-07-11T12:26:44.712Z</time>
      </trkpt>
      <trkpt lat="48.2915" lon="-4.27525">
        <ele>75.06</ele>
        <time>2022-07-11T12:26:54.294Z</time>
      </trkpt>
      <trkpt lat="48.29148" lon="-4.2751">
        <ele>75.06</ele>
        <time>2022-07-11T12:27:03.632Z</time>
      </trkpt>
      <trkpt lat="48.29147" lon="-4.27495">
        <ele>72</ele>
        <time>2022-07-11T12:27:13.118Z</time>
      </trkpt>
      <trkpt lat="48.29145" lon="-4.27479">
        <ele>71.76</ele>
        <time>2022-07-11T12:27:22.580Z</time>
      </trkpt>
      <trkpt lat="48.29143" lon="-4.27464">
        <ele>71.76</ele>
        <time>2022-07-11T12:27:32.176Z</time>
      </trkpt>
      <trkpt lat="48.29141" lon="-4.27451">
        <ele>72.74</ele>
        <time>2022-07-11T12:27:41.614Z</time>
      </trkpt>
      <trkpt lat="48.2914" lon="-4.27436">
        <ele>71.01</ele>
        <time>2022-07-11T12:27:51.098Z</time>
      </trkpt>
      <trkpt lat="48.29139" lon="-4.27422">
        <ele>69.82</ele>
        <time>2022-07-11T12:28:00.574Z</time>
      </trkpt>
      <trkpt lat="48.29137" lon="-4.27409">
        <ele>71.75</ele>
        <time>2022-07-11T12:28:10.159Z</time>
      </trkpt>
      <trkpt lat="48.29132" lon="-4.27394">
        <ele>68.83</ele>
        <time>2022-07-11T12:28:19.615Z</time>
      </trkpt>
      <trkpt lat="48.29127" lon="-4.27381">
        <ele>70.25</ele>
        <time>2022-07-11T12:28:29.096Z</time>
      </trkpt>
      <trkpt lat="48.29125" lon="-4.27366">
        <ele>69.76</ele>
        <time>2022-07-11T12:28:38.652Z</time>
      </trkpt>
      <trkpt lat="48.2912" lon="-4.27352">
        <ele>69.76</ele>
        <time>2022-07-11T12:28:48.217Z</time>
      </trkpt>
      <trkpt lat="48.29118" lon="-4.27338">
        <ele>69.76</ele>
        <time>2022-07-11T12:28:57.733Z</time>
      </trkpt>
      <trkpt lat="48.29115" lon="-4.27322">
        <ele>69.76</ele>
        <time>2022-07-11T12:29:07.218Z</time>
      </trkpt>
      <trkpt lat="48.29112" lon="-4.27306">
        <ele>69.76</ele>
        <time>2022-07-11T12:29:17.135Z</time>
      </trkpt>
      <trkpt lat="48.2911" lon="-4.27289">
        <ele>69.76</ele>
        <time>2022-07-11T12:29:27.155Z</time>
      </trkpt>
      <trkpt lat="48.29105" lon="-4.27276">
        <ele>69.76</ele>
        <time>2022-07-11T12:29:36.671Z</time>
      </trkpt>
      <trkpt lat="48.29104" lon="-4.27263">
        <ele>69.76</ele>
        <time>2022-07-11T12:29:45.673Z</time>
      </trkpt>
      <trkpt lat="48.29102" lon="-4.27249">
        <ele>69.76</ele>
        <time>2022-07-11T12:29:55.276Z</time>
      </trkpt>
      <trkpt lat="48.29101" lon="-4.27234">
        <ele>69.76</ele>
        <time>2022-07-11T12:30:04.459Z</time>
      </trkpt>
      <trkpt lat="48.29103" lon="-4.27219">
        <ele>59.83</ele>
        <time>2022-07-11T12:30:14.495Z</time>
      </trkpt>
      <trkpt lat="48.29101" lon="-4.27203">
        <ele>58.76</ele>
        <time>2022-07-11T12:30:24.000Z</time>
      </trkpt>
      <trkpt lat="48.291" lon="-4.27187">
        <ele>57.76</ele>
        <time>2022-07-11T12:30:33.491Z</time>
      </trkpt>
      <trkpt lat="48.291" lon="-4.27173">
        <ele>58.76</ele>
        <time>2022-07-11T12:30:42.721Z</time>
      </trkpt>
      <trkpt lat="48.29101" lon="-4.27161">
        <ele>59.76</ele>
        <time>2022-07-11T12:30:52.173Z</time>
      </trkpt>
      <trkpt lat="48.29102" lon="-4.27149">
        <ele>56.77</ele>
        <time>2022-07-11T12:31:01.437Z</time>
      </trkpt>
      <trkpt lat="48.29104" lon="-4.27135">
        <ele>57.06</ele>
        <time>2022-07-11T12:31:11.000Z</time>
      </trkpt>
      <trkpt lat="48.29106" lon="-4.27122">
        <ele>56.76</ele>
        <time>2022-07-11T12:31:20.578Z</time>
      </trkpt>
      <trkpt lat="48.29106" lon="-4.2711">
        <ele>55.83</ele>
        <time>2022-07-11T12:31:29.700Z</time>
      </trkpt>
      <trkpt lat="48.2911" lon="-4.27097">
        <ele>54.76</ele>
        <time>2022-07-11T12:31:39.137Z</time>
      </trkpt>
      <trkpt lat="48.29113" lon="-4.27083">
        <ele>48.77</ele>
        <time>2022-07-11T12:31:48.434Z</time>
      </trkpt>
      <trkpt lat="48.29117" lon="-4.2707">
        <ele>49.78</ele>
        <time>2022-07-11T12:31:58.357Z</time>
      </trkpt>
      <trkpt lat="48.2912" lon="-4.27056">
        <ele>48.76</ele>
        <time>2022-07-11T12:32:08.000Z</time>
      </trkpt>
      <trkpt lat="48.29119" lon="-4.27048">
        <ele>47.78</ele>
        <time>2022-07-11T12:32:17.051Z</time>
      </trkpt>
      <trkpt lat="48.29122" lon="-4.27037">
        <ele>46.76</ele>
        <time>2022-07-11T12:32:26.700Z</time>
      </trkpt>
      <trkpt lat="48.29123" lon="-4.27023">
        <ele>46.76</ele>
        <time>2022-07-11T12:32:36.297Z</time>
      </trkpt>
      <trkpt lat="48.29123" lon="-4.27011">
        <ele>44.83</ele>
        <time>2022-07-11T12:32:46.000Z</time>
      </trkpt>
      <trkpt lat="48.29122" lon="-4.26998">
        <ele>43.95</ele>
        <time>2022-07-11T12:32:55.357Z</time>
      </trkpt>
      <trkpt lat="48.29122" lon="-4.26982">
        <ele>43.76</ele>
        <time>2022-07-11T12:33:05.353Z</time>
      </trkpt>
      <trkpt lat="48.29122" lon="-4.26965">
        <ele>42.83</ele>
        <time>2022-07-11T12:33:15.132Z</time>
      </trkpt>
      <trkpt lat="48.29125" lon="-4.26951">
        <ele>41.78</ele>
        <time>2022-07-11T12:33:24.476Z</time>
      </trkpt>
      <trkpt lat="48.29129" lon="-4.26937">
        <ele>41.76</ele>
        <time>2022-07-11T12:33:34.112Z</time>
      </trkpt>
      <trkpt lat="48.2913" lon="-4.26926">
        <ele>39.02</ele>
        <time>2022-07-11T12:33:43.732Z</time>
      </trkpt>
      <trkpt lat="48.29133" lon="-4.26913">
        <ele>36.76</ele>
        <time>2022-07-11T12:33:53.459Z</time>
      </trkpt>
      <trkpt lat="48.29134" lon="-4.26898">
        <ele>35.76</ele>
        <time>2022-07-11T12:34:03.456Z</time>
      </trkpt>
      <trkpt lat="48.29137" lon="-4.26885">
        <ele>35.76</ele>
        <time>2022-07-11T12:34:13.135Z</time>
      </trkpt>
      <trkpt lat="48.2914" lon="-4.26873">
        <ele>33.77</ele>
        <time>2022-07-11T12:34:22.292Z</time>
      </trkpt>
      <trkpt lat="48.29142" lon="-4.26863">
        <ele>24.17</ele>
        <time>2022-07-11T12:34:32.396Z</time>
      </trkpt>
      <trkpt lat="48.29144" lon="-4.26848">
        <ele>27.16</ele>
        <time>2022-07-11T12:34:41.634Z</time>
      </trkpt>
      <trkpt lat="48.29144" lon="-4.26833">
        <ele>27.17</ele>
        <time>2022-07-11T12:34:51.454Z</time>
      </trkpt>
      <trkpt lat="48.29146" lon="-4.26815">
        <ele>26.07</ele>
        <time>2022-07-11T12:35:01.394Z</time>
      </trkpt>
      <trkpt lat="48.29147" lon="-4.26804">
        <ele>24.28</ele>
        <time>2022-07-11T12:35:11.358Z</time>
      </trkpt>
      <trkpt lat="48.29149" lon="-4.26791">
        <ele>22.91</ele>
        <time>2022-07-11T12:35:21.181Z</time>
      </trkpt>
      <trkpt lat="48.29149" lon="-4.26783">
        <ele>23.64</ele>
        <time>2022-07-11T12:35:30.217Z</time>
      </trkpt>
      <trkpt lat="48.29151" lon="-4.26772">
        <ele>23.47</ele>
        <time>2022-07-11T12:35:39.537Z</time>
      </trkpt>
      <trkpt lat="48.29151" lon="-4.26758">
        <ele>21.07</ele>
        <time>2022-07-11T12:35:49.000Z</time>
      </trkpt>
      <trkpt lat="48.29152" lon="-4.26759">
        <ele>21.07</ele>
        <time>2022-07-11T12:36:08.000Z</time>
      </trkpt>
      <trkpt lat="48.2916" lon="-4.26756">
        <ele>21.08</ele>
        <time>2022-07-11T12:36:17.098Z</time>
      </trkpt>
      <trkpt lat="48.29171" lon="-4.26758">
        <ele>22.27</ele>
        <time>2022-07-11T12:36:26.475Z</time>
      </trkpt>
      <trkpt lat="48.29179" lon="-4.26758">
        <ele>22.27</ele>
        <time>2022-07-11T12:36:35.575Z</time>
      </trkpt>
      <trkpt lat="48.29185" lon="-4.2676">
        <ele>22.27</ele>
        <time>2022-07-11T12:36:45.316Z</time>
      </trkpt>
      <trkpt lat="48.29191" lon="-4.26762">
        <ele>19.77</ele>
        <time>2022-07-11T12:36:54.602Z</time>
      </trkpt>
      <trkpt lat="48.29202" lon="-4.26763">
        <ele>19.77</ele>
        <time>2022-07-11T12:37:04.297Z</time>
      </trkpt>
      <trkpt lat="48.29212" lon="-4.26762">
        <ele>17.7</ele>
        <time>2022-07-11T12:37:13.335Z</time>
      </trkpt>
      <trkpt lat="48.29224" lon="-4.2676">
        <ele>19.77</ele>
        <time>2022-07-11T12:37:22.500Z</time>
      </trkpt>
      <trkpt lat="48.29235" lon="-4.2676">
        <ele>17.57</ele>
        <time>2022-07-11T12:37:31.657Z</time>
      </trkpt>
      <trkpt lat="48.29244" lon="-4.26758">
        <ele>17.67</ele>
        <time>2022-07-11T12:37:41.309Z</time>
      </trkpt>
      <trkpt lat="48.29249" lon="-4.26759">
        <ele>17.67</ele>
        <time>2022-07-11T12:37:50.374Z</time>
      </trkpt>
      <trkpt lat="48.2926" lon="-4.26757">
        <ele>17.67</ele>
        <time>2022-07-11T12:37:59.637Z</time>
      </trkpt>
      <trkpt lat="48.2927" lon="-4.26758">
        <ele>16.77</ele>
        <time>2022-07-11T12:38:09.533Z</time>
      </trkpt>
      <trkpt lat="48.2928" lon="-4.26762">
        <ele>16.66</ele>
        <time>2022-07-11T12:38:19.216Z</time>
      </trkpt>
      <trkpt lat="48.29288" lon="-4.26758">
        <ele>16.67</ele>
        <time>2022-07-11T12:38:29.000Z</time>
      </trkpt>
      <trkpt lat="48.29296" lon="-4.26757">
        <ele>15.37</ele>
        <time>2022-07-11T12:38:38.539Z</time>
      </trkpt>
      <trkpt lat="48.29303" lon="-4.26758">
        <ele>15.37</ele>
        <time>2022-07-11T12:38:47.600Z</time>
      </trkpt>
      <trkpt lat="48.29314" lon="-4.26761">
        <ele>14.67</ele>
        <time>2022-07-11T12:38:57.218Z</time>
      </trkpt>
      <trkpt lat="48.29322" lon="-4.26765">
        <ele>13.69</ele>
        <time>2022-07-11T12:39:06.616Z</time>
      </trkpt>
      <trkpt lat="48.29331" lon="-4.26766">
        <ele>13.67</ele>
        <time>2022-07-11T12:39:15.693Z</time>
      </trkpt>
      <trkpt lat="48.29342" lon="-4.26769">
        <ele>12.87</ele>
        <time>2022-07-11T12:39:25.357Z</time>
      </trkpt>
      <trkpt lat="48.29351" lon="-4.26773">
        <ele>12.87</ele>
        <time>2022-07-11T12:39:34.578Z</time>
      </trkpt>
      <trkpt lat="48.29362" lon="-4.26782">
        <ele>12.87</ele>
        <time>2022-07-11T12:39:44.191Z</time>
      </trkpt>
      <trkpt lat="48.29367" lon="-4.26784">
        <ele>8.37</ele>
        <time>2022-07-11T12:39:54.000Z</time>
      </trkpt>
      <trkpt lat="48.29368" lon="-4.26787">
        <ele>8.37</ele>
        <time>2022-07-11T12:40:03.494Z</time>
      </trkpt>
      <trkpt lat="48.29374" lon="-4.26799">
        <ele>8.37</ele>
        <time>2022-07-11T12:40:12.637Z</time>
      </trkpt>
      <trkpt lat="48.29375" lon="-4.26802">
        <ele>11.76</ele>
        <time>2022-07-11T12:40:22.000Z</time>
      </trkpt>
      <trkpt lat="48.29375" lon="-4.26801">
        <ele>12.59</ele>
        <time>2022-07-11T12:40:33.070Z</time>
      </trkpt>
      <trkpt lat="48.29368" lon="-4.26795">
        <ele>12.87</ele>
        <time>2022-07-11T12:40:42.454Z</time>
      </trkpt>
      <trkpt lat="48.2936" lon="-4.2679">
        <ele>11.77</ele>
        <time>2022-07-11T12:40:52.356Z</time>
      </trkpt>
      <trkpt lat="48.29354" lon="-4.26784">
        <ele>12.87</ele>
        <time>2022-07-11T12:41:01.753Z</time>
      </trkpt>
      <trkpt lat="48.29346" lon="-4.26781">
        <ele>12.87</ele>
        <time>2022-07-11T12:41:11.614Z</time>
      </trkpt>
      <trkpt lat="48.29338" lon="-4.2678">
        <ele>13.16</ele>
        <time>2022-07-11T12:41:21.517Z</time>
      </trkpt>
      <trkpt lat="48.29335" lon="-4.26775">
        <ele>13.67</ele>
        <time>2022-07-11T12:41:31.634Z</time>
      </trkpt>
      <trkpt lat="48.29327" lon="-4.26771">
        <ele>15.36</ele>
        <time>2022-07-11T12:41:41.471Z</time>
      </trkpt>
      <trkpt lat="48.29316" lon="-4.26769">
        <ele>14.67</ele>
        <time>2022-07-11T12:41:51.438Z</time>
      </trkpt>
      <trkpt lat="48.29307" lon="-4.26769">
        <ele>14.67</ele>
        <time>2022-07-11T12:42:01.000Z</time>
      </trkpt>
      <trkpt lat="48.29298" lon="-4.26766">
        <ele>15.37</ele>
        <time>2022-07-11T12:42:10.557Z</time>
      </trkpt>
      <trkpt lat="48.29288" lon="-4.26764">
        <ele>16.58</ele>
        <time>2022-07-11T12:42:20.634Z</time>
      </trkpt>
      <trkpt lat="48.29279" lon="-4.2676">
        <ele>16.48</ele>
        <time>2022-07-11T12:42:29.936Z</time>
      </trkpt>
      <trkpt lat="48.2927" lon="-4.26758">
        <ele>17.27</ele>
        <time>2022-07-11T12:42:39.434Z</time>
      </trkpt>
      <trkpt lat="48.29265" lon="-4.26761">
        <ele>17.57</ele>
        <time>2022-07-11T12:42:49.491Z</time>
      </trkpt>
      <trkpt lat="48.29256" lon="-4.26765">
        <ele>17.67</ele>
        <time>2022-07-11T12:42:58.551Z</time>
      </trkpt>
      <trkpt lat="48.29247" lon="-4.26775">
        <ele>17.67</ele>
        <time>2022-07-11T12:43:07.977Z</time>
      </trkpt>
      <trkpt lat="48.29241" lon="-4.26776">
        <ele>17.67</ele>
        <time>2022-07-11T12:43:17.395Z</time>
      </trkpt>
      <trkpt lat="48.2924" lon="-4.26777">
        <ele>17.67</ele>
        <time>2022-07-11T12:43:45.000Z</time>
      </trkpt>
      <trkpt lat="48.29239" lon="-4.2678">
        <ele>17.67</ele>
        <time>2022-07-11T12:43:55.000Z</time>
      </trkpt>
      <trkpt lat="48.29238" lon="-4.2678">
        <ele>17.67</ele>
        <time>2022-07-11T12:44:05.000Z</time>
      </trkpt>
      <trkpt lat="48.29237" lon="-4.26778">
        <ele>17.67</ele>
        <time>2022-07-11T12:44:21.694Z</time>
      </trkpt>
      <trkpt lat="48.29236" lon="-4.26777">
        <ele>17.67</ele>
        <time>2022-07-11T12:44:31.059Z</time>
      </trkpt>
      <trkpt lat="48.29234" lon="-4.26775">
        <ele>17.67</ele>
        <time>2022-07-11T12:44:41.000Z</time>
      </trkpt>
      <trkpt lat="48.29233" lon="-4.26775">
        <ele>17.67</ele>
        <time>2022-07-11T12:44:50.342Z</time>
      </trkpt>
      <trkpt lat="48.29233" lon="-4.26772">
        <ele>17.67</ele>
        <time>2022-07-11T12:45:00.396Z</time>
      </trkpt>
      <trkpt lat="48.2923" lon="-4.26771">
        <ele>17.67</ele>
        <time>2022-07-11T12:45:02.000Z</time>
      </trkpt>
    </trkseg>
  </trk>
</gpx>